GFSMW_925_temp_000.txt.gz
Temp
14 15 15 17 17 18 18 19 20 19 19 18 17 17 17 17 17 16 17 17 16 16 16 16 15 15 14 14 14 14 13 13 13 12 13 14 15 15 16 16 16 16 17
13 13 14 15 16 16 17 18 18 19 18 17 17 17 17 16 16 16 16 16 16 16 15 15 15 15 15 14 14 13 13 13 14 12 13 13 15 16 17 17 16 16 16
13 12 12 14 15 15 16 17 17 17 18 17 17 17 17 16 16 15 15 15 15 15 15 15 15 14 14 13 13 13 12 13 13 14 13 14 15 15 16 17 17 16 16
13 13 12 13 14 14 15 16 16 16 16 17 17 16 14 13 13 14 14 14 14 14 14 13 13 13 13 12 12 12 12 12 12 13 14 13 13 14 14 16 16 16 16
12 12 12 13 14 15 15 15 15 15 15 15 15 14 13 13 13 13 13 13 13 12 12 12 12 12 12 11 11 11 11 11 10 11 11 12 12 13 13 13 14 15 15
12 11 12 13 13 14 14 15 14 13 14 14 13 13 12 12 12 11 11 11 11 10 10 10 10 10 10 9 9 10 10 10 10 10 9 10 10 10 11 11 12 12 13
11 11 11 11 12 13 13 13 13 12 12 12 12 11 11 10 10 9 9 9 9 9 9 9 9 8 8 8 8 8 9 9 9 9 9 9 9 9 10 10 11 11 12
11 11 10 11 11 12 12 13 13 12 11 11 10 10 10 10 9 9 8 8 7 7 7 8 7 7 7 7 7 7 7 7 8 8 8 8 8 8 8 9 9 9 10
11 10 10 10 11 11 11 11 11 10 10 10 10 9 9 9 8 8 7 7 7 6 6 6 6 6 6 6 6 6 6 6 7 7 7 7 7 7 7 8 9 8 9
11 10 9 9 10 10 10 10 10 9 9 9 9 8 8 8 7 7 7 6 6 5 5 5 5 5 5 5 5 4 5 6 6 6 5 6 6 6 7 7 7 7 8
11 9 8 9 9 9 9 9 9 9 8 8 7 8 7 7 6 6 5 5 5 4 4 4 4 4 4 4 4 4 4 4 4 4 4 5 5 5 6 6 6 6 6
10 8 8 8 8 8 8 8 8 7 7 7 7 6 6 6 5 5 4 4 4 4 4 4 4 3 3 3 2 3 3 3 3 3 4 4 5 5 4 4 4 5 5
9 7 7 7 7 7 7 7 7 6 6 6 6 6 5 4 4 4 4 4 4 4 4 3 2 2 2 2 2 2 2 2 2 3 3 3 3 3 3 3 3 4 3
9 7 6 6 6 6 6 6 6 6 5 5 5 4 4 3 3 3 3 3 3 2 3 3 2 2 2 2 2 2 2 2 2 2 2 2 2 2 2 2 3 3 2
8 8 7 5 5 5 5 5 5 5 5 5 4 3 3 3 3 3 3 2 2 2 2 2 2 1 1 1 1 1 1 2 2 1 1 1 1 1 2 2 2 2 2
9 7 6 5 4 5 5 5 4 4 4 3 3 3 3 2 2 2 2 2 2 1 1 1 0 0 0 -0 1 1 1 1 1 0 0 0 0 1 1 1 1 2 2
8 6 5 5 5 5 5 4 4 4 3 3 3 2 2 1 1 1 1 1 1 0 0 0 -0 -1 -1 -1 -0 0 0 -0 -0 -0 -0 -0 0 -0 -0 0 1 1 1
7 5 4 4 5 4 4 4 4 3 3 3 2 1 1 1 1 1 0 0 -0 -1 -1 -1 -1 -2 -2 -2 -1 -1 -1 -1 -1 -1 -1 -0 -1 -1 0 0 -0 -1 -0
5 5 6 5 4 4 4 3 3 3 2 1 1 1 1 0 -0 0 -0 -1 -1 -1 -2 -3 -3 -3 -3 -2 -2 -1 -1 -1 -1 -1 -1 -1 -1 -0 -0 -1 -1 -0 -1
5 5 4 4 4 4 3 3 2 2 1 0 1 1 0 -0 0 -1 -1 -1 -1 -2 -3 -3 -3 -3 -3 -3 -2 -1 -1 -1 -1 -1 -2 -2 -1 -0 -0 -0 -1 -2 -2
5 4 4 4 4 3 3 2 1 1 0 0 0 0 0 -0 -1 -1 -1 -1 -2 -3 -4 -4 -4 -4 -3 -3 -2 -2 -1 -1 -1 -2 -1 -1 -1 -2 -1 -1 -2 -2 -1
3 4 3 3 3 3 2 1 1 0 0 0 0 -0 -0 -1 -1 -1 -2 -2 -3 -4 -4 -4 -4 -4 -3 -3 -3 -2 -1 -1 -2 -2 -1 -2 -3 -2 -2 -3 -3 -2 -2
3 3 3 3 2 1 1 1 0 0 -0 -0 -0 -1 -1 -1 -2 -2 -3 -4 -4 -4 -4 -4 -4 -3 -3 -3 -3 -3 -2 -2 -1 -2 -2 -4 -3 -3 -4 -4 -4 -4 -5
3 3 3 2 2 1 0 0 0 -0 -1 -1 -1 -1 -2 -2 -2 -3 -3 -4 -4 -4 -4 -4 -3 -3 -3 -4 -4 -3 -3 -2 -2 -3 -4 -3 -4 -4 -4 -5 -5 -6 -5
3 3 2 2 1 1 1 0 -0 -1 -1 -1 -2 -2 -3 -3 -3 -4 -4 -4 -4 -4 -3 -3 -3 -4 -4 -3 -2 -2 -2 -2 -3 -2 -3 -4 -5 -5 -5 -5 -6 -6 -6
2 1 1 1 1 0 0 0 -1 -1 -2 -3 -3 -3 -4 -4 -4 -5 -5 -5 -4 -4 -3 -3 -3 -3 -3 -3 -3 -2 -3 -3 -3 -3 -4 -5 -5 -5 -6 -6 -6 -6 -6

GFSMW_925_temp_003.txt.gz
Temp
14 13 14 16 17 18 18 18 18 17 18 18 17 16 14 15 15 15 16 16 15 15 15 15 14 14 13 13 13 13 13 14 14 13 13 14 15 15 16 16 15 15 17
15 13 13 14 15 15 16 17 17 17 17 17 16 16 14 14 14 14 14 14 15 14 14 14 13 13 13 12 12 12 12 13 13 13 14 15 16 17 15 15 15 15 15
15 14 13 12 13 14 15 16 16 17 16 16 16 16 15 15 14 13 13 13 13 13 13 13 12 12 11 10 10 10 10 11 12 12 13 14 14 13 15 15 15 15 14
14 13 13 12 12 13 15 15 16 16 16 16 16 15 12 11 10 11 12 12 12 12 12 11 11 11 10 9 9 9 9 9 10 10 12 11 11 12 13 15 14 14 15
14 13 12 11 12 14 14 14 15 14 14 15 14 13 12 11 11 12 12 11 11 11 10 10 9 8 8 8 8 8 8 8 8 9 9 10 10 11 12 12 13 12 13
13 12 11 12 12 13 13 14 13 12 13 13 13 13 12 11 11 10 10 9 8 8 8 9 8 7 7 7 7 7 7 7 7 8 8 8 9 9 10 10 11 11 11
13 12 12 11 11 12 12 12 12 11 12 12 11 11 10 10 9 8 8 8 7 7 8 8 8 6 6 5 5 6 6 6 6 6 7 7 7 8 8 9 9 10 11
12 12 11 11 10 11 11 11 11 10 11 11 10 10 9 9 8 8 7 6 6 6 6 7 6 6 6 6 5 5 5 5 5 5 5 6 6 6 7 7 7 8 9
12 12 10 10 9 10 10 10 10 9 9 9 9 9 9 8 8 8 8 7 6 5 6 6 6 6 5 4 3 4 4 4 5 5 4 4 5 5 5 5 6 7 7
12 11 10 9 8 9 9 9 9 9 8 8 8 8 8 8 8 7 7 6 6 5 5 5 5 4 4 3 3 3 3 3 3 4 4 4 4 4 5 5 5 6 5
12 11 9 8 8 8 8 8 8 8 7 7 7 7 7 6 7 6 6 5 5 4 4 4 4 3 3 3 2 2 3 2 3 3 3 3 3 3 3 4 4 4 4
11 10 8 7 7 7 7 7 7 7 6 6 6 6 6 6 6 5 4 4 4 4 3 4 3 2 2 1 1 1 2 2 2 2 2 2 2 2 2 3 3 2 3
10 9 7 7 7 6 6 6 6 6 5 5 6 6 6 5 4 4 3 3 3 3 3 3 2 2 2 1 1 1 1 2 2 2 2 2 1 1 1 1 2 2 2
9 8 8 7 6 5 5 5 5 5 5 5 5 5 5 4 3 3 3 3 2 2 2 3 2 2 1 -0 1 1 1 1 1 1 1 1 1 1 1 1 2 1 1
9 8 7 6 5 4 5 5 5 4 4 5 4 4 3 2 3 3 2 2 2 2 2 1 1 0 -1 0 -0 0 1 1 0 0 0 0 0 0 1 1 1 1 1
9 8 7 6 5 4 4 4 4 4 4 3 3 2 2 2 2 2 2 2 1 1 1 0 -0 -0 -1 -1 -1 -0 -0 -0 -0 -1 -1 -0 -0 -0 0 -0 0 1 0
9 8 7 5 4 5 5 4 4 4 3 2 2 2 2 1 1 1 1 1 0 0 -1 -0 -0 -2 -2 -2 -1 -1 -1 -1 -1 -1 -1 -1 -1 -1 -1 -1 0 -1 -0
8 7 5 4 4 4 4 4 4 3 2 2 2 1 1 1 1 1 1 0 -1 -1 -1 -2 -2 -2 -3 -3 -2 -2 -1 -1 -1 -1 -1 -1 -1 -1 -1 -0 -2 -0 -0
7 5 5 4 4 4 4 4 3 2 2 2 1 1 0 0 0 0 -0 -1 -1 -2 -2 -3 -3 -3 -3 -3 -3 -2 -1 -1 -1 -1 -1 -1 -1 -1 -1 -2 -1 -1 -1
5 4 4 4 4 3 3 3 2 2 1 1 0 0 0 0 -0 -1 -1 -1 -1 -2 -3 -3 -4 -4 -4 -4 -3 -2 -2 -1 -1 -2 -2 -1 -1 -1 -2 -1 -2 -2 -3
4 4 4 4 4 3 3 2 1 1 1 0 0 0 0 -0 -1 -1 -1 -1 -2 -3 -4 -4 -4 -4 -4 -4 -3 -2 -2 -2 -2 -2 -2 -1 -1 -3 -2 -2 -3 -3 -2
3 3 3 3 2 2 2 1 1 1 0 0 -0 -0 -0 -1 -1 -1 -2 -3 -4 -4 -4 -4 -4 -4 -4 -3 -3 -2 -2 -2 -2 -2 -1 -2 -3 -2 -3 -3 -3 -3 -3
3 3 3 2 2 2 1 1 0 0 -0 -1 -0 -1 -1 -1 -1 -2 -3 -4 -4 -4 -4 -4 -4 -3 -3 -3 -3 -3 -3 -2 -2 -2 -3 -2 -2 -2 -4 -4 -4 -4 -6
2 2 2 1 1 1 1 1 -0 -1 -1 -1 -1 -1 -1 -2 -3 -3 -4 -4 -5 -4 -4 -4 -3 -3 -3 -3 -3 -3 -3 -2 -3 -3 -3 -3 -3 -4 -5 -5 -5 -5 -6
2 2 2 2 1 1 0 -0 -1 -1 -1 -2 -2 -2 -2 -3 -4 -4 -5 -5 -4 -4 -3 -3 -3 -4 -3 -3 -3 -2 -2 -3 -3 -3 -4 -4 -5 -5 -5 -5 -6 -6 -6
2 1 1 1 0 -0 -0 -1 -1 -2 -2 -2 -3 -3 -4 -4 -5 -5 -5 -5 -5 -4 -4 -4 -4 -4 -3 -3 -3 -3 -3 -3 -3 -4 -5 -6 -5 -5 -6 -6 -6 -6 -6

GFSMW_925_temp_006.txt.gz
Temp
19 18 17 18 18 18 18 18 18 18 19 19 19 18 17 16 15 14 14 14 14 14 14 14 14 14 15 14 14 14 14 15 15 15 16 16 18 19 18 16 17 18 18
20 18 18 18 18 18 18 17 17 17 17 17 17 16 16 15 14 14 13 13 13 13 13 13 13 13 13 13 13 13 13 14 14 14 14 16 17 18 16 15 17 17 17
20 19 18 17 17 16 16 16 16 16 16 16 16 15 15 15 15 14 13 12 12 12 12 11 12 12 12 12 12 12 12 12 13 13 13 15 14 15 14 14 15 16 15
20 19 18 17 16 15 15 15 15 15 15 15 16 16 16 15 13 13 12 12 11 10 10 10 10 10 11 10 10 11 10 10 11 11 12 12 12 13 13 14 13 14 14
19 18 17 15 15 14 14 14 14 14 14 14 14 15 14 13 12 12 12 11 11 10 9 9 9 9 9 9 9 9 9 9 10 10 10 10 11 11 12 11 13 12 12
19 18 16 15 14 13 13 13 13 13 12 13 13 12 12 12 12 11 12 11 11 10 8 8 8 8 8 8 8 8 8 8 8 9 9 10 10 10 10 11 11 11 11
18 17 17 16 15 14 13 13 13 12 12 11 11 11 11 11 10 11 10 10 10 9 8 7 7 7 7 7 7 7 7 8 7 7 8 8 8 8 8 9 10 10 9
19 18 17 16 14 13 13 13 12 11 11 10 10 10 10 10 9 9 9 9 8 8 7 6 6 7 6 6 6 7 7 7 7 6 6 7 7 7 7 7 8 8 9
18 17 16 15 14 13 12 12 11 10 10 9 9 9 9 8 8 8 7 7 7 6 6 6 6 6 6 6 5 6 6 6 6 6 6 6 6 6 6 6 6 7 6
18 17 16 15 14 12 11 11 10 10 9 9 8 8 8 7 7 7 6 6 6 6 5 5 5 5 5 5 5 5 5 5 5 5 5 5 5 5 5 5 5 5 6
18 17 16 14 12 11 10 10 9 9 8 8 8 8 7 6 6 6 6 5 5 5 5 5 4 5 5 5 5 5 5 4 5 5 5 4 4 4 4 4 4 4 4
18 17 15 13 11 11 10 10 9 9 8 7 7 6 6 6 6 6 5 5 5 4 4 4 4 4 4 4 4 4 4 4 4 4 4 4 4 3 3 3 3 3 3
17 16 14 13 12 11 10 9 8 8 7 7 6 6 6 6 5 5 4 4 4 3 3 3 3 3 3 3 3 3 3 3 3 3 3 3 2 2 2 2 2 3 3
16 15 14 13 12 11 9 8 7 7 6 5 5 5 5 4 4 4 3 3 3 3 3 3 3 2 2 2 3 2 2 2 3 2 2 2 1 1 1 1 2 2 1
16 14 14 13 11 10 9 7 7 6 5 5 5 4 3 3 3 3 3 2 2 2 2 2 2 2 2 2 1 1 1 1 2 2 1 1 1 0 0 1 1 0 1
15 14 14 13 11 9 8 7 6 5 5 5 4 3 3 3 3 2 2 2 2 2 2 2 2 2 2 1 -0 -1 -0 0 1 1 1 1 1 1 0 0 0 1 0
15 14 13 12 10 9 7 7 6 5 4 4 3 3 3 2 2 2 2 2 2 2 2 2 1 1 1 -0 -1 -1 -1 -0 0 1 0 1 1 0 -0 0 0 -0 -1
14 13 12 10 8 7 6 5 5 4 4 3 3 2 2 2 2 2 2 2 2 2 1 1 1 0 0 -1 -2 -2 -1 -0 0 0 0 0 -0 -0 0 0 -2 -1 -1
13 12 10 8 7 6 6 5 4 4 3 3 3 2 1 1 2 2 2 1 1 1 1 1 0 -0 -1 -1 -2 -2 -1 -0 -0 -0 0 -1 -1 0 -0 -2 -2 -2 -2
9 8 7 7 6 5 5 5 5 3 3 2 2 1 1 1 1 1 1 1 0 0 0 -0 -0 -1 -1 -2 -2 -2 -1 -1 -1 -1 -1 -0 -0 -0 -2 -1 -1 -2 -2
7 6 6 6 6 5 4 5 3 2 2 1 1 1 1 1 0 0 0 -0 -0 -0 -0 -0 -1 -1 -2 -2 -2 -2 -2 -1 -2 -1 -1 -1 -1 -2 -1 -2 -2 -3 -3
6 6 6 5 4 4 4 3 3 2 1 0 0 1 0 0 -0 -1 -1 -1 -0 -0 -0 -1 -1 -1 -1 -2 -2 -2 -2 -2 -2 -1 -1 -2 -2 -2 -2 -3 -3 -3 -3
6 5 5 4 4 3 3 3 2 0 0 0 1 0 0 -0 -0 -1 -1 -1 -1 -1 -1 -1 -1 -1 -2 -2 -2 -2 -2 -2 -1 -1 -3 -2 -2 -3 -3 -3 -3 -4 -4
6 5 4 5 4 2 1 1 0 -1 -0 0 0 0 -0 -1 -1 -1 -1 -2 -2 -2 -2 -2 -2 -2 -2 -2 -2 -2 -2 -2 -2 -3 -3 -3 -3 -4 -4 -4 -4 -5 -5
5 4 4 4 3 2 1 -0 -1 -1 -0 -0 -0 -0 -0 -1 -1 -1 -2 -3 -3 -3 -3 -3 -3 -3 -3 -3 -3 -3 -2 -3 -3 -3 -3 -3 -4 -4 -4 -5 -5 -5 -5
4 4 3 3 2 1 0 -0 -0 -1 -1 -1 -0 -1 -1 -1 -2 -2 -2 -2 -3 -4 -4 -4 -4 -4 -3 -3 -3 -3 -3 -3 -3 -4 -4 -4 -5 -5 -5 -5 -5 -6 -6

GFSMW_925_temp_009.txt.gz
Temp
23 21 22 21 21 21 21 21 21 21 21 21 20 19 18 17 16 16 16 15 15 15 15 15 15 14 15 15 14 14 14 14 14 14 15 14 17 16 16 15 15 16 17
23 22 21 21 21 20 20 20 20 20 20 19 18 18 17 16 15 15 14 14 14 14 14 13 14 13 13 13 13 12 12 13 13 13 13 14 15 15 13 14 15 14 15
23 22 21 20 20 19 18 18 18 18 17 17 17 17 16 16 16 15 14 13 13 12 12 12 12 12 12 12 11 11 11 11 12 12 13 12 12 13 13 13 14 13 13
23 22 21 20 18 17 17 17 17 17 17 18 18 18 17 16 15 15 14 14 12 11 11 11 11 11 11 11 10 11 10 10 11 11 11 11 12 11 11 13 12 12 12
22 21 20 19 17 16 16 16 16 16 16 16 17 16 16 15 14 14 14 13 12 11 10 10 10 10 10 9 9 9 9 9 10 10 10 10 11 11 10 10 11 10 10
21 21 19 17 16 15 15 15 15 15 15 15 15 15 15 15 14 13 13 13 13 11 10 9 9 9 9 8 8 8 8 8 9 8 9 9 10 10 9 9 9 9 9
21 19 18 18 16 16 15 15 15 14 14 14 14 13 13 13 12 12 12 12 12 10 9 8 8 8 8 8 8 8 8 8 8 8 8 8 8 8 8 8 8 8 8
21 19 19 18 16 16 15 15 14 14 13 13 12 12 12 12 11 11 10 10 10 9 8 8 8 8 8 7 7 7 7 7 7 7 7 7 7 7 7 7 7 6 6
21 20 19 18 16 16 15 15 14 13 12 12 12 11 11 10 10 10 9 9 9 8 8 7 7 7 7 7 7 7 7 7 6 6 6 6 6 6 6 6 6 6 5
21 20 19 18 17 15 14 14 13 12 12 11 11 10 10 9 9 9 8 8 8 7 7 7 7 7 7 6 6 6 6 6 6 6 6 6 6 5 5 5 5 5 4
20 20 19 17 16 14 13 13 12 11 11 11 10 10 9 8 8 8 8 7 7 7 6 6 6 6 6 6 6 5 5 5 5 5 5 5 5 5 4 4 4 4 4
20 20 19 16 15 14 13 13 12 11 10 10 10 9 8 8 8 7 7 6 6 6 6 5 5 5 5 5 5 4 5 4 4 4 4 4 4 3 3 3 3 3 2
20 19 18 16 15 14 13 12 12 11 10 9 9 8 8 7 7 7 6 6 5 5 5 5 5 5 4 4 4 4 4 3 3 3 3 3 3 3 2 2 1 2 2
20 19 18 17 16 14 13 12 11 10 9 8 8 8 7 6 6 5 5 5 5 4 4 4 4 4 4 3 3 3 2 2 2 2 2 2 2 2 1 1 1 1 1
19 19 17 17 15 14 13 11 10 9 8 8 7 6 5 5 5 5 4 4 4 4 4 4 3 3 3 3 3 1 1 0 1 1 2 2 2 1 1 2 1 0 0
19 18 17 17 15 14 12 10 9 8 7 7 6 5 5 5 5 4 4 4 4 4 4 3 3 3 3 3 2 1 -0 -0 -0 1 1 1 1 2 1 1 1 1 0
19 18 17 16 15 13 11 9 8 7 7 6 5 5 4 4 4 4 4 4 4 4 3 3 3 3 2 2 1 -0 -1 -1 0 1 1 1 1 1 0 0 0 -0 -1
17 17 16 14 13 11 10 9 7 7 6 5 5 4 4 4 4 4 4 4 3 3 3 3 2 2 2 1 0 -1 -1 -1 0 0 1 0 0 -0 0 0 -2 -2 -2
16 16 14 12 10 9 8 7 7 6 5 5 5 4 4 3 3 3 3 3 3 2 2 2 2 1 1 0 -0 -1 -1 -1 -0 -0 -0 -0 -0 -0 -1 -2 -2 -1 -1
12 12 11 10 9 8 7 7 7 6 5 4 3 3 3 3 3 3 2 2 2 2 2 2 1 1 1 0 -1 -1 -1 -1 -1 -1 -1 -1 -0 -1 -1 -2 -2 -2 -2
10 9 9 9 8 7 7 7 5 5 3 2 3 3 3 2 2 2 2 1 1 1 1 1 1 1 0 -0 -0 -1 -1 -1 -1 -2 -1 -1 -1 -2 -2 -2 -2 -3 -3
8 8 9 8 7 6 6 5 4 3 2 2 2 2 2 2 2 1 1 1 1 1 1 1 0 0 0 -0 -1 -1 -1 -1 -2 -2 -1 -2 -2 -2 -2 -2 -3 -3 -3
8 8 8 7 6 5 5 4 3 2 2 2 2 2 2 2 2 1 1 0 0 0 0 -0 -0 -1 -1 -2 -1 -2 -2 -2 -2 -2 -2 -3 -2 -3 -3 -4 -3 -4 -4
8 7 7 6 5 4 3 3 2 2 2 2 2 2 2 2 1 1 1 0 -0 -1 -1 -1 -2 -2 -3 -2 -2 -2 -3 -2 -3 -3 -3 -3 -3 -3 -4 -4 -4 -5 -5
7 6 7 6 5 3 3 2 2 1 1 2 2 2 2 1 0 0 0 -0 -1 -1 -2 -3 -3 -3 -3 -3 -3 -2 -3 -3 -3 -3 -3 -3 -4 -5 -5 -5 -5 -5 -5
6 6 6 5 4 3 3 2 1 0 1 1 1 1 0 0 0 -0 -1 -1 -1 -1 -2 -2 -3 -3 -3 -3 -3 -3 -3 -3 -3 -3 -4 -5 -5 -5 -5 -5 -5 -6 -6

GFSMW_925_temp_012.txt.gz
Temp
20 22 22 21 21 21 21 21 20 20 20 20 18 17 16 16 15 15 15 15 14 14 14 14 13 13 13 13 12 12 11 12 12 12 11 13 14 14 14 14 13 13 13
19 20 21 21 20 20 20 20 20 20 19 19 18 17 16 15 15 14 14 14 14 13 13 13 12 12 12 11 11 11 10 11 11 11 10 8 11 12 11 11 12 12 12
18 18 18 19 19 18 18 18 18 18 18 17 17 16 16 15 15 14 13 13 13 13 12 12 11 11 11 10 10 10 10 10 10 10 10 7 7 9 11 10 11 11 11
19 18 17 18 18 18 18 17 18 17 17 17 16 16 16 15 14 14 14 13 12 12 11 10 10 10 10 9 9 9 9 9 9 9 9 9 9 7 7 10 9 10 9
18 17 16 17 17 17 16 16 17 17 17 17 17 16 15 14 14 14 13 13 12 11 10 10 9 9 9 8 8 8 8 8 8 8 8 8 8 8 6 6 7 7 8
18 17 17 16 16 16 16 15 15 15 15 16 15 15 15 14 13 13 13 12 11 10 10 9 9 9 8 8 8 7 7 7 8 8 7 7 6 6 6 6 6 6 6
17 16 14 14 15 15 15 15 15 14 14 14 13 13 13 12 12 12 11 11 10 9 9 8 8 8 8 7 7 7 7 7 7 7 7 6 6 6 6 6 5 5 5
17 15 14 15 15 15 15 14 14 13 13 12 12 12 12 11 11 10 10 10 9 9 8 8 7 7 7 7 7 7 6 6 6 6 6 6 6 6 5 5 4 4 4
17 16 15 15 15 15 15 14 13 13 12 12 11 11 11 10 10 9 9 9 8 8 7 7 7 7 6 6 6 6 6 6 6 5 5 5 5 5 5 5 4 3 2
17 16 15 15 16 15 14 13 13 12 12 11 11 10 10 9 9 9 8 8 7 7 7 6 6 6 6 6 6 5 5 5 5 5 4 4 4 4 4 4 3 3 2
17 16 15 16 15 14 14 13 12 11 11 11 10 9 9 9 8 8 7 7 7 6 6 6 5 5 5 5 5 4 4 4 4 3 3 3 3 3 3 3 2 2 2
17 16 15 15 14 13 13 12 12 11 10 10 9 9 8 8 8 7 7 6 6 5 5 5 5 5 4 4 4 4 3 3 2 2 2 2 2 2 2 2 1 1 1
16 15 14 13 13 13 13 12 12 10 10 9 9 8 8 7 7 6 6 5 5 5 5 4 4 4 4 4 3 3 3 2 1 0 0 0 1 1 1 1 1 1 0
17 16 14 12 14 13 13 12 11 10 9 9 8 7 7 6 6 5 5 5 4 4 4 4 4 4 3 3 3 3 2 1 -0 -1 -1 -0 0 1 1 1 1 1 0
17 15 13 12 13 13 13 12 10 9 8 8 7 6 6 5 5 5 4 4 4 4 4 4 4 3 3 3 3 2 1 0 -1 -1 -1 -1 0 1 1 1 1 0 0
17 15 14 13 12 13 12 11 9 8 8 7 6 5 5 5 5 4 4 4 4 4 4 3 3 3 3 2 2 2 1 -0 -1 -2 -1 -1 0 1 0 0 0 0 -0
16 15 14 13 13 12 11 9 8 7 7 6 5 5 5 4 4 4 4 3 4 3 3 3 2 2 2 2 2 1 0 -1 -1 -1 -1 -1 -0 -1 -1 -1 -1 -2 -2
15 14 12 13 13 11 10 9 7 7 6 5 5 5 4 4 4 3 3 3 3 3 2 2 2 2 1 1 1 1 -0 -1 -1 -1 -1 -1 -1 -1 -1 -1 -2 -3 -2
13 13 13 12 11 10 9 7 7 6 5 5 5 4 4 3 3 3 3 2 2 2 1 1 1 1 1 1 1 0 -0 -1 -1 -1 -1 -2 -1 -1 -1 -1 -3 -2 -3
11 10 10 10 9 8 7 7 6 5 5 4 4 3 3 3 2 2 2 1 1 1 1 0 1 1 0 0 0 0 -0 -1 -1 -2 -2 -2 -1 -1 -2 -2 -2 -4 -3
9 9 9 8 8 7 7 6 5 4 4 3 3 3 3 2 2 2 1 1 1 0 0 0 0 -0 -0 -0 -1 -1 -1 -1 -2 -3 -3 -2 -2 -2 -2 -2 -3 -3 -3
8 8 7 7 7 7 7 5 4 3 3 3 2 2 2 2 2 2 1 1 0 0 -0 -1 -1 -1 -2 -2 -2 -2 -2 -2 -3 -3 -3 -3 -3 -2 -2 -3 -3 -3 -4
8 8 6 6 6 6 5 4 3 3 2 2 2 2 2 2 2 1 1 0 0 -0 -1 -2 -2 -3 -3 -3 -3 -3 -2 -2 -2 -3 -3 -3 -3 -3 -4 -4 -4 -4 -6
7 7 6 5 5 4 4 3 2 2 2 2 2 2 2 2 1 0 0 0 -0 -1 -2 -2 -3 -3 -3 -3 -3 -3 -3 -3 -4 -4 -4 -4 -4 -5 -5 -5 -6 -6 -6
7 6 6 5 4 3 3 2 2 2 1 1 1 1 1 0 -0 -0 -0 -0 -1 -1 -1 -2 -2 -3 -3 -3 -2 -2 -2 -3 -4 -3 -5 -5 -5 -6 -6 -6 -6 -6 -6
6 6 6 4 3 3 2 2 1 1 1 1 0 0 -0 -1 -1 -1 -1 -1 -1 -2 -2 -2 -2 -2 -2 -2 -2 -2 -3 -3 -4 -5 -5 -6 -6 -6 -6 -6 -7 -7 -7

GFSMW_925_temp_015.txt.gz
Temp
17 20 21 21 21 20 20 20 20 20 20 19 18 17 16 16 16 16 15 15 15 15 15 14 14 13 12 11 11 11 11 11 10 10 10 12 13 11 12 11 11 11 10
17 17 19 19 19 19 19 20 19 19 19 18 17 16 15 15 15 15 14 14 14 14 14 13 12 12 11 11 10 10 9 9 9 8 8 6 9 11 9 9 10 10 10
17 15 15 17 18 17 18 18 18 18 18 17 16 15 15 14 14 13 13 13 13 13 13 12 12 11 10 10 9 9 8 8 8 8 8 5 5 6 9 8 8 9 8
17 15 14 15 17 17 17 18 18 17 17 17 16 15 14 14 14 13 13 12 12 12 11 11 10 10 9 9 8 8 8 8 7 8 8 7 7 4 4 7 6 7 7
17 15 14 15 16 16 17 17 17 17 16 16 16 15 14 14 13 13 12 12 11 11 10 9 9 9 8 8 8 8 7 7 7 7 7 6 6 6 3 4 4 5 6
16 14 14 15 15 16 16 16 16 16 16 16 15 15 14 13 13 13 12 11 10 10 9 9 8 8 8 7 7 7 7 7 6 6 6 6 5 5 4 4 4 4 5
15 14 13 12 13 14 15 15 15 14 15 15 14 14 13 13 12 12 11 10 10 9 8 8 8 7 7 7 7 7 6 6 6 6 5 5 5 5 4 4 4 3 4
14 13 12 12 13 14 14 14 14 13 14 14 13 13 12 12 11 10 10 9 9 8 8 8 7 7 7 6 6 6 6 5 5 5 5 5 4 4 4 3 3 2 3
14 13 12 12 13 13 14 13 13 12 12 12 12 11 11 10 10 9 9 9 8 8 7 7 7 6 6 6 5 5 5 4 4 4 4 3 3 3 3 3 2 2 1
14 13 13 12 13 14 13 13 13 12 12 11 11 10 10 9 9 9 8 8 8 7 7 6 6 6 5 5 4 4 4 4 3 3 2 2 1 1 1 2 2 1 1
14 13 13 13 13 13 13 12 12 11 11 11 10 9 9 9 8 8 8 7 7 6 6 6 5 5 4 4 4 3 3 3 2 2 1 0 0 -0 0 0 0 1 1
15 13 13 12 12 12 12 12 11 11 10 10 9 9 8 8 8 7 7 7 6 6 5 5 4 4 4 4 3 3 3 2 2 1 0 -1 -1 -1 -1 -0 -0 0 0
14 13 12 11 11 11 11 11 11 10 10 9 9 8 8 7 7 7 6 6 5 5 5 4 4 4 3 3 3 3 3 2 1 0 -1 -1 -2 -2 -1 -1 -0 0 0
15 13 12 11 11 11 11 11 10 10 9 9 8 7 7 7 6 6 5 5 5 5 4 4 4 3 3 3 3 2 2 2 1 -0 -1 -2 -2 -2 -1 -0 0 0 -0
14 13 12 11 10 10 11 10 9 9 9 8 7 7 6 6 5 5 5 5 4 4 4 3 3 3 2 2 2 2 2 1 0 -1 -1 -2 -1 -1 -0 -0 -0 -1 -1
15 13 12 11 10 10 9 9 9 8 8 7 6 6 6 5 5 5 4 4 4 3 3 3 2 2 2 1 1 2 1 1 -0 -1 -1 -2 -2 -1 -1 -1 -1 -0 -0
14 13 12 11 10 9 9 8 8 8 7 6 6 5 5 5 4 4 4 3 3 2 2 2 1 1 1 1 1 1 1 0 -0 -1 -1 -2 -2 -2 -2 -2 -1 -2 -2
14 13 11 10 9 9 9 8 7 7 6 6 5 5 4 4 4 3 3 2 2 2 1 1 1 0 0 0 0 0 0 -0 -1 -1 -2 -2 -2 -3 -2 -1 -2 -3 -3
10 9 10 9 9 8 8 7 7 6 6 5 5 4 4 4 3 3 2 2 1 1 1 0 0 -0 -0 -1 -1 -0 -1 -2 -2 -2 -2 -2 -3 -2 -1 -2 -3 -4 -4
9 8 7 7 8 7 8 7 6 5 5 4 4 4 3 3 2 2 2 1 1 1 0 -0 -0 -1 -1 -2 -2 -2 -2 -2 -2 -3 -3 -3 -2 -2 -2 -3 -3 -4 -4
7 7 7 6 7 7 7 6 5 4 4 4 3 3 3 2 2 2 1 1 1 0 -0 -1 -1 -1 -2 -3 -3 -2 -2 -2 -3 -4 -3 -3 -3 -3 -2 -3 -4 -4 -4
6 7 6 6 7 7 6 5 4 4 4 3 3 3 2 2 2 1 1 1 0 -0 -1 -1 -2 -2 -3 -3 -3 -2 -2 -2 -3 -3 -3 -4 -3 -3 -4 -4 -4 -4 -4
5 6 6 6 6 6 6 4 3 3 3 3 2 2 2 2 1 1 0 -0 -1 -1 -2 -2 -3 -3 -3 -3 -3 -3 -3 -2 -2 -3 -3 -4 -4 -5 -5 -5 -5 -5 -6
5 5 5 4 3 5 5 4 3 3 2 2 2 1 1 1 0 -0 -1 -1 -1 -2 -2 -2 -3 -3 -3 -3 -3 -2 -2 -3 -4 -4 -5 -5 -5 -6 -6 -6 -6 -7 -7
5 5 4 3 3 3 3 3 2 2 2 1 1 1 0 -0 -1 -1 -2 -2 -2 -2 -2 -2 -3 -3 -3 -3 -2 -2 -2 -3 -4 -4 -6 -6 -6 -7 -6 -6 -7 -7 -7
5 4 4 3 3 3 2 2 2 1 1 1 0 -0 -0 -1 -1 -2 -2 -2 -3 -3 -3 -3 -3 -3 -3 -3 -3 -3 -3 -4 -4 -5 -6 -7 -7 -7 -7 -7 -7 -7 -7

GFSMW_925_temp_018.txt.gz
Temp
17 19 20 20 20 20 20 20 19 18 19 18 18 17 16 16 16 16 16 16 16 15 15 15 14 13 12 11 11 11 10 10 9 9 10 11 12 10 11 10 10 9 9
15 16 17 18 19 19 18 17 17 17 18 19 18 17 16 15 15 15 15 15 15 14 14 13 13 12 11 11 10 9 9 8 8 7 6 5 7 9 9 8 9 8 9
15 14 13 16 17 18 18 17 17 17 18 18 17 15 15 14 14 14 13 13 13 13 13 12 11 11 10 9 9 8 8 7 7 7 7 4 4 5 7 8 7 7 6
16 14 12 13 16 17 17 17 17 18 17 17 16 16 14 13 13 13 12 12 12 12 11 11 10 9 9 8 8 8 7 7 6 7 7 6 6 3 3 6 5 5 5
16 14 13 14 15 16 16 17 17 17 17 17 17 16 14 14 13 12 12 11 11 11 10 10 9 8 8 8 7 7 7 6 6 5 5 5 5 5 1 3 3 4 4
15 13 13 13 14 15 16 16 16 16 16 16 16 15 14 13 12 11 11 11 10 10 9 9 8 8 7 7 7 6 6 6 5 5 5 4 3 3 2 2 3 3 3
14 12 12 12 11 13 14 15 15 14 15 15 15 14 13 13 12 12 11 10 10 9 8 8 8 7 7 6 6 6 5 5 5 4 4 4 3 3 3 2 2 2 2
14 13 12 12 11 12 13 14 14 13 14 14 13 13 13 12 12 11 11 10 9 8 7 7 7 6 6 6 5 5 5 4 4 3 3 3 2 2 1 1 1 0 1
13 12 11 12 11 12 13 13 13 13 13 13 12 12 12 12 11 10 10 9 8 7 7 7 6 6 6 5 5 4 4 4 3 3 2 2 1 1 -0 -0 -0 -0 -1
13 12 12 11 11 12 12 13 13 12 12 12 12 11 11 10 10 9 9 8 7 7 7 6 6 5 5 4 4 4 3 3 3 2 2 1 0 -1 -1 -1 -1 -1 -1
12 12 12 11 11 12 12 12 12 11 11 11 10 10 9 9 9 8 8 7 7 6 6 6 5 5 4 4 3 3 3 2 2 2 1 0 -1 -1 -2 -2 -2 -2 -1
13 12 11 10 10 10 11 11 11 11 10 10 10 9 9 8 8 7 7 6 6 6 5 5 4 4 4 3 3 3 2 2 2 1 0 -0 -1 -2 -2 -2 -2 -2 -2
12 11 10 10 10 9 10 10 10 10 10 9 9 8 8 8 7 7 6 6 6 5 4 4 4 3 3 2 2 2 2 2 1 1 -0 -1 -1 -2 -2 -2 -2 -2 -1
12 11 10 10 9 9 9 10 10 10 9 9 8 8 7 7 6 6 6 5 5 4 4 3 3 2 2 2 1 1 1 1 1 0 -0 -1 -1 -2 -2 -1 -1 -1 -2
12 11 11 10 9 8 8 9 9 9 8 8 8 7 7 6 6 5 5 4 4 4 3 3 2 2 1 0 1 1 1 1 0 0 -0 -1 -1 -1 -1 -1 -1 -1 -2
13 12 11 9 8 8 7 8 8 8 8 8 7 6 6 5 5 5 4 4 3 3 2 2 1 1 0 -0 1 1 1 0 -0 -1 -1 -1 -2 -2 -2 -2 -2 -1 -1
13 12 10 10 9 7 8 7 8 8 7 7 6 6 5 5 4 4 4 3 3 2 1 1 0 0 -0 -0 -0 -0 -0 -1 -2 -2 -2 -2 -2 -3 -3 -3 -2 -2 -2
12 11 10 9 8 8 8 8 7 7 7 6 5 5 5 4 4 3 3 2 2 1 1 0 -0 -1 -1 -1 -1 -1 -2 -2 -2 -2 -2 -3 -3 -3 -2 -2 -3 -3 -4
11 11 10 8 7 7 7 7 7 6 6 5 5 4 4 4 3 3 2 2 1 1 0 -0 -1 -1 -1 -2 -2 -2 -2 -3 -3 -3 -3 -3 -3 -3 -2 -3 -4 -4 -4
8 7 7 6 6 6 7 7 5 5 5 5 4 4 3 3 3 2 2 1 1 0 -0 -1 -1 -1 -2 -2 -2 -2 -2 -3 -3 -3 -4 -3 -3 -2 -3 -3 -3 -5 -5
6 6 6 5 5 7 7 5 5 5 5 4 4 3 3 2 2 2 1 0 -0 -1 -1 -1 -1 -2 -2 -3 -3 -2 -2 -2 -3 -4 -3 -4 -3 -3 -3 -3 -5 -5 -4
5 5 5 4 6 6 6 4 4 4 4 3 3 3 2 2 1 1 0 -0 -1 -1 -2 -2 -2 -3 -3 -3 -3 -2 -2 -2 -2 -3 -4 -4 -4 -4 -4 -5 -5 -4 -5
4 5 4 4 5 6 6 4 3 3 3 3 2 2 2 1 0 -0 -1 -1 -2 -2 -2 -3 -3 -3 -3 -3 -3 -3 -2 -3 -3 -4 -4 -4 -5 -5 -6 -6 -5 -5 -7
4 4 4 3 3 5 5 4 3 3 3 2 2 1 1 0 -0 -1 -2 -2 -2 -3 -3 -3 -4 -4 -4 -3 -3 -3 -3 -3 -4 -4 -5 -5 -6 -6 -6 -7 -7 -7 -7
3 4 3 2 2 3 3 3 3 2 2 1 1 0 -0 -1 -1 -2 -2 -3 -3 -3 -3 -3 -3 -4 -4 -4 -3 -3 -3 -3 -4 -4 -6 -7 -7 -7 -7 -7 -7 -7 -7
3 3 3 2 2 3 2 2 2 2 2 1 0 -1 -1 -1 -2 -2 -2 -3 -4 -3 -3 -3 -3 -4 -4 -4 -4 -3 -4 -4 -5 -6 -7 -7 -8 -8 -8 -8 -7 -7 -7

GFSMW_925_temp_021.txt.gz
Temp
17 18 19 20 20 20 20 20 20 19 19 18 16 15 15 15 16 15 15 16 16 15 15 15 14 13 13 11 11 11 10 9 8 9 9 11 10 9 10 9 9 9 8
16 16 17 18 18 19 19 19 19 17 17 18 17 17 15 15 14 14 15 15 15 14 14 13 13 12 11 10 9 9 8 8 7 7 5 4 7 9 10 9 9 7 8
15 14 13 15 17 17 17 17 17 16 17 18 17 15 14 13 13 14 14 13 14 13 13 12 11 11 10 9 8 8 7 6 7 6 6 3 3 3 7 8 7 7 5
16 15 12 13 15 16 16 16 16 16 16 17 17 16 14 12 12 13 13 12 12 12 11 11 10 9 9 8 8 7 6 6 5 6 6 5 5 2 2 5 5 4 4
15 14 13 13 15 16 15 16 16 16 16 17 17 16 14 14 13 12 12 12 11 11 10 10 9 8 8 7 7 7 6 6 5 4 4 4 4 4 0 2 1 3 3
15 14 12 13 13 14 15 15 16 15 16 17 16 16 15 13 12 11 11 11 10 10 9 9 8 8 7 7 6 6 5 5 4 4 3 3 2 2 1 0 1 1 2
13 11 11 11 11 13 14 14 15 14 15 15 15 15 15 14 13 12 11 10 10 9 8 8 7 7 6 6 6 5 5 4 4 3 3 3 2 1 1 0 0 -0 0
13 13 12 12 11 11 13 13 14 14 14 14 14 14 13 13 12 11 11 10 9 9 8 7 7 6 6 5 5 5 4 4 3 3 2 2 2 1 0 -1 -1 -2 -1
13 13 12 11 11 11 12 13 13 13 13 13 13 12 12 12 11 10 10 9 8 7 7 6 6 5 5 5 4 4 4 3 3 2 2 1 1 0 -1 -1 -2 -2 -3
13 12 11 10 10 11 12 12 13 12 12 12 12 12 11 11 10 10 9 8 7 7 6 6 5 5 4 4 3 3 3 3 2 2 2 1 0 -0 -1 -2 -2 -2 -3
13 11 11 10 9 10 11 11 11 11 11 11 11 10 10 10 9 9 8 8 7 6 6 5 5 4 4 3 3 3 2 2 2 1 1 0 -0 -1 -1 -2 -2 -3 -3
12 11 10 9 9 9 9 10 10 10 10 10 10 9 9 8 8 8 7 6 6 5 5 4 4 4 3 3 2 2 2 1 1 1 1 0 -0 -1 -1 -2 -3 -3 -3
11 10 9 9 8 8 8 9 10 10 9 9 9 8 8 8 7 7 6 5 5 4 4 4 3 3 2 2 2 1 1 1 1 0 0 -0 -1 -1 -2 -2 -3 -3 -3
11 10 9 8 8 7 8 8 9 9 9 9 8 8 7 7 6 6 5 5 4 4 3 3 2 2 1 1 0 1 1 0 0 -0 -1 -1 -1 -2 -2 -2 -2 -2 -2
10 10 9 8 7 7 7 8 8 8 8 8 8 7 7 6 6 5 5 4 4 3 3 2 2 1 1 -0 0 0 0 -0 -1 -2 -2 -2 -2 -2 -2 -1 -2 -2 -2
11 10 9 8 7 7 6 7 7 8 8 8 7 6 6 5 5 4 4 4 3 3 2 1 1 0 -0 -0 -0 -0 -1 -1 -2 -2 -2 -2 -3 -3 -2 -3 -2 -2 -1
11 10 9 8 7 6 7 7 7 8 7 7 6 5 5 5 4 4 3 3 2 2 1 1 0 -0 -1 -1 -1 -1 -1 -2 -2 -2 -3 -3 -3 -3 -3 -4 -3 -3 -3
11 10 9 8 7 7 7 7 7 7 7 6 5 5 5 4 3 3 3 2 2 1 1 0 -0 -1 -1 -2 -1 -1 -2 -2 -2 -2 -3 -3 -3 -3 -3 -3 -3 -3 -4
10 9 9 7 6 6 7 7 6 6 6 5 5 4 4 4 3 2 2 1 1 1 0 -1 -1 -1 -2 -2 -2 -2 -2 -2 -2 -3 -3 -4 -3 -3 -2 -3 -3 -4 -5
8 6 6 6 6 5 7 6 5 5 5 4 4 4 4 3 2 2 1 1 0 -0 -1 -1 -1 -2 -2 -3 -3 -2 -2 -2 -3 -3 -3 -3 -3 -3 -3 -3 -4 -5 -5
5 5 5 5 4 5 6 4 5 4 4 4 4 3 3 2 2 1 1 0 -0 -1 -1 -2 -2 -2 -3 -3 -3 -3 -2 -2 -2 -3 -3 -4 -4 -3 -3 -4 -5 -5 -4
4 4 4 3 4 5 6 4 4 4 4 3 3 2 2 2 1 1 -0 -1 -1 -2 -2 -3 -3 -3 -3 -3 -4 -3 -2 -2 -3 -3 -4 -4 -4 -4 -5 -5 -5 -4 -5
4 3 3 3 4 6 7 4 3 3 3 3 2 2 1 1 0 -0 -1 -1 -2 -3 -3 -3 -4 -4 -4 -4 -4 -3 -3 -3 -3 -4 -4 -4 -5 -6 -6 -6 -5 -6 -7
3 3 3 2 2 5 5 4 3 3 3 2 1 1 1 0 -0 -1 -2 -2 -3 -3 -3 -4 -4 -4 -4 -4 -4 -3 -3 -4 -4 -4 -5 -6 -6 -7 -7 -7 -7 -7 -7
3 3 2 1 2 3 3 2 2 2 2 1 1 0 -0 -1 -1 -2 -2 -3 -3 -3 -3 -3 -4 -4 -4 -4 -3 -3 -3 -4 -4 -5 -7 -7 -8 -8 -8 -8 -8 -8 -8
2 2 2 2 1 2 2 2 2 2 2 1 0 -1 -1 -1 -2 -3 -3 -3 -4 -4 -4 -4 -4 -4 -4 -4 -4 -4 -4 -4 -6 -7 -8 -8 -8 -8 -8 -8 -8 -8 -8

GFSMW_925_temp_024.txt.gz
Temp
17 18 20 20 19 20 20 20 18 17 18 17 16 15 15 15 16 16 15 15 15 16 16 15 14 13 13 11 11 10 10 9 9 9 10 11 10 9 10 10 10 9 9
15 15 17 17 18 19 19 18 17 17 17 17 16 15 14 14 15 14 14 14 15 15 14 14 13 12 11 10 10 9 9 8 7 6 4 3 7 9 11 10 9 8 9
15 14 14 16 17 17 18 18 17 16 16 17 16 14 13 12 12 13 13 13 14 14 13 12 12 11 10 9 8 8 8 7 6 6 5 3 2 2 6 8 7 6 6
14 15 13 13 15 17 17 17 17 16 16 16 15 15 13 12 11 12 12 12 12 12 12 11 10 10 9 8 8 7 6 6 5 5 5 5 4 1 1 4 4 4 3
15 14 13 15 15 16 16 15 15 15 15 15 16 15 13 13 12 12 12 11 11 11 10 10 10 9 8 8 7 6 6 5 4 4 3 3 3 3 -1 1 1 1 1
14 14 14 13 14 14 14 14 14 14 14 15 15 15 14 12 11 11 11 10 10 10 9 9 9 8 7 7 6 6 5 5 4 3 3 2 1 1 -0 -1 -0 -0 1
13 11 11 11 11 12 13 13 14 13 14 14 14 14 14 14 12 11 11 10 9 9 8 8 8 7 6 6 6 5 5 4 4 3 3 2 2 1 0 -1 -1 -1 -1
12 12 12 12 11 11 12 12 13 13 13 14 14 14 14 13 12 11 11 10 9 9 8 7 7 6 6 5 5 4 4 3 3 3 2 2 2 1 0 -1 -2 -2 -2
11 11 12 12 11 10 11 12 12 13 13 13 13 13 13 12 11 10 10 9 8 8 7 7 6 5 5 5 4 4 3 3 3 2 2 1 1 1 -0 -1 -1 -3 -3
11 11 11 10 10 10 11 12 13 12 12 12 12 12 11 11 10 10 9 8 7 7 6 6 5 5 4 4 3 3 3 2 2 1 1 1 1 0 -0 -1 -2 -2 -4
12 11 10 9 8 9 10 10 11 11 11 11 11 11 10 10 9 9 8 7 7 6 6 5 4 4 4 3 3 2 2 1 1 1 1 0 0 -0 -1 -1 -2 -3 -3
11 10 9 8 8 8 8 9 9 10 10 10 10 10 9 9 8 7 7 6 6 5 5 4 4 3 3 2 2 2 1 1 1 0 0 -0 -1 -1 -1 -2 -2 -3 -3
9 8 8 8 7 7 7 7 8 9 9 9 9 8 8 8 7 7 6 6 5 5 4 4 3 3 2 2 2 1 0 0 -0 -1 -1 -1 -2 -2 -2 -2 -3 -3 -3
9 9 9 8 7 7 6 6 7 9 8 9 8 8 7 7 6 6 5 5 4 4 3 3 2 2 2 1 1 0 -0 -0 -1 -1 -2 -2 -2 -3 -2 -3 -2 -2 -3
10 9 8 7 6 6 6 6 7 8 8 8 8 7 6 6 5 5 5 4 4 3 3 2 2 1 1 0 -0 -0 -0 -1 -2 -2 -2 -2 -3 -3 -2 -2 -2 -2 -3
10 9 8 7 6 6 5 5 6 7 8 7 6 6 5 5 5 4 4 3 3 3 2 2 1 1 0 -0 -1 -0 -1 -1 -2 -2 -2 -3 -3 -3 -3 -3 -2 -2 -3
10 9 8 7 6 6 6 5 7 7 7 6 5 5 5 4 4 3 3 3 2 2 1 1 0 -0 -1 -1 -1 -1 -1 -2 -2 -2 -2 -3 -3 -3 -3 -3 -3 -3 -3
10 9 8 6 6 6 6 7 7 7 6 5 5 5 4 4 3 3 3 2 2 1 1 0 -0 -1 -1 -2 -2 -2 -2 -2 -2 -2 -3 -3 -3 -3 -3 -3 -3 -4 -4
10 9 8 6 6 6 6 6 5 6 5 4 4 4 4 3 3 3 2 1 1 1 0 -1 -1 -2 -2 -3 -3 -2 -2 -2 -2 -3 -3 -3 -3 -3 -3 -3 -4 -4 -5
8 6 5 5 5 5 6 5 4 5 4 4 4 4 3 3 2 2 1 1 0 -0 -1 -1 -2 -2 -3 -3 -3 -2 -3 -3 -3 -3 -3 -4 -3 -3 -3 -3 -4 -5 -5
5 5 5 5 4 5 6 4 4 4 4 4 3 3 3 2 2 1 1 0 -0 -1 -1 -2 -2 -2 -3 -3 -3 -3 -3 -3 -3 -3 -4 -4 -4 -3 -3 -4 -5 -5 -4
4 4 3 3 3 5 6 3 4 3 3 3 3 2 2 1 1 1 -0 -1 -1 -2 -2 -3 -3 -3 -3 -4 -4 -3 -3 -3 -3 -4 -4 -4 -4 -4 -5 -5 -5 -5 -5
3 3 2 2 3 5 6 3 2 3 2 2 2 1 1 0 0 -0 -1 -1 -2 -3 -3 -4 -4 -4 -4 -4 -4 -4 -3 -3 -3 -4 -4 -4 -5 -6 -7 -7 -6 -6 -8
2 3 3 2 1 4 4 3 2 3 3 2 1 0 0 0 -0 -1 -2 -2 -3 -3 -3 -4 -4 -4 -4 -5 -4 -4 -4 -4 -4 -5 -5 -6 -7 -7 -7 -8 -8 -8 -8
2 3 2 0 -0 2 2 2 2 3 2 1 0 -0 -0 -1 -1 -2 -2 -3 -3 -4 -3 -4 -4 -4 -5 -4 -4 -4 -3 -4 -4 -5 -7 -8 -8 -8 -8 -8 -8 -8 -8
1 0 -0 -0 -0 1 1 2 2 2 2 0 -0 -1 -1 -2 -2 -2 -2 -3 -3 -4 -4 -4 -4 -4 -5 -4 -4 -4 -4 -4 -6 -7 -8 -9 -9 -9 -9 -9 -9 -9 -9

GFSMW_925_temp_027.txt.gz
Temp
18 18 19 20 20 20 20 20 19 17 17 16 16 15 16 15 15 16 15 15 14 15 15 15 14 14 13 12 11 11 9 9 9 9 9 9 9 9 9 9 9 8 7
17 17 17 18 20 20 19 19 18 17 16 15 15 15 13 13 14 15 14 14 14 15 14 15 14 13 12 11 10 10 9 7 7 7 6 9 10 9 8 8 8 8 7
18 18 17 16 19 17 18 18 17 16 15 15 15 14 12 12 12 13 13 12 13 13 14 13 13 12 11 10 9 8 8 6 6 6 8 9 8 6 6 7 6 6 4
17 18 18 16 16 18 17 17 16 15 15 15 15 15 13 12 11 12 12 12 13 12 12 12 11 11 10 9 8 7 7 7 5 5 4 5 5 6 6 5 5 3 3
16 17 17 17 17 16 17 16 15 14 14 14 15 13 11 11 11 11 11 10 11 11 11 11 10 9 9 8 7 7 6 6 4 4 3 3 3 3 3 5 5 3 3
16 17 17 16 14 15 15 15 14 13 14 14 13 13 12 11 10 10 10 9 10 10 10 10 9 8 8 7 7 6 5 5 4 4 3 3 3 4 3 3 4 3 2
16 15 14 13 12 12 13 13 13 12 13 13 13 13 12 13 12 10 10 9 9 9 9 9 8 8 7 6 6 5 5 4 4 3 2 2 1 1 1 1 2 2 1
15 14 14 14 13 12 11 12 11 11 12 12 12 12 12 10 9 10 10 10 10 9 8 8 7 7 6 6 5 5 4 4 3 3 2 2 1 1 0 0 0 1 2
14 13 13 13 12 11 11 11 11 11 11 12 12 12 11 10 10 10 10 9 9 8 7 7 7 6 5 5 5 4 4 3 3 2 2 1 1 1 -0 -1 -1 -0 0
13 12 13 13 12 11 10 10 11 10 11 11 12 11 10 10 10 9 9 8 8 7 7 6 6 5 5 5 4 4 3 2 2 1 1 0 0 -0 -1 -1 -1 -1 -1
13 13 12 11 10 9 9 9 10 10 10 10 10 10 10 10 9 9 8 8 7 7 6 6 5 5 4 4 3 3 2 1 1 1 -0 -0 -1 -1 -1 -1 -2 -2 -2
11 11 10 9 9 9 8 8 8 8 9 9 9 9 9 9 8 8 7 7 7 6 5 5 4 4 3 3 3 2 1 1 0 -0 -1 -1 -2 -2 -2 -2 -2 -2 -2
9 8 8 9 9 8 8 8 7 7 8 8 9 8 8 8 7 7 6 6 6 5 4 4 4 3 3 2 2 1 0 -0 -0 -1 -2 -2 -2 -3 -2 -3 -3 -2 -3
8 8 8 8 7 7 7 7 6 7 7 7 7 7 7 7 7 6 5 5 4 4 4 3 3 2 2 1 1 0 -0 -0 -1 -1 -2 -2 -3 -3 -3 -3 -3 -3 -2
9 9 7 7 7 6 6 6 5 6 7 7 7 6 6 6 6 5 4 4 4 4 3 2 2 2 1 0 -0 -0 -0 -1 -1 -2 -2 -3 -3 -3 -2 -2 -2 -2 -2
10 9 7 7 7 6 6 5 5 5 7 6 6 5 5 5 5 4 4 3 3 3 2 2 1 1 0 -0 -1 -0 -1 -1 -2 -2 -2 -3 -3 -3 -3 -3 -3 -2 -2
10 8 8 7 6 6 5 5 5 6 6 6 5 5 4 4 4 3 3 3 2 2 2 1 1 -0 -0 -1 -1 -1 -1 -2 -2 -3 -3 -3 -3 -3 -4 -4 -3 -3 -3
9 8 8 6 5 5 5 5 5 5 5 4 4 4 4 3 3 3 3 2 2 1 1 0 -0 -1 -1 -2 -2 -2 -2 -3 -3 -3 -3 -3 -4 -4 -3 -3 -3 -4 -3
9 8 7 6 5 5 4 4 4 5 4 3 4 4 4 3 3 3 2 1 1 1 -0 -1 -1 -1 -2 -2 -3 -2 -2 -3 -3 -3 -3 -3 -3 -3 -2 -3 -3 -3 -4
7 6 6 5 4 4 5 4 3 3 3 3 3 3 3 3 3 2 1 1 0 -0 -1 -1 -2 -2 -2 -3 -3 -3 -3 -3 -3 -3 -3 -4 -4 -3 -3 -3 -4 -4 -4
6 5 5 5 4 4 5 3 3 2 3 3 3 3 3 2 2 1 1 0 -0 -1 -1 -2 -2 -2 -3 -3 -4 -3 -3 -3 -3 -3 -3 -4 -4 -3 -3 -4 -4 -5 -5
4 4 4 3 3 4 5 3 1 2 3 3 3 2 2 1 1 1 -0 -1 -1 -2 -2 -2 -3 -3 -3 -4 -4 -3 -3 -3 -3 -3 -4 -4 -4 -4 -5 -5 -6 -5 -5
3 3 3 2 3 4 4 1 1 3 3 2 2 1 1 1 0 -0 -1 -1 -2 -2 -3 -4 -4 -4 -4 -4 -4 -4 -4 -3 -3 -4 -4 -4 -5 -6 -7 -7 -6 -6 -7
2 2 2 2 1 2 3 2 2 3 3 1 1 0 0 -0 -1 -1 -2 -2 -3 -3 -4 -4 -4 -4 -5 -5 -5 -4 -4 -4 -4 -4 -5 -6 -7 -7 -7 -7 -7 -7 -7
2 2 1 0 -1 1 2 2 3 3 2 1 0 -0 -1 -1 -1 -2 -2 -3 -3 -4 -3 -4 -4 -4 -4 -4 -4 -4 -4 -4 -4 -5 -6 -7 -8 -8 -8 -8 -8 -8 -8
1 0 -0 -0 -1 1 1 2 2 3 2 0 -1 -1 -1 -2 -2 -2 -3 -3 -3 -4 -4 -4 -4 -5 -5 -5 -5 -4 -4 -5 -6 -6 -7 -8 -8 -8 -8 -8 -8 -8 -8

GFSMW_925_temp_030.txt.gz
Temp
23 22 22 22 22 22 22 22 22 21 20 20 20 18 17 14 14 16 16 15 15 15 14 13 12 12 12 12 12 11 11 10 10 12 13 12 10 11 10 10 10 9 8
23 24 22 22 22 22 22 22 21 20 20 19 18 18 16 13 12 14 13 14 15 14 15 12 12 12 12 11 10 10 10 9 9 10 11 14 14 11 10 10 9 10 8
22 23 24 23 22 22 22 21 20 19 19 18 17 14 11 10 11 11 12 13 14 12 13 12 11 11 11 10 9 9 10 10 8 8 11 13 13 11 11 10 9 9 8
21 21 22 23 23 22 21 20 19 18 18 16 14 14 14 12 12 11 12 12 13 13 12 11 10 10 10 9 8 8 8 9 9 8 7 8 8 10 10 10 9 8 7
22 22 21 21 22 22 20 18 18 17 16 15 16 15 14 14 11 9 9 10 10 10 10 10 10 9 9 8 8 7 7 7 8 7 7 7 7 7 7 8 9 8 7
22 21 21 21 21 20 18 17 17 16 15 15 15 16 14 11 9 8 8 9 8 9 9 9 8 8 8 7 7 6 6 6 6 6 6 6 7 8 7 8 7 7 7
21 21 21 21 20 20 17 16 16 16 15 15 15 14 12 11 11 10 9 9 8 9 8 8 8 7 7 6 6 6 5 5 5 5 5 5 5 5 5 5 6 6 5
20 21 21 20 19 18 17 16 16 15 15 15 14 12 11 12 10 9 9 8 9 9 8 8 7 6 6 6 5 5 5 4 5 4 4 4 4 4 4 4 3 4 6
19 19 20 20 19 18 17 16 16 15 14 14 13 11 10 9 9 8 9 9 8 8 7 7 6 6 5 5 5 5 5 4 4 4 3 3 3 3 3 2 2 3 3
18 18 19 19 18 18 17 16 16 14 14 14 13 10 9 9 8 9 8 8 7 7 7 6 6 5 5 5 4 4 4 4 4 3 3 3 3 2 2 2 2 2 2
16 17 18 18 17 17 16 15 14 14 13 12 10 9 8 9 8 8 7 8 7 7 6 6 5 5 5 4 4 4 3 3 3 3 2 2 1 1 1 1 1 1 1
15 15 16 17 16 15 14 14 13 12 11 9 9 8 8 8 8 7 7 7 7 6 6 5 5 4 4 3 3 3 3 3 2 2 1 1 1 0 1 0 0 0 0
14 14 13 14 15 14 13 13 12 10 9 8 7 7 7 8 8 7 7 6 6 5 5 4 4 4 3 3 3 2 2 2 2 1 1 1 0 0 0 -0 -0 -0 -0
14 13 12 13 14 13 13 12 9 7 7 7 7 7 8 8 7 6 6 5 5 4 4 3 3 2 2 2 2 2 2 2 1 1 0 -0 -0 -0 -1 -0 -0 -0 -0
14 11 12 12 12 11 10 8 7 6 7 7 7 7 7 6 5 5 4 4 4 3 3 2 2 1 1 1 1 2 2 1 1 1 0 -0 -1 -2 -2 -2 -1 -1 -1
15 11 11 11 11 9 8 6 6 6 6 6 6 5 5 5 4 4 4 3 3 2 2 2 1 1 1 1 -1 -0 1 1 1 0 -0 -0 -1 -1 -2 -2 -2 -2 -3
14 12 11 11 9 8 7 6 5 6 6 5 5 5 4 4 4 3 3 3 3 2 2 1 1 1 0 -0 -1 -1 -0 0 -0 -0 -1 -1 -1 -2 -2 -2 -2 -2 -2
14 12 11 9 8 7 6 5 6 6 6 4 4 4 4 3 3 3 3 2 2 2 2 1 0 0 -0 -1 -2 -2 -1 -0 -0 -1 -1 -1 -1 -2 -2 -2 -3 -3 -2
13 12 10 7 7 7 6 7 6 6 5 5 4 4 4 3 3 3 3 2 2 1 1 -0 -0 -0 -0 -2 -3 -2 -1 -0 -1 -1 -1 -1 -2 -2 -2 -3 -3 -2 -2
11 10 9 8 8 7 7 7 6 6 5 4 4 3 3 4 3 2 2 1 1 0 -0 -0 -1 -1 -1 -2 -3 -2 -1 -1 -1 -1 -1 -1 -2 -2 -2 -3 -3 -3 -3
8 8 8 8 7 7 7 6 6 5 4 3 3 3 3 2 2 1 1 0 0 -0 -0 -0 -0 -1 -2 -2 -3 -3 -2 -2 -2 -1 -1 -2 -2 -3 -3 -3 -4 -4 -4
7 7 6 5 5 6 6 6 4 3 3 3 2 2 1 1 0 0 -0 -0 -0 0 0 -0 -0 -1 -1 -2 -3 -3 -3 -3 -2 -2 -2 -3 -3 -4 -4 -5 -5 -5 -4
7 7 6 6 6 6 5 3 2 2 2 2 1 1 1 0 -0 0 -0 -0 -1 -0 -0 -0 -0 -1 -2 -2 -3 -3 -3 -3 -3 -3 -3 -3 -4 -5 -5 -5 -5 -6 -5
5 5 5 5 5 4 3 2 2 2 2 1 1 1 0 -0 -0 -1 -1 -1 -1 -1 -1 -1 -1 -1 -2 -2 -3 -3 -3 -3 -3 -3 -3 -4 -5 -5 -5 -5 -5 -5 -5
4 5 4 4 3 3 2 1 1 2 2 1 1 1 0 -0 -1 -1 -2 -1 -2 -3 -2 -2 -2 -2 -2 -3 -4 -4 -3 -3 -4 -4 -4 -5 -5 -5 -5 -5 -5 -5 -6
3 3 3 3 2 2 1 1 1 2 2 1 1 0 -0 -1 -1 -1 -1 -2 -3 -3 -4 -4 -4 -4 -4 -4 -5 -4 -4 -4 -5 -5 -5 -5 -6 -6 -6 -6 -6 -6 -7

GFSMW_925_temp_033.txt.gz
Temp
25 25 25 24 25 26 26 26 26 25 24 23 23 23 21 20 19 19 17 15 15 15 16 16 14 14 14 14 14 13 12 11 11 13 14 14 12 12 12 11 11 11 10
25 25 25 24 24 25 25 25 25 25 24 23 23 23 20 17 16 15 14 14 14 15 15 15 14 13 13 12 12 12 12 11 10 11 12 14 14 13 12 12 11 11 10
24 25 25 25 24 24 25 25 25 24 23 23 22 20 17 14 12 12 12 13 13 13 14 13 13 12 12 11 11 11 11 12 10 9 12 13 13 12 13 12 11 10 10
23 24 24 25 25 25 24 24 24 24 22 22 21 18 15 13 12 10 11 12 11 13 13 13 12 11 11 10 10 10 10 11 10 10 9 9 9 10 10 12 11 11 9
24 24 24 23 23 24 24 23 23 23 21 20 20 17 15 15 11 10 10 10 11 12 12 13 11 11 11 10 9 9 9 9 10 9 9 9 9 9 9 8 10 9 9
24 24 24 23 23 22 22 22 22 21 20 20 17 16 17 14 11 9 9 9 10 10 11 11 10 10 9 9 8 8 8 8 8 8 8 8 8 9 8 8 8 8 7
22 22 23 23 22 22 21 21 20 20 20 18 18 17 16 13 11 10 9 9 9 10 10 10 9 9 8 8 8 7 7 7 7 7 7 7 7 7 6 6 6 6 6
22 21 21 23 22 21 21 21 20 20 18 18 18 18 15 12 12 10 9 9 9 9 9 9 9 8 8 7 7 7 7 6 6 6 5 5 5 5 5 5 5 4 5
20 20 21 21 22 22 20 20 19 19 18 18 17 16 13 12 12 11 9 9 10 9 9 9 8 8 7 7 7 7 7 6 6 5 5 5 5 5 4 4 3 3 3
19 19 20 20 21 21 21 19 19 19 17 17 16 14 12 11 10 9 9 10 9 9 8 8 8 7 7 6 6 6 6 5 5 5 4 4 4 4 3 3 3 3 3
18 18 18 20 20 21 20 19 19 18 17 16 13 11 9 8 8 8 9 9 8 8 8 8 7 7 7 6 6 6 5 5 5 4 4 3 3 3 2 2 2 2 2
18 17 17 18 19 19 19 19 18 17 16 15 12 9 7 7 8 8 8 8 8 8 8 7 7 6 6 5 5 5 5 4 4 4 3 3 3 2 2 2 2 1 1
17 17 16 16 18 18 17 17 16 16 14 12 10 8 7 8 8 8 8 7 8 7 7 7 6 6 5 4 4 4 4 4 4 3 3 2 2 1 1 1 1 1 1
18 16 15 15 16 16 16 16 15 13 11 10 9 8 8 8 7 8 7 7 7 6 6 5 5 4 4 3 3 3 3 3 3 3 2 2 1 1 0 -0 -1 -0 -0
17 15 14 14 14 15 15 13 11 10 9 9 8 8 8 8 7 7 6 6 6 5 5 4 4 3 3 3 2 2 3 3 3 2 2 2 1 0 -0 -1 -1 -1 -1
17 14 13 14 14 13 12 10 9 8 8 8 8 7 7 6 6 6 5 5 4 4 4 4 3 2 2 2 1 -0 1 1 2 2 1 1 1 0 -0 -1 -1 -1 -1
15 14 12 13 12 9 8 8 7 6 6 6 6 5 5 4 4 4 4 4 4 4 3 3 2 2 2 1 -0 -1 -0 0 1 1 1 0 0 -0 -1 -1 -1 -1 -2
13 13 12 11 9 7 7 6 5 5 4 4 4 4 5 4 5 5 4 4 4 3 3 2 2 2 1 0 -1 -1 -1 1 1 1 0 -0 -0 -1 -1 -1 -2 -2 -2
14 13 11 8 7 6 6 5 4 4 4 2 2 3 4 5 4 4 4 4 3 3 2 2 1 1 1 0 -1 -2 -1 0 1 1 0 -0 -0 -1 -1 -1 -2 -2 -2
12 9 7 7 6 5 5 4 4 4 3 4 5 5 5 5 4 4 3 3 3 2 1 1 1 1 -0 -0 -2 -2 -2 -1 -0 -0 -1 -0 -1 -1 -1 -2 -2 -3 -3
8 8 7 6 4 4 3 3 4 4 4 5 5 4 4 4 3 2 2 2 2 2 2 1 2 1 0 -1 -2 -2 -2 -2 -2 -2 -1 -1 -1 -2 -2 -2 -3 -4 -3
9 9 8 8 8 8 8 7 5 4 4 4 3 3 2 2 2 1 1 1 2 2 2 2 2 1 1 -0 -1 -2 -3 -2 -2 -2 -2 -2 -2 -2 -3 -3 -4 -4 -4
7 7 7 7 7 7 5 4 4 3 2 2 2 2 2 1 1 1 1 1 1 1 2 1 1 1 0 -1 -1 -2 -2 -2 -2 -2 -2 -3 -3 -3 -4 -4 -4 -4 -4
8 8 8 8 5 4 3 2 2 3 2 2 2 2 1 1 1 1 1 1 1 1 1 1 0 -0 -1 -1 -2 -3 -3 -3 -3 -3 -3 -4 -4 -4 -4 -4 -4 -5 -5
7 7 7 5 4 2 2 2 2 3 3 2 2 2 1 1 1 1 0 0 -0 -1 -2 -2 -2 -2 -2 -3 -3 -4 -4 -4 -3 -3 -4 -4 -4 -4 -5 -5 -5 -5 -6
5 5 4 4 3 2 2 3 3 3 3 2 2 2 1 1 1 0 0 -1 -1 -2 -3 -4 -4 -4 -4 -4 -4 -4 -4 -4 -4 -5 -5 -5 -5 -5 -5 -6 -6 -7 -7

GFSMW_925_temp_036.txt.gz
Temp
22 25 25 25 26 26 27 27 26 25 25 24 23 23 23 22 21 21 20 20 19 17 16 16 16 16 15 15 14 13 13 12 13 13 13 13 13 12 12 12 11 11 11
21 22 24 25 25 25 25 25 26 25 24 24 24 23 22 20 21 20 19 18 17 16 15 16 15 15 14 14 13 13 12 11 11 11 11 9 11 12 12 12 11 11 11
21 21 21 23 24 24 24 24 25 25 24 23 23 22 20 18 17 17 16 15 15 15 15 15 15 14 14 13 13 12 12 11 10 10 10 8 8 8 12 12 11 11 10
20 21 21 21 23 24 24 24 24 25 25 24 22 21 18 15 15 15 14 14 13 14 14 14 13 13 13 13 12 11 12 11 10 9 10 10 9 6 5 10 10 10 10
19 19 19 21 23 23 23 24 24 24 24 23 22 19 17 15 14 13 13 13 12 12 13 13 13 13 12 12 11 10 11 10 10 9 9 9 9 9 6 4 7 9 8
20 19 20 22 22 23 23 22 23 24 23 22 21 18 16 14 12 11 11 11 11 11 12 12 12 12 12 11 10 10 9 9 9 8 8 8 7 7 6 3 4 5 6
20 19 19 17 20 22 22 22 22 22 23 21 20 17 16 15 12 10 9 9 9 10 10 11 11 11 11 10 10 9 9 8 8 7 7 7 7 6 6 5 4 2 4
19 17 17 16 18 20 21 22 21 21 21 20 18 16 16 13 11 10 9 9 9 10 10 10 10 10 9 9 8 8 7 7 7 6 6 6 5 5 5 5 3 2 2
17 17 16 17 18 19 21 21 21 20 20 19 17 16 15 12 11 10 9 9 9 9 10 10 9 9 9 8 8 7 7 7 6 6 5 5 5 5 4 4 3 2 1
18 16 15 15 17 19 21 21 20 20 19 18 17 14 13 12 10 10 9 9 9 9 9 9 8 8 8 7 7 7 6 6 6 5 5 4 4 4 3 3 3 2 2
16 16 15 16 16 18 20 20 19 19 18 17 13 12 12 11 10 9 9 9 9 9 9 8 8 7 7 7 7 6 6 5 5 5 4 4 3 3 3 2 2 2 1
16 16 15 15 15 17 19 19 19 18 16 13 11 11 10 9 9 9 8 9 9 8 8 8 7 7 6 6 6 5 5 5 4 4 4 3 3 2 2 1 1 1 1
16 15 14 13 13 16 17 18 17 15 12 11 10 9 8 8 8 8 8 8 8 7 8 7 7 6 6 5 5 5 4 4 4 3 3 3 2 2 1 1 0 -0 -1
17 13 13 13 13 16 15 15 12 12 10 9 8 8 7 8 7 7 7 7 7 7 7 6 6 5 5 4 4 4 3 3 3 3 3 2 2 1 1 0 -0 -1 -1
17 13 13 12 13 14 13 11 11 10 8 7 7 7 7 7 7 7 7 7 6 6 6 5 5 4 4 3 3 3 3 2 2 2 2 2 1 1 1 1 0 -0 -1
15 12 12 13 12 11 10 9 9 9 8 7 7 7 6 6 6 5 5 4 5 5 5 4 4 4 3 3 2 2 1 1 1 1 1 1 1 0 0 -0 -0 -0 -1
12 13 12 12 10 9 8 8 8 8 8 7 6 6 5 5 4 4 4 4 4 4 4 3 3 3 2 2 1 0 0 0 0 1 1 1 0 -0 -0 -1 -1 -1 -1
11 12 11 9 8 7 7 6 6 6 5 4 4 3 3 2 2 3 3 2 3 3 3 3 2 2 2 2 1 -0 -0 -1 -0 0 0 0 -0 -0 -1 -1 -1 -1 -2
12 11 8 7 6 6 5 4 4 3 2 1 1 2 1 1 1 2 3 4 3 3 3 2 2 2 1 1 0 -1 -2 -1 -1 -1 -1 -1 -1 -1 -0 -1 -1 -2 -3
8 7 6 6 5 4 4 3 3 2 1 1 1 1 1 1 3 4 3 3 3 3 2 2 1 1 1 0 -1 -2 -2 -2 -2 -2 -2 -2 -1 -1 -1 -1 -2 -3 -4
7 6 5 4 4 3 3 2 2 1 0 0 1 2 4 4 3 3 3 3 2 2 2 2 2 1 1 0 -1 -1 -2 -3 -3 -2 -2 -2 -2 -2 -2 -2 -2 -3 -3
4 4 3 3 2 3 2 1 1 0 1 1 3 3 3 3 2 2 2 2 2 2 2 2 2 1 1 0 -0 -1 -1 -2 -2 -2 -2 -3 -2 -2 -3 -3 -3 -3 -3
5 3 3 3 2 2 1 1 2 3 3 3 2 2 2 2 2 2 2 1 1 1 1 1 1 0 -0 -1 -1 -2 -2 -3 -3 -3 -3 -3 -3 -4 -4 -4 -4 -4 -5
7 6 5 4 3 3 3 2 2 2 2 2 1 2 2 1 1 1 1 1 1 1 0 -1 -1 -2 -2 -2 -3 -3 -4 -4 -4 -4 -4 -4 -5 -4 -4 -5 -5 -5 -6
6 5 3 2 2 2 2 2 2 3 2 2 2 2 1 1 1 1 0 -0 -0 -1 -2 -2 -3 -4 -4 -4 -3 -4 -4 -4 -3 -3 -5 -5 -5 -6 -6 -6 -6 -7 -7
4 3 2 2 2 2 3 3 3 3 2 2 1 1 1 1 0 0 0 -0 -1 -1 -2 -2 -3 -4 -4 -4 -4 -4 -4 -4 -4 -5 -6 -6 -6 -7 -7 -7 -7 -7 -7

GFSMW_925_temp_039.txt.gz
Temp
20 22 23 24 25 26 26 26 25 23 22 22 21 21 21 21 22 21 21 20 20 19 19 18 17 16 16 16 15 15 14 13 13 13 13 12 12 12 12 12 12 11 11
18 18 22 23 23 24 25 25 24 23 23 22 21 21 21 21 21 21 21 21 20 19 18 18 16 16 15 15 15 15 13 12 12 12 10 8 11 12 12 12 11 11 10
19 18 17 21 23 23 24 24 24 24 22 22 22 21 20 19 18 18 20 19 19 18 18 17 16 15 15 15 15 14 14 12 11 11 11 8 8 7 11 11 11 10 10
17 17 17 18 21 22 23 24 24 24 23 24 22 21 20 17 17 18 19 18 18 17 16 16 15 15 14 14 14 13 13 13 11 10 10 10 10 6 7 10 10 9 9
17 18 16 19 21 22 23 23 23 24 24 23 22 22 18 18 17 16 16 16 15 15 14 14 14 14 14 13 13 12 12 12 11 10 9 9 9 8 5 4 6 9 8
16 17 19 19 19 20 20 21 22 22 22 23 21 20 18 17 14 12 12 12 13 13 13 13 14 13 13 12 12 12 11 11 10 9 9 9 8 6 5 3 3 4 6
17 17 16 15 17 18 19 20 20 22 22 21 20 19 19 18 16 13 11 10 11 11 12 12 12 12 12 11 11 11 10 10 9 8 8 7 7 7 6 5 3 2 4
15 15 15 15 16 18 18 18 19 20 22 19 18 18 17 15 14 12 11 10 11 11 12 11 11 11 10 10 10 10 9 9 8 8 7 6 6 5 5 5 3 -0 1
14 15 15 15 16 17 16 17 18 18 21 18 17 16 15 15 14 12 11 11 10 10 10 10 10 10 9 9 9 9 8 8 7 6 6 6 5 5 4 4 3 2 -1
15 14 14 14 16 16 16 17 18 18 19 17 16 14 14 15 13 12 10 10 10 9 10 10 9 9 9 9 8 8 7 7 6 6 5 5 4 4 3 3 3 2 1
14 14 14 15 16 16 16 16 18 18 16 15 13 14 13 13 12 10 10 9 9 9 9 9 8 8 8 8 7 7 6 6 5 5 5 4 4 3 3 2 2 1 1
13 13 13 14 15 15 15 16 17 16 14 14 13 12 11 10 10 9 9 9 8 9 9 8 8 8 7 7 7 6 6 5 5 4 4 4 3 3 2 2 1 1 0
13 12 12 13 12 13 14 15 13 12 12 12 11 9 9 9 9 9 8 8 8 8 8 7 7 6 6 6 6 6 5 4 4 4 3 3 2 2 2 1 1 0 -0
15 11 11 12 12 13 11 11 10 10 9 9 9 8 8 8 8 8 7 7 7 7 7 7 6 6 5 5 5 4 4 3 3 3 3 2 2 2 1 1 1 0 -0
14 11 11 11 10 10 10 9 7 7 7 7 7 7 7 7 7 7 6 7 7 7 6 5 3 4 4 4 4 4 3 3 3 2 2 1 1 1 1 1 0 -0 -1
11 11 11 9 7 7 8 7 6 6 7 6 6 6 6 6 5 5 5 5 5 5 5 4 3 3 3 3 3 3 3 2 1 1 1 1 1 0 0 -0 -0 -0 -0
10 11 10 8 7 8 7 6 6 6 6 6 6 5 5 4 3 4 5 4 4 3 3 2 2 3 3 2 1 1 1 1 0 0 -0 0 0 -0 -0 -1 -1 -1 -1
9 10 7 7 7 6 6 6 6 5 5 4 4 3 2 2 3 3 2 1 2 2 2 2 3 2 1 1 1 -0 0 -0 -0 -1 -1 -1 -1 -1 -1 -1 -1 -1 -1
9 7 6 6 5 5 4 4 3 2 3 2 1 2 3 1 -0 1 1 1 2 1 2 2 2 2 1 1 -0 -0 -1 -1 -1 -2 -2 -2 -2 -2 -1 -1 -1 -2 -3
6 6 5 4 4 3 3 3 2 2 1 1 1 1 1 1 1 1 1 1 3 2 2 2 2 1 1 0 -0 -1 -1 -2 -2 -2 -2 -2 -2 -2 -1 -1 -2 -3 -3
5 4 4 4 3 3 2 2 1 0 0 1 1 1 2 1 1 2 3 3 2 2 2 2 1 1 1 0 -0 -1 -1 -1 -2 -3 -3 -3 -3 -2 -2 -2 -3 -3 -3
3 3 3 2 2 2 1 1 0 -0 -0 0 -0 0 1 2 3 3 2 2 2 2 1 1 1 0 0 -0 -1 -1 -1 -2 -3 -3 -4 -4 -3 -3 -3 -4 -4 -3 -4
3 2 2 2 1 1 1 0 -0 0 -0 -0 1 1 2 2 2 2 2 2 1 1 0 0 -0 -1 -1 -2 -2 -3 -3 -4 -4 -4 -4 -3 -4 -5 -5 -5 -5 -5 -6
4 3 3 2 0 1 1 0 -0 0 1 2 1 2 2 2 1 1 1 1 1 0 -1 -1 -2 -3 -3 -3 -4 -4 -4 -4 -4 -4 -4 -5 -5 -6 -6 -6 -6 -6 -7
4 3 3 2 2 2 2 2 2 3 2 1 2 1 1 1 1 1 1 0 -1 -1 -1 -2 -3 -4 -4 -4 -4 -4 -4 -4 -3 -4 -5 -6 -7 -7 -7 -7 -7 -7 -7
2 2 2 2 2 2 2 2 3 3 2 1 1 1 1 0 0 -0 -1 -1 -2 -2 -2 -3 -3 -3 -4 -4 -4 -4 -4 -4 -5 -6 -7 -7 -8 -8 -8 -8 -8 -8 -8

GFSMW_925_temp_042.txt.gz
Temp
18 19 21 22 22 23 24 23 23 22 20 19 18 18 19 19 20 20 20 20 20 19 19 19 17 17 17 17 16 15 15 14 14 13 12 12 12 12 12 12 11 11 11
17 16 20 22 22 23 23 24 23 23 21 19 21 20 19 19 20 20 19 20 20 19 19 19 18 17 16 16 16 16 14 13 13 13 11 9 11 12 11 11 11 11 10
18 18 15 19 21 22 23 23 23 23 22 20 20 20 19 18 18 18 18 19 20 19 18 19 18 17 16 16 16 15 15 13 12 12 12 8 9 8 10 10 10 10 10
16 16 17 16 20 21 23 22 23 22 23 21 20 20 20 18 18 19 19 19 20 19 18 18 18 17 16 16 15 14 14 14 12 11 11 11 10 7 8 9 9 9 9
14 14 14 16 19 19 20 21 22 23 22 22 21 19 19 19 20 18 18 18 17 17 17 17 16 16 15 15 15 14 13 13 13 12 10 10 9 8 6 6 6 8 8
14 14 17 17 17 18 18 19 20 20 20 21 20 20 18 18 18 16 15 15 15 15 15 15 15 14 14 14 13 13 13 12 12 11 11 10 8 6 6 3 3 3 6
16 15 15 14 17 18 18 18 18 19 20 19 19 19 18 18 18 17 15 14 14 13 13 13 13 13 13 13 12 12 11 11 11 10 9 9 8 7 7 5 3 2 3
13 13 14 14 15 16 17 18 18 18 19 20 20 18 18 18 16 16 15 14 12 12 13 12 12 12 12 12 11 11 10 10 10 9 8 7 7 6 6 5 4 0 0
14 14 14 14 15 16 17 17 17 18 18 19 19 17 16 15 16 15 14 12 12 11 11 11 12 11 11 11 10 9 9 9 8 8 7 6 6 5 5 4 4 2 -1
13 12 12 14 16 16 17 17 16 17 18 17 16 16 15 14 15 14 12 11 11 11 11 10 11 11 10 9 9 8 8 7 7 6 6 6 5 4 4 3 3 2 1
13 14 12 14 15 16 16 17 17 17 17 15 15 14 13 12 11 11 11 11 10 10 9 10 10 9 9 8 8 7 6 6 6 6 5 5 4 4 3 3 2 1 1
14 14 14 12 14 15 15 16 16 16 15 13 13 11 11 10 9 10 10 10 9 9 8 9 8 8 7 6 6 5 5 6 5 5 4 4 4 3 2 2 2 1 1
12 13 12 12 12 13 13 14 14 12 12 11 10 10 9 9 8 8 8 8 8 7 7 8 7 6 5 5 5 5 5 5 5 4 4 3 3 2 2 1 1 1 0
11 12 12 11 11 11 11 10 9 9 9 9 9 8 7 7 8 8 8 7 7 6 7 7 6 5 4 3 3 3 3 3 2 3 2 2 2 2 1 1 1 0 -0
11 10 11 9 8 8 8 7 7 7 7 7 6 6 7 7 7 6 6 6 5 5 5 5 4 3 4 3 3 3 2 2 2 2 2 1 1 1 1 1 0 -0 -0
11 11 9 8 6 6 6 6 6 6 5 5 5 5 5 4 4 4 4 4 4 4 4 3 3 2 2 1 0 1 2 2 2 1 1 0 0 0 -0 -0 -0 -0 -0
9 10 10 7 6 6 6 5 5 5 4 4 4 3 3 3 2 3 3 3 3 3 2 1 1 1 1 1 1 0 1 1 0 -0 -1 -1 -1 -1 -1 -1 -1 -1 -1
9 8 6 5 5 5 5 4 3 2 2 1 1 1 2 2 2 3 3 2 2 2 1 1 0 1 1 1 0 0 0 -0 -1 -1 -2 -2 -2 -2 -2 -2 -1 -1 -2
6 5 5 4 4 4 3 3 2 2 1 1 1 2 3 3 3 2 1 0 1 1 0 -0 1 1 1 1 0 0 -1 -1 -1 -2 -2 -3 -3 -3 -2 -1 -2 -2 -3
5 5 4 3 3 3 3 2 2 2 2 1 2 2 2 1 1 0 0 -0 0 -1 0 1 1 1 1 0 -0 -1 -1 -1 -2 -2 -3 -3 -3 -3 -2 -2 -2 -3 -4
4 3 3 3 2 2 3 2 1 -0 0 1 1 0 1 1 2 1 1 1 1 1 1 1 1 1 0 -0 -0 -0 -1 -2 -3 -3 -3 -4 -4 -3 -2 -2 -3 -4 -3
3 3 2 2 1 1 1 0 -1 -1 0 0 1 1 1 0 -0 0 1 2 2 1 1 1 -0 -0 -1 -1 -1 -2 -2 -2 -3 -4 -4 -4 -4 -3 -4 -4 -5 -4 -4
3 2 1 1 1 1 1 -1 -1 0 1 -0 -1 1 1 2 2 2 2 1 1 1 0 -0 -1 -2 -2 -2 -3 -3 -3 -4 -4 -4 -4 -4 -4 -5 -6 -6 -5 -6 -6
3 2 2 1 0 1 1 1 1 1 0 0 1 1 2 1 1 1 1 1 0 -1 -1 -2 -3 -3 -3 -3 -4 -4 -4 -4 -4 -4 -5 -6 -6 -6 -6 -7 -6 -7 -7
3 2 2 1 1 1 1 1 1 1 1 1 1 1 1 1 0 0 -0 -0 -1 -1 -2 -2 -3 -3 -4 -4 -3 -4 -4 -3 -4 -5 -6 -6 -7 -7 -7 -7 -7 -7 -8
2 2 2 2 1 1 1 1 2 2 2 1 1 0 0 -0 -0 -1 -2 -2 -2 -2 -3 -3 -3 -3 -4 -3 -4 -4 -4 -5 -5 -7 -8 -8 -8 -8 -8 -8 -8 -8 -9

GFSMW_925_temp_045.txt.gz
Temp
18 18 20 21 20 21 21 21 21 22 20 18 17 17 17 17 17 18 19 19 19 19 18 18 18 17 16 17 16 15 15 14 14 13 12 12 12 12 12 11 11 11 10
15 15 18 20 21 22 22 22 20 21 21 19 18 18 17 18 20 19 19 19 19 19 18 18 18 18 17 16 16 16 14 14 13 13 11 9 10 11 11 11 11 10 10
17 17 15 17 20 20 21 22 22 22 20 20 19 18 18 18 16 17 18 19 19 19 19 18 18 18 17 16 16 16 16 14 12 12 12 7 8 8 10 10 10 10 10
14 14 15 15 17 18 20 21 21 21 21 19 18 17 17 17 17 19 20 19 18 18 18 17 18 18 17 16 16 15 15 15 13 11 11 11 11 8 8 8 8 9 9
12 13 13 15 17 18 19 20 20 20 21 20 18 18 17 18 18 18 19 18 18 17 17 17 16 16 16 16 15 14 14 15 14 13 10 10 9 9 6 6 6 8 8
12 13 14 16 16 17 18 18 19 20 20 20 19 18 18 17 18 17 16 18 16 16 16 16 16 15 15 15 14 14 14 14 14 12 12 11 9 7 6 3 4 4 7
12 12 12 13 15 17 17 18 18 19 19 19 19 18 18 17 18 18 16 14 15 14 16 15 15 14 14 14 13 13 13 12 12 12 11 11 10 9 7 6 3 2 4
11 11 11 12 14 15 16 16 17 18 19 19 18 17 18 18 17 17 17 17 16 14 15 14 13 13 13 13 12 12 11 11 11 10 10 9 9 8 7 7 4 1 0
12 13 12 14 15 16 16 17 17 18 18 18 18 18 17 16 17 18 17 15 14 14 14 13 13 11 11 12 11 11 10 9 9 8 8 8 7 6 6 5 5 3 0
12 12 12 13 15 15 16 15 16 17 18 18 18 18 17 16 16 16 14 14 13 12 11 11 11 10 11 11 10 9 8 8 7 7 6 6 6 5 4 4 3 3 2
11 12 10 13 14 14 15 15 15 15 16 17 17 16 14 13 14 13 12 12 10 10 10 10 9 10 10 9 9 8 7 7 6 5 5 5 5 4 4 3 3 2 1
13 11 11 12 12 12 13 14 13 13 14 15 14 13 12 11 11 10 9 9 9 9 9 9 8 8 8 8 7 6 5 5 5 4 4 4 4 3 3 2 2 1 1
11 10 10 10 10 11 11 10 9 10 11 10 10 9 9 9 8 8 8 8 8 7 7 7 7 7 7 6 5 5 4 3 3 2 3 3 2 1 1 1 1 1 1
12 11 9 9 10 8 8 8 8 8 8 7 7 7 6 7 7 6 6 6 7 6 6 5 5 6 5 5 4 3 3 3 2 2 2 1 -1 0 1 1 1 0 -0
10 10 10 7 7 7 6 6 6 6 7 6 6 6 6 6 6 5 5 5 5 4 5 5 5 4 4 4 3 2 1 1 0 -0 -0 0 1 1 0 1 1 0 -0
8 8 10 8 5 4 5 5 5 5 5 5 4 4 4 4 4 3 3 3 3 4 4 4 4 3 2 1 1 1 -0 -1 -0 -0 0 1 0 -0 -0 -1 -1 -0 -1
7 8 9 7 5 5 4 3 3 3 3 3 2 2 2 1 1 2 2 2 2 3 3 2 2 1 0 1 1 1 -0 -1 -0 -0 -0 -1 -1 -1 -2 -2 -2 -2 -1
6 5 5 3 4 4 3 3 2 2 2 2 1 1 1 1 1 1 2 1 2 2 1 1 1 0 -0 -0 -1 -0 -0 -0 -1 -1 -2 -2 -2 -2 -2 -2 -2 -2 -2
5 4 3 3 3 3 3 2 1 1 1 1 1 1 1 1 1 -0 0 1 1 1 1 -0 -0 -0 -1 -1 -1 0 -0 -1 -1 -2 -2 -3 -3 -3 -2 -2 -2 -3 -3
4 4 3 3 3 2 2 2 2 1 1 1 1 0 0 0 0 -0 0 0 1 -0 -0 -1 -1 -1 -0 -0 -1 -1 -1 -1 -2 -2 -3 -3 -4 -3 -2 -2 -3 -4 -4
3 3 2 2 2 2 1 0 -0 -0 0 1 1 1 1 0 1 1 0 0 -0 -1 -0 -0 -0 0 -0 -0 -0 -1 -2 -2 -3 -3 -4 -4 -4 -3 -3 -3 -4 -4 -4
3 2 2 1 1 1 1 -1 -1 -0 0 0 -0 -0 1 1 1 1 0 0 0 0 -0 -0 -1 -1 -1 -2 -2 -2 -2 -3 -4 -4 -4 -4 -4 -4 -4 -5 -5 -4 -5
3 2 2 1 1 1 1 -1 -1 -0 -0 0 -0 0 1 1 1 1 1 1 0 0 -1 -1 -2 -2 -2 -2 -3 -4 -3 -4 -3 -4 -4 -5 -5 -6 -6 -6 -6 -6 -6
3 2 1 1 0 0 0 0 0 0 1 0 1 1 1 1 1 1 1 1 -0 -1 -2 -2 -3 -3 -3 -3 -4 -4 -4 -4 -4 -4 -5 -6 -6 -7 -7 -6 -6 -7 -7
3 2 1 1 0 0 0 1 1 2 1 1 1 1 1 1 0 -0 -0 -0 -1 -1 -2 -3 -3 -3 -4 -4 -3 -4 -4 -4 -5 -5 -6 -6 -7 -7 -7 -7 -7 -8 -8
2 2 2 1 1 1 1 1 2 2 2 1 0 0 0 -0 -1 -1 -2 -2 -2 -3 -3 -3 -3 -3 -4 -4 -4 -5 -5 -5 -5 -7 -8 -8 -8 -9 -8 -8 -8 -8 -9

GFSMW_925_temp_048.txt.gz
Temp
17 18 19 20 20 20 21 21 21 21 19 17 17 17 16 17 16 17 18 18 18 18 18 17 17 17 16 16 16 15 15 14 14 13 12 12 12 12 12 11 11 11 10
16 15 17 18 19 20 20 20 20 20 20 18 18 17 17 16 17 17 18 18 18 18 18 18 17 17 16 16 15 15 14 14 13 13 11 8 10 10 11 11 11 10 10
14 15 14 16 17 17 19 20 20 21 20 19 18 17 17 16 16 16 16 18 18 18 17 18 17 17 16 16 16 15 15 14 12 13 13 7 8 8 9 9 10 10 10
12 12 12 13 16 18 18 19 19 19 20 19 17 16 17 16 16 16 19 18 18 18 18 18 17 17 17 16 16 15 15 13 13 11 12 11 11 9 7 8 8 8 9
11 11 10 12 14 15 16 17 18 18 20 20 18 17 16 16 17 17 16 16 17 17 18 17 17 16 16 16 15 15 14 13 13 12 9 9 9 10 8 7 6 7 8
11 11 13 14 15 16 15 15 16 18 18 18 19 17 17 16 16 17 17 16 16 15 16 17 17 16 16 16 15 14 14 13 13 13 13 12 10 8 8 6 5 6 7
11 11 11 11 14 16 16 16 16 16 17 17 17 17 17 16 16 17 17 15 15 14 15 16 15 15 15 15 14 13 13 13 12 12 11 11 11 11 9 8 3 3 5
10 11 11 12 14 15 16 16 16 16 16 17 17 17 17 17 16 16 16 16 16 18 16 15 15 14 13 13 12 11 11 11 11 11 10 10 9 9 9 8 5 3 1
11 10 10 12 13 14 15 15 15 15 16 15 16 16 16 17 17 17 17 16 15 16 15 14 13 11 11 11 11 11 11 10 10 9 9 8 7 7 7 7 7 5 1
10 10 10 11 12 13 13 14 14 14 15 15 15 16 16 16 16 16 16 15 15 13 13 12 10 10 9 9 10 10 10 9 8 8 7 6 6 5 5 5 5 4 3
11 10 9 10 11 11 11 12 12 12 13 12 14 14 14 14 14 13 13 13 12 12 11 9 9 8 8 9 9 9 8 8 7 6 6 5 4 4 4 3 2 2 1
11 9 8 9 9 9 9 9 10 10 10 11 11 11 11 10 10 10 10 10 10 9 10 8 8 7 7 7 8 7 7 7 6 5 4 3 3 2 1 1 1 -0 0
10 9 9 8 8 7 7 7 7 10 11 10 10 8 8 8 8 9 9 9 9 8 7 7 7 6 6 7 7 7 5 5 4 3 2 2 2 1 1 -0 -1 -1 -0
9 10 8 7 6 6 5 5 7 8 7 6 6 7 6 6 7 7 7 7 6 6 6 5 5 5 5 6 5 4 3 3 2 2 2 1 1 1 -0 -2 -0 0 0
8 7 6 8 6 5 5 5 5 5 5 5 5 5 5 5 5 5 5 5 4 3 4 4 4 4 5 4 4 2 2 2 1 0 0 -1 -0 -2 -2 -1 0 -0 -0
7 7 6 7 5 3 3 4 4 4 4 3 3 3 3 3 2 2 2 2 2 3 2 2 2 2 2 2 3 2 2 1 1 0 -1 -0 -1 -1 -1 -1 -1 -1 -1
7 5 5 4 3 3 3 3 2 3 2 2 2 2 2 1 1 1 1 0 0 1 2 2 2 2 1 1 2 1 1 0 -1 -1 -1 -1 -1 -1 -1 -1 -2 -2 -2
6 4 4 3 3 3 3 2 2 2 1 1 1 1 1 1 1 1 0 0 0 0 0 0 0 0 0 -0 -0 0 0 -1 -1 -1 -1 -1 -2 -2 -2 -2 -2 -2 -2
5 4 3 3 3 2 2 2 1 1 1 1 0 0 0 0 -0 0 -0 -0 -0 0 -0 -0 -0 -0 -1 -1 0 -0 -0 -1 -1 -2 -2 -2 -3 -3 -3 -2 -2 -3 -3
4 3 3 2 2 2 2 1 1 1 1 1 0 0 0 0 -0 -0 0 0 0 -0 -1 -1 -1 -2 -2 -2 -2 -1 -1 -1 -2 -3 -3 -3 -4 -3 -2 -2 -4 -4 -4
3 2 2 2 1 1 1 0 0 0 0 0 0 0 1 0 0 -0 -0 -0 -1 -2 -2 -3 -2 -2 -1 -0 -1 -1 -2 -2 -3 -3 -4 -4 -4 -3 -3 -3 -4 -5 -4
3 2 2 1 1 1 1 -0 -0 0 0 1 0 -0 0 -0 -0 -0 -1 -1 -1 -1 -1 -1 -1 -1 -1 -2 -2 -2 -3 -3 -4 -4 -4 -4 -4 -4 -5 -5 -5 -5 -5
2 2 2 1 1 1 0 -0 -1 0 -0 0 -0 -0 -0 -0 -0 0 -0 -0 0 -0 -1 -1 -2 -3 -2 -2 -3 -3 -3 -4 -4 -4 -4 -5 -6 -6 -6 -6 -6 -7 -6
3 2 1 1 0 0 0 0 0 0 -0 0 0 0 0 0 -0 -0 -0 -0 -1 -1 -2 -3 -3 -3 -3 -4 -4 -4 -4 -4 -4 -5 -5 -6 -7 -7 -7 -6 -6 -6 -7
2 2 2 1 0 0 0 1 1 1 1 1 0 0 0 0 -0 -1 -1 -1 -1 -1 -2 -3 -3 -3 -4 -4 -4 -4 -4 -4 -5 -6 -6 -7 -7 -7 -7 -7 -7 -7 -7
2 2 2 1 1 1 1 1 1 2 1 0 0 -0 -1 -1 -1 -1 -2 -2 -2 -3 -3 -3 -3 -4 -4 -4 -4 -5 -5 -6 -6 -7 -8 -8 -8 -8 -8 -8 -8 -8 -8

GFSMW_925_temp_051.txt.gz
Temp
17 18 18 19 19 19 20 20 20 20 18 17 17 17 16 16 16 17 17 18 18 17 17 17 16 16 16 16 15 15 14 14 14 13 12 11 12 12 12 12 11 11 11
16 15 15 16 16 17 19 19 19 20 19 17 17 17 17 16 16 16 17 16 18 17 17 17 16 16 16 15 15 15 13 13 14 12 11 13 11 10 11 11 11 11 10
14 14 13 13 14 15 16 17 18 19 19 18 17 17 16 16 16 16 16 16 17 17 18 17 17 17 16 16 15 15 14 13 12 13 14 11 14 11 9 10 10 10 10
12 13 13 13 13 14 15 16 16 17 18 19 16 16 17 17 16 16 16 16 15 16 17 17 17 17 16 15 16 15 14 14 13 11 13 12 11 11 11 8 8 9 9
12 13 12 13 14 15 15 16 16 16 17 16 16 16 16 17 17 16 15 15 15 15 15 16 16 16 16 17 16 15 13 14 13 12 9 7 9 10 9 9 7 7 8
12 13 12 13 14 15 16 16 16 16 16 16 16 15 15 16 15 16 15 15 15 15 15 14 15 15 16 16 16 15 14 13 13 12 12 11 10 9 9 8 7 8 6
12 13 12 12 12 13 14 15 15 15 16 15 15 16 16 15 15 15 15 15 14 14 14 15 14 14 15 13 13 13 13 12 11 12 12 12 12 12 11 9 6 6 5
12 12 12 11 11 12 13 13 14 15 15 15 15 15 15 15 15 15 15 14 14 16 15 14 14 14 13 12 11 11 11 11 10 11 11 11 11 10 10 9 6 4 3
12 11 11 11 11 11 11 11 12 13 13 14 14 14 14 15 15 16 15 15 15 14 15 14 12 12 12 11 10 9 8 9 9 10 11 10 9 9 8 8 8 7 5
12 11 11 10 10 9 9 10 10 11 12 12 13 13 13 13 14 14 14 15 14 14 13 13 12 11 11 10 9 8 9 9 9 9 9 8 7 7 6 6 4 5 4
11 11 10 9 9 8 8 8 9 9 10 12 12 13 13 12 12 12 12 12 12 12 12 12 11 10 10 9 8 8 7 8 7 7 7 6 5 4 4 3 3 2 2
11 10 9 8 8 7 7 7 8 8 8 8 9 11 11 9 9 9 9 9 10 10 10 10 10 9 8 7 7 6 5 6 6 5 5 3 3 2 2 2 1 1 -0
11 9 9 8 7 6 6 6 6 6 7 7 8 8 8 8 8 8 9 8 9 9 8 8 7 7 6 6 6 5 5 5 4 4 3 2 2 1 0 0 -0 -0 -1
9 8 7 6 7 6 5 4 4 5 6 7 7 6 5 6 6 6 6 6 6 6 6 6 5 5 5 5 4 4 4 3 3 3 3 2 1 1 0 -1 -2 -2 -2
8 7 6 6 6 5 4 4 4 4 5 4 4 3 3 3 3 4 4 4 4 4 4 4 3 3 3 2 3 4 3 3 2 1 0 0 0 -1 -1 -1 -2 -2 -2
7 6 5 4 4 3 2 3 3 3 2 2 2 2 2 2 2 2 2 2 1 1 1 1 1 1 2 3 4 3 2 1 1 0 -0 -1 -0 -1 -2 -2 -2 -1 -1
6 5 5 4 3 2 2 2 2 2 2 1 1 1 1 1 0 1 1 1 1 1 1 1 2 1 1 1 2 1 1 0 -0 -1 -1 -1 -3 -2 -2 -1 -2 -2 -2
5 5 3 3 2 2 2 2 2 1 1 1 1 1 0 -0 -0 -0 -0 -0 -0 -0 0 0 0 0 -0 -0 -0 -1 -2 -1 -1 -1 -1 -1 -2 -2 -3 -3 -2 -2 -2
5 4 3 3 3 2 2 2 1 1 1 1 0 0 0 -0 -0 -0 -0 -0 0 0 0 0 -0 -1 -2 -2 -1 -1 -1 -1 -2 -2 -3 -3 -3 -3 -3 -2 -2 -3 -4
3 3 3 2 2 1 1 1 1 1 0 0 0 -0 -0 -0 -1 -0 -0 -1 -1 -1 -1 -1 -2 -2 -2 -2 -1 -1 -1 -1 -2 -3 -3 -3 -4 -3 -2 -3 -4 -4 -4
3 2 2 1 1 1 1 0 0 0 0 0 0 0 0 -0 -0 -0 -0 -1 -1 -1 -2 -2 -3 -3 -2 -1 -2 -2 -2 -3 -3 -4 -4 -4 -4 -3 -3 -3 -4 -5 -4
3 2 2 1 1 1 -0 -0 -0 0 0 0 0 -0 -0 -0 -0 -0 -1 -1 -1 -2 -2 -2 -2 -2 -2 -2 -2 -2 -3 -3 -4 -4 -4 -4 -4 -5 -5 -5 -5 -5 -5
2 2 1 1 0 0 -0 -0 -1 -0 0 0 -0 -0 -0 -0 0 0 -0 -0 -1 -1 -2 -2 -3 -3 -2 -3 -3 -3 -3 -4 -4 -4 -5 -5 -6 -6 -6 -6 -6 -6 -6
2 2 2 1 0 1 0 0 0 0 0 0 -0 0 0 -0 -0 0 -0 -1 -1 -2 -2 -3 -3 -3 -3 -4 -4 -4 -4 -5 -5 -5 -5 -6 -6 -6 -7 -6 -6 -7 -7
2 2 2 1 1 1 1 1 1 1 1 0 -0 -0 -0 -0 -1 -1 -1 -1 -1 -1 -2 -3 -3 -4 -4 -4 -4 -4 -4 -5 -5 -6 -6 -7 -7 -8 -8 -7 -7 -7 -7
2 2 2 1 1 1 1 1 1 2 1 0 -0 -0 -0 -1 -1 -2 -2 -2 -3 -3 -3 -3 -4 -4 -4 -4 -5 -5 -5 -6 -6 -7 -8 -8 -9 -9 -8 -8 -8 -8 -8

GFSMW_925_temp_054.txt.gz
Temp
22 20 20 20 20 20 20 20 21 21 21 21 18 17 17 17 17 17 18 18 18 17 17 17 18 17 17 17 16 16 15 14 15 14 14 13 13 12 13 12 12 12 11
21 19 18 18 18 19 19 20 20 20 20 21 20 18 18 17 17 16 16 16 17 17 17 16 17 17 17 17 16 16 15 15 14 16 16 16 14 12 12 12 12 12 11
19 19 18 18 17 17 17 17 17 18 18 19 20 19 19 18 18 17 16 16 16 16 16 16 16 16 16 17 16 15 14 15 13 15 17 16 17 15 12 11 11 11 11
19 18 18 17 17 16 15 15 15 16 16 16 18 19 19 19 18 18 17 16 16 15 15 15 16 16 15 16 16 14 14 15 13 12 13 13 14 15 13 9 10 10 10
17 18 17 16 16 15 15 15 16 15 15 15 16 18 18 19 19 18 18 18 17 15 15 15 15 15 15 14 14 14 14 14 15 13 11 11 10 10 13 13 9 7 7
18 18 16 16 16 15 15 15 16 16 15 15 15 16 17 18 18 18 18 18 17 15 15 14 14 14 14 14 14 13 13 13 14 13 12 12 13 12 13 14 11 10 7
17 17 16 16 15 15 14 15 15 15 15 15 15 15 15 16 17 17 18 17 17 15 15 14 14 14 14 14 13 12 12 12 12 13 12 12 12 13 12 13 10 9 6
16 16 15 15 14 14 14 14 14 14 14 15 15 15 15 15 15 16 17 17 17 17 15 14 14 13 13 13 13 12 11 11 11 12 11 10 12 12 11 11 8 7 5
16 16 15 14 13 13 12 12 12 13 14 13 14 14 14 14 14 14 15 16 16 16 16 15 13 13 13 13 12 11 10 10 10 10 9 8 10 10 9 8 9 9 4
16 15 15 13 13 12 11 11 11 12 12 11 12 12 12 12 12 12 13 14 14 15 15 13 13 12 12 12 11 10 10 9 9 8 7 8 8 6 6 7 7 6 5
15 14 14 13 12 11 11 11 10 10 10 10 10 11 10 10 10 9 9 9 10 12 12 12 11 11 11 11 10 9 9 8 8 7 6 4 4 4 4 5 5 4 4
14 13 12 12 12 11 10 10 9 9 9 9 9 9 9 9 10 9 9 8 9 9 9 9 10 10 9 9 8 8 7 7 5 4 3 3 3 3 3 3 3 3 2
13 12 12 11 11 10 9 8 8 8 7 8 8 8 8 7 7 6 7 7 7 7 7 8 7 7 7 7 6 5 5 4 3 3 2 2 2 2 2 2 1 1 -0
11 11 11 11 10 8 8 7 7 6 6 6 6 6 5 5 4 4 5 5 6 5 5 5 5 4 4 4 4 3 2 1 2 2 3 3 2 2 1 0 -0 -1 -1
11 10 9 9 9 7 7 6 6 5 5 5 5 4 3 2 2 3 3 3 4 3 3 2 2 2 2 1 2 2 2 2 2 2 1 1 1 0 0 -1 -1 -2 -2
10 9 8 8 8 7 6 5 5 5 4 4 4 3 2 1 1 1 1 2 2 2 2 2 2 2 1 1 2 3 2 1 0 -0 -1 -1 -1 -1 -2 -1 -2 -2 -1
9 8 7 7 6 6 5 5 4 3 3 3 3 3 1 0 0 0 1 1 1 1 1 1 1 1 1 1 1 2 1 0 -0 -1 -2 -3 -3 -3 -2 -2 -2 -2 -2
8 8 7 6 5 5 5 3 2 3 3 2 2 1 0 0 0 0 -0 -0 0 0 -0 -0 0 -0 -1 -0 0 0 -0 -2 -3 -4 -3 -3 -3 -2 -3 -2 -2 -2 -2
7 6 5 4 4 4 3 3 2 2 2 1 0 0 -0 -0 -0 -0 -0 -0 -0 -0 -1 -1 -2 -2 -2 -2 -2 -1 -2 -2 -3 -3 -3 -3 -3 -2 -2 -2 -2 -2 -2
6 6 5 3 3 3 3 2 1 1 1 0 -0 -0 0 -0 -0 -1 -0 -1 -1 -1 -2 -2 -2 -2 -2 -2 -1 -2 -2 -3 -3 -3 -3 -3 -3 -3 -2 -2 -2 -2 -2
5 5 4 4 3 3 2 1 1 0 0 0 0 0 0 0 -0 -0 -0 -1 -1 -1 -2 -2 -2 -1 -1 -2 -2 -2 -2 -2 -2 -2 -2 -3 -4 -3 -3 -3 -3 -3 -3
5 4 4 3 2 2 1 0 0 0 0 0 0 0 -0 -0 -0 -1 -1 -1 -1 -1 -1 -1 -2 -2 -2 -2 -2 -2 -3 -3 -2 -3 -3 -4 -4 -5 -5 -5 -5 -4 -5
4 4 3 2 1 0 1 0 -0 0 0 0 -0 -0 -0 -0 -0 0 -0 0 0 0 0 0 -0 -1 -2 -3 -3 -3 -3 -3 -3 -4 -4 -5 -5 -6 -5 -6 -6 -6 -5
4 4 3 2 1 1 1 0 0 1 0 1 1 1 0 0 -0 0 -0 0 0 0 0 -0 -1 -2 -2 -2 -3 -3 -3 -4 -4 -5 -5 -5 -6 -6 -6 -6 -6 -6 -5
3 4 4 3 1 1 1 0 1 1 1 1 0 0 0 0 -0 -1 -0 -1 -2 -1 -1 -2 -2 -2 -2 -3 -4 -4 -3 -4 -4 -5 -5 -5 -5 -5 -5 -5 -6 -6 -6
3 3 4 3 2 2 2 1 1 1 1 1 0 0 0 -0 -0 -0 -1 -2 -3 -3 -3 -3 -3 -3 -4 -4 -5 -5 -5 -6 -6 -6 -6 -5 -6 -6 -6 -6 -5 -6 -6

GFSMW_925_temp_057.txt.gz
Temp
26 25 22 22 22 22 22 23 23 23 23 23 23 19 18 17 17 18 21 21 21 20 19 19 19 19 19 19 17 18 18 17 17 17 16 16 15 15 15 15 14 13 12
24 23 21 20 21 21 21 22 22 22 22 22 23 22 19 18 17 17 17 18 20 20 19 19 18 19 19 19 18 17 17 17 17 16 16 15 15 14 14 14 14 13 12
22 21 21 20 20 19 18 18 19 20 21 21 22 22 21 20 19 18 18 17 17 18 19 18 18 18 19 19 18 17 17 16 16 16 17 16 16 14 14 13 13 13 12
20 20 20 19 18 17 16 17 17 18 18 18 19 20 21 21 21 20 20 19 18 16 16 17 17 17 18 18 18 18 16 16 15 14 16 17 16 15 12 12 12 12 12
20 20 19 18 18 16 16 16 17 18 17 17 18 18 19 20 20 20 20 19 19 17 16 15 16 16 16 16 17 17 17 15 16 14 14 14 14 13 15 12 10 10 11
19 19 18 18 18 17 16 16 17 17 17 17 17 17 17 18 19 20 20 19 19 19 18 16 15 15 15 15 15 16 16 15 15 15 14 14 14 12 13 13 12 10 9
19 18 18 17 17 16 16 16 16 17 17 17 17 17 17 17 17 18 19 19 19 18 17 17 16 15 14 14 15 14 14 14 14 14 14 14 14 15 14 14 10 10 7
18 18 17 17 16 15 15 14 15 15 16 16 16 16 17 17 17 17 17 18 18 19 19 17 16 14 14 14 14 14 14 13 13 13 14 13 13 13 13 13 8 6 5
18 17 17 16 15 15 14 13 14 14 14 14 15 15 16 15 15 15 16 16 17 17 17 17 17 15 14 13 13 13 13 13 12 12 12 12 10 10 10 10 8 7 4
18 17 16 15 15 14 13 13 13 13 13 13 13 13 13 13 13 13 13 13 14 14 15 16 16 15 14 13 13 13 12 12 11 11 11 10 9 8 7 6 6 6 4
17 16 16 15 14 13 13 12 12 12 12 12 12 12 12 12 12 12 12 11 10 11 11 12 13 12 12 12 11 12 11 11 10 10 9 8 7 6 4 3 2 3 4
16 15 14 14 14 13 12 12 11 11 10 10 10 10 10 10 9 9 9 9 9 9 9 9 10 10 10 10 10 10 9 9 8 7 5 4 3 2 2 2 3 3 3
15 14 14 13 13 12 11 10 10 9 9 9 9 8 8 7 7 6 6 6 7 7 7 6 7 7 7 7 7 6 6 5 4 3 3 1 2 2 2 2 2 2 2
14 13 13 13 12 11 10 9 9 8 8 8 7 6 5 5 4 4 4 3 4 4 4 4 5 4 4 4 4 4 3 2 1 2 2 1 2 2 2 1 1 0 -0
13 12 11 12 11 10 10 9 8 7 7 7 6 5 4 3 2 2 2 2 2 2 2 3 3 3 3 2 3 2 2 1 1 1 1 1 1 1 1 0 -1 -1 -2
13 11 10 10 10 9 8 8 7 6 6 6 5 4 4 2 1 1 1 2 1 1 2 1 1 1 1 1 0 1 1 1 1 -0 -0 -0 -0 -1 -1 -1 -1 -1 -1
12 11 10 9 9 8 7 7 6 5 5 4 4 3 2 1 0 0 1 1 1 1 1 1 1 1 1 0 -0 0 0 -0 -1 -2 -2 -2 -3 -2 -2 -1 -2 -2 -1
11 10 9 8 7 7 7 6 5 4 3 2 2 2 1 -0 -0 -0 -0 0 0 -0 -0 -0 -1 -1 -1 -0 -0 -0 -1 -2 -2 -2 -3 -2 -3 -3 -2 -2 -2 -2 -2
10 9 8 6 6 6 5 5 4 2 1 1 1 0 -0 -0 -0 -0 -0 -0 -0 -1 -1 -1 -1 -2 -2 -2 -2 -2 -2 -2 -3 -3 -3 -3 -2 -2 -2 -2 -2 -1 -1
9 8 7 6 6 5 5 4 3 2 1 1 0 0 -0 -0 -0 -0 -1 -1 -1 -2 -2 -2 -2 -2 -2 -2 -1 -1 -1 -2 -2 -2 -3 -2 -3 -2 -2 -2 -1 -2 -2
8 7 7 6 5 4 4 3 1 0 0 0 0 0 0 -0 -0 -1 -1 -1 -1 -1 -1 -1 -0 -0 -0 -1 -2 -1 -1 -1 -1 -2 -2 -2 -3 -3 -3 -3 -3 -3 -3
7 6 6 5 4 3 2 1 0 0 0 0 0 -0 -0 -0 -1 -0 -1 0 1 1 1 0 -0 -1 -1 -1 -2 -2 -3 -2 -2 -2 -3 -3 -4 -4 -5 -5 -4 -4 -4
6 6 6 3 2 1 1 1 0 0 0 0 0 0 1 1 1 1 1 2 2 2 2 1 1 -0 -1 -2 -3 -3 -3 -3 -3 -3 -4 -5 -5 -5 -5 -5 -5 -5 -4
6 6 4 3 2 2 1 1 0 0 1 2 2 2 2 2 2 1 1 2 2 2 2 1 0 -1 -1 -1 -2 -2 -2 -3 -3 -4 -4 -5 -5 -5 -5 -5 -5 -5 -5
6 5 6 5 3 2 1 1 1 1 3 3 2 2 2 2 1 1 1 0 -1 -0 0 -1 -1 -1 -1 -3 -4 -4 -4 -4 -4 -5 -4 -4 -4 -4 -4 -4 -5 -5 -5
4 4 5 4 3 3 2 1 1 3 3 2 2 2 1 2 1 1 -1 -2 -2 -2 -2 -2 -2 -3 -3 -4 -4 -5 -5 -5 -5 -6 -4 -4 -4 -5 -5 -5 -5 -5 -5

GFSMW_925_temp_060.txt.gz
Temp
23 25 23 22 22 22 22 22 23 23 24 24 23 21 20 19 19 18 18 20 21 20 20 20 19 19 19 19 19 19 18 18 18 17 17 16 16 16 16 16 15 15 14
23 20 21 21 20 20 21 21 21 22 22 23 23 23 21 20 20 19 18 18 19 20 20 19 19 19 19 19 19 18 18 18 17 17 15 11 14 15 15 15 15 15 14
20 19 19 20 19 17 17 18 19 19 20 20 21 21 21 20 19 18 18 18 17 18 19 19 19 18 18 18 18 18 17 16 17 17 15 11 11 12 14 14 14 14 14
17 18 18 18 17 16 16 17 17 17 18 19 19 19 19 19 20 19 19 19 19 18 19 19 18 18 18 18 18 18 17 16 15 16 16 17 16 11 10 13 14 14 13
17 17 17 18 17 16 16 16 17 17 17 17 17 17 18 18 19 20 20 20 20 19 18 18 17 17 17 17 17 17 17 16 15 14 15 14 14 15 11 9 10 12 13
17 16 18 18 17 16 16 16 16 17 17 17 17 17 17 17 17 18 19 19 19 19 19 18 18 17 17 16 16 16 16 16 15 14 14 14 14 13 12 10 9 9 10
16 16 15 16 16 15 15 14 15 15 16 16 16 17 17 17 16 17 17 18 18 19 19 18 18 17 17 16 16 15 15 15 15 14 13 13 13 14 13 12 10 8 8
15 16 16 15 15 15 14 13 14 14 14 15 15 15 16 16 16 16 16 16 16 17 17 17 17 17 16 15 14 14 15 14 14 14 13 12 12 13 13 13 10 6 4
16 16 16 15 15 14 13 13 13 13 13 13 13 14 14 14 13 14 14 14 14 14 15 15 15 16 16 15 14 14 13 14 14 14 13 12 12 12 12 12 12 11 6
16 15 15 15 14 14 13 13 12 12 12 12 12 12 12 12 12 12 11 11 11 12 12 13 13 13 13 13 13 13 13 13 13 13 12 12 11 10 10 9 9 8 7
14 14 14 14 14 13 12 12 11 11 10 10 10 10 10 9 10 9 9 9 9 9 9 9 10 11 11 11 11 12 11 12 12 11 11 10 9 7 6 6 5 5 5
13 13 13 14 13 12 12 11 10 9 9 9 9 8 8 7 7 6 7 7 8 8 8 8 8 9 9 10 10 9 9 10 9 9 8 7 5 4 4 3 3 4 4
13 13 13 13 12 11 10 10 9 8 8 7 7 6 5 5 5 4 4 5 6 6 6 6 6 6 6 6 6 6 6 7 6 5 5 5 4 3 2 2 2 2 2
13 12 11 11 11 10 9 9 8 7 7 7 6 5 4 3 3 3 3 3 3 4 4 4 4 4 4 4 4 4 3 3 3 3 3 2 2 2 2 1 1 1 1
13 11 10 10 10 10 9 8 7 6 6 6 5 4 3 2 2 2 2 2 2 2 3 2 2 2 1 1 2 1 1 0 0 0 1 1 1 1 1 1 0 -0 -0
12 10 10 10 9 9 8 8 6 6 6 5 4 3 2 1 1 1 1 1 2 2 2 1 1 1 1 1 -0 0 -0 -0 -0 -0 -0 -0 -1 -0 -0 -0 -1 -1 -1
11 10 9 8 8 8 7 6 5 5 4 3 3 2 1 0 0 0 1 0 0 1 1 0 0 -0 -0 -0 1 1 0 -1 -1 -1 -1 -1 -2 -2 -2 -1 -2 -1 -1
11 9 9 8 7 7 6 5 4 3 2 2 1 0 0 -0 -0 0 0 0 0 -0 -1 -1 -1 -1 -1 -0 -0 -0 -0 -1 -2 -2 -2 -2 -2 -2 -2 -2 -2 -2 -1
9 8 7 6 6 6 5 4 3 2 1 1 0 -0 -0 -0 -0 -0 -0 -1 -1 -1 -1 -1 -1 -1 -2 -1 -1 -1 -1 -2 -2 -2 -2 -2 -2 -2 -2 -2 -2 -2 -1
9 8 7 6 6 5 5 4 3 2 1 0 -0 -1 -0 -0 -0 -0 -1 -2 -2 -2 -1 -1 -1 -1 -1 -1 -1 -1 -1 -1 -1 -2 -2 -2 -2 -2 -2 -3 -3 -3 -3
8 7 6 6 5 5 4 2 1 0 0 0 -0 -0 0 0 0 -0 -1 -1 -1 -1 -0 -0 -1 -1 -1 -1 -1 -2 -1 -2 -2 -2 -2 -3 -3 -4 -4 -4 -4 -4 -3
7 7 6 5 4 3 2 1 0 0 0 0 0 -0 -0 -1 -0 0 0 0 1 1 0 0 -1 -1 -1 -2 -2 -2 -2 -3 -3 -3 -3 -4 -4 -4 -4 -4 -4 -4 -4
7 6 5 4 3 2 1 1 0 1 1 1 0 0 1 1 1 1 2 2 2 2 1 1 -0 -1 -1 -2 -2 -2 -3 -3 -3 -4 -4 -4 -4 -5 -5 -4 -5 -5 -5
6 6 4 3 2 2 1 1 1 1 2 2 2 2 2 1 1 1 2 2 2 2 1 0 -0 -1 -1 -2 -2 -3 -3 -3 -4 -4 -4 -4 -4 -4 -4 -5 -5 -5 -5
6 6 5 3 2 2 2 2 2 2 2 2 2 2 2 2 1 1 1 1 0 0 0 -1 -1 -1 -2 -3 -4 -4 -4 -4 -5 -5 -5 -5 -4 -5 -5 -4 -4 -5 -5
6 5 5 4 3 2 2 2 2 2 3 2 2 2 2 1 1 0 -0 -1 -1 -1 -1 -2 -2 -3 -3 -4 -4 -4 -5 -5 -5 -5 -5 -5 -5 -5 -5 -5 -5 -5 -6

GFSMW_925_temp_063.txt.gz
Temp
21 21 21 21 22 22 22 22 22 22 21 20 20 19 20 20 21 21 21 21 21 19 20 20 20 20 19 19 19 19 19 19 18 18 17 17 17 17 17 16 16 16 15
18 18 20 20 19 19 20 20 21 21 21 21 20 20 20 20 20 21 20 20 20 21 19 19 19 20 19 19 19 19 18 18 18 17 14 12 14 16 16 16 16 16 15
17 16 16 17 18 18 17 18 18 19 20 19 20 20 20 18 19 18 18 19 19 19 19 19 18 18 19 19 19 19 18 16 16 17 16 10 11 11 15 15 15 15 15
15 15 16 16 17 16 16 17 17 17 18 18 18 18 18 18 18 18 18 19 19 19 19 18 19 19 18 17 18 18 17 17 15 15 15 16 15 10 11 13 14 14 14
14 15 16 16 16 16 16 16 16 17 17 17 17 17 17 17 17 18 18 18 18 19 19 19 18 18 18 18 17 17 17 16 15 14 15 13 14 13 10 10 10 12 13
14 14 16 16 15 15 15 15 15 15 16 16 16 16 16 16 16 16 17 17 18 18 18 18 18 18 17 17 17 17 16 15 15 14 14 14 14 13 10 9 8 9 10
13 13 13 14 15 14 14 14 14 14 14 15 15 15 15 16 15 15 15 15 16 16 16 17 17 17 17 17 17 17 16 15 15 14 14 13 12 13 12 11 9 8 8
13 13 13 14 14 13 13 13 13 13 13 13 13 13 13 13 13 13 13 13 14 14 14 15 15 16 16 16 16 16 15 15 14 14 13 13 12 12 12 12 11 6 4
13 13 13 13 13 13 13 12 12 12 12 12 12 12 12 12 12 12 12 12 12 12 13 13 13 14 14 14 14 14 14 14 14 14 14 13 12 12 11 10 11 11 9
13 12 12 13 13 13 12 12 11 11 11 11 10 10 10 10 10 11 10 10 10 10 11 11 11 11 11 12 12 12 13 13 13 12 12 12 12 11 10 9 8 8 8
12 11 11 13 13 12 11 11 10 10 9 9 9 9 9 9 9 9 8 8 8 9 9 9 9 9 9 10 10 11 11 11 11 11 11 11 9 8 7 6 6 6 6
11 11 12 12 11 11 10 10 9 9 8 8 8 7 7 7 7 6 6 7 7 7 7 8 8 8 9 9 9 9 8 8 8 8 8 7 6 6 5 5 5 5 5
11 10 11 10 10 10 9 9 8 7 7 7 6 5 5 4 4 4 4 5 5 5 6 7 7 7 7 6 7 6 6 5 5 4 4 4 4 4 3 3 4 3 3
11 10 9 9 9 9 9 8 7 7 6 6 5 4 3 2 2 2 3 3 3 4 4 4 4 4 4 3 3 3 3 3 2 2 2 2 2 2 1 1 1 1 2
11 10 9 8 8 8 8 7 6 6 6 5 4 3 2 2 2 2 2 2 2 2 2 2 1 1 1 1 2 2 1 1 1 1 0 0 1 0 0 0 0 0 0
11 9 9 8 7 7 7 6 5 5 4 4 3 2 1 1 1 1 1 1 1 1 1 1 1 1 1 0 1 1 1 1 0 -0 0 0 0 -0 -0 -0 -1 -1 -1
10 9 8 7 7 7 6 5 4 4 3 3 2 1 0 1 1 1 1 0 0 0 0 -0 -0 0 0 -0 1 1 0 -0 -1 -1 -1 -1 -1 -1 -1 -2 -2 -2 -1
9 8 7 7 7 6 5 4 4 3 2 2 1 0 0 0 0 0 0 -0 -1 -1 -1 -1 -1 -1 -1 -1 -0 -0 -0 -1 -1 -2 -2 -2 -2 -2 -2 -2 -2 -1 -1
8 7 7 6 6 5 4 4 3 2 1 0 0 0 -0 -0 -0 -0 -1 -1 -2 -1 -1 -1 -1 -1 -1 -1 -1 -1 -1 -1 -2 -2 -2 -2 -2 -2 -2 -2 -2 -2 -2
7 6 6 6 5 5 4 3 2 1 1 0 0 -0 0 0 -0 -1 -2 -2 -1 -1 -1 -1 -1 -1 -1 -1 -1 -1 -1 -2 -2 -2 -2 -2 -2 -2 -3 -3 -3 -3 -3
7 6 6 5 5 4 4 2 2 1 0 0 0 -0 0 0 -0 -1 -1 -1 -1 -1 -1 -1 -1 -1 -1 -1 -2 -2 -2 -2 -2 -3 -3 -3 -3 -4 -4 -4 -4 -4 -4
6 6 5 4 4 4 3 2 1 0 0 0 0 0 0 0 -1 -0 -0 0 0 0 -0 -1 -1 -1 -1 -2 -2 -2 -2 -3 -3 -3 -4 -4 -4 -4 -4 -4 -4 -4 -5
6 6 5 3 3 2 2 1 1 1 1 0 0 -0 -0 0 1 1 1 1 1 1 0 -0 -1 -1 -2 -2 -2 -2 -3 -3 -3 -4 -4 -4 -4 -4 -4 -4 -4 -5 -5
6 5 4 3 2 2 2 2 1 1 1 1 0 1 1 1 1 1 1 2 1 1 1 -0 -1 -1 -2 -2 -3 -3 -3 -3 -4 -4 -4 -5 -4 -4 -4 -5 -5 -5 -5
6 5 4 3 2 2 2 2 1 1 2 2 2 1 1 1 1 1 1 1 1 1 0 -0 -1 -2 -2 -3 -3 -4 -4 -4 -5 -5 -5 -5 -5 -5 -5 -5 -5 -5 -5
6 5 4 3 2 2 2 2 2 2 2 2 2 2 2 1 1 1 -0 -0 -0 -0 -0 -1 -1 -2 -3 -3 -3 -4 -4 -5 -5 -5 -6 -6 -6 -6 -6 -6 -6 -6 -6

GFSMW_925_temp_066.txt.gz
Temp
18 19 20 20 21 20 21 21 21 21 20 20 19 20 20 21 21 21 21 21 20 20 20 20 20 19 19 19 19 19 19 19 18 17 17 17 17 17 17 17 17 17 16
16 17 17 18 19 19 19 19 19 19 20 20 19 19 19 19 20 20 20 20 21 21 20 20 20 19 19 19 19 19 18 18 17 16 14 14 15 16 17 17 16 17 16
15 14 15 16 17 17 17 18 18 18 18 18 19 19 19 18 18 19 19 20 19 19 19 19 19 19 18 18 18 18 18 16 16 15 16 11 13 11 16 16 16 16 16
14 14 14 15 16 16 16 16 16 17 17 17 17 17 18 18 18 18 18 18 18 18 18 18 18 18 17 18 18 18 17 16 15 14 15 15 14 11 11 14 15 14 14
13 13 14 15 15 15 15 15 16 16 16 16 16 16 16 16 16 16 17 17 18 18 18 17 18 18 18 18 17 17 16 16 14 14 14 13 12 12 10 14 11 12 13
12 13 14 14 14 14 15 15 15 15 15 15 15 15 16 16 16 15 15 15 16 16 16 17 17 17 17 17 17 17 16 16 16 15 14 13 12 12 11 9 9 9 12
11 11 12 13 13 14 14 13 13 13 13 14 14 14 14 14 14 13 14 14 14 14 15 15 16 16 16 16 16 16 16 16 15 15 15 14 13 13 12 11 12 8 8
11 12 12 13 13 13 13 13 12 12 12 12 12 12 13 13 12 12 12 12 12 12 12 13 14 15 15 15 15 15 15 16 15 14 14 13 13 13 12 11 10 7 5
11 11 12 12 12 12 12 12 11 11 11 11 11 11 11 11 11 10 11 11 11 11 11 11 12 12 13 13 12 12 13 12 13 13 12 11 11 11 11 11 10 10 9
11 11 11 12 12 12 11 11 11 10 10 10 9 9 9 9 9 9 10 9 9 9 9 10 10 10 11 11 11 11 11 11 11 11 10 10 10 10 10 9 9 9 9
11 10 10 11 11 11 10 10 10 9 9 8 8 8 8 8 8 8 8 8 8 8 8 8 8 9 9 9 9 9 10 10 9 9 9 8 7 7 7 6 6 6 7
10 9 10 10 10 10 9 9 9 8 8 7 7 6 6 6 6 6 6 6 7 7 7 7 7 7 7 8 8 8 7 8 6 6 6 6 6 5 4 4 4 4 4
10 9 9 9 9 9 8 8 8 7 7 6 6 5 5 4 4 4 4 5 5 5 5 5 5 5 5 5 5 5 5 5 4 4 4 4 4 3 3 3 2 2 2
10 9 8 8 8 8 8 7 7 6 6 5 5 4 3 2 2 3 3 3 3 3 3 3 2 2 3 3 3 3 3 3 3 2 2 2 2 2 2 2 1 1 1
10 9 8 7 7 7 7 6 6 6 5 5 4 3 2 2 2 2 2 2 2 2 2 1 1 1 1 1 2 2 1 1 1 1 1 1 1 0 1 1 0 1 0
10 9 8 7 7 6 6 6 5 5 4 4 2 2 1 2 1 1 1 1 1 1 1 1 0 0 0 0 1 1 1 1 0 -0 0 -0 -0 0 -0 -0 -1 -1 -1
10 9 8 7 7 6 6 5 5 4 3 3 2 1 1 1 1 1 1 0 0 0 0 0 0 0 0 0 1 1 1 0 -0 -0 -0 -0 -1 -1 -1 -1 -1 -1 -1
9 8 7 7 6 6 5 5 4 3 3 2 1 1 0 0 0 0 0 -1 -1 -1 -0 -0 0 -0 -1 -1 0 0 -0 -0 -1 -1 -1 -1 -2 -2 -2 -2 -2 -2 -2
8 8 8 7 6 5 5 4 3 2 2 1 1 0 0 0 0 -0 -1 -1 -2 -1 -1 -1 -1 -1 -1 -1 -1 -1 -1 -1 -2 -2 -2 -2 -2 -2 -3 -2 -2 -2 -2
8 7 7 6 5 4 4 3 2 2 1 0 0 0 0 0 -0 -1 -2 -2 -1 -1 -1 -1 -1 -1 -1 -1 -2 -1 -1 -2 -2 -2 -2 -3 -3 -3 -3 -3 -3 -3 -3
7 7 6 5 5 4 3 2 2 1 1 0 0 0 1 1 1 -1 -1 -1 -1 -1 -1 -1 -1 -1 -1 -1 -2 -2 -2 -2 -3 -3 -3 -3 -3 -3 -3 -4 -4 -4 -4
6 6 5 4 4 4 3 2 1 1 1 0 0 0 1 1 -1 -0 -0 -1 -0 -0 -1 -1 -1 -1 -1 -2 -2 -2 -2 -3 -3 -3 -4 -4 -4 -4 -4 -4 -4 -4 -5
6 5 5 4 3 3 3 1 1 1 1 0 0 0 0 0 0 0 0 -0 -0 -0 -0 -1 -1 -1 -1 -2 -2 -2 -3 -3 -4 -4 -4 -4 -4 -4 -4 -5 -4 -5 -5
5 5 4 2 2 2 2 2 1 1 1 0 0 -1 -0 -0 0 0 0 1 1 0 0 -0 -1 -1 -1 -2 -2 -3 -3 -3 -4 -4 -4 -5 -5 -5 -5 -5 -5 -5 -5
6 5 4 3 2 2 2 2 1 1 1 0 0 0 0 0 1 1 1 1 1 1 1 0 -0 -1 -2 -2 -3 -3 -4 -4 -4 -4 -5 -5 -5 -6 -5 -5 -5 -5 -5
6 4 4 4 3 2 2 2 2 1 1 1 1 1 1 1 1 1 1 0 0 0 0 -0 -0 -1 -2 -3 -3 -3 -4 -4 -4 -4 -5 -6 -6 -6 -6 -6 -6 -6 -6

GFSMW_925_temp_069.txt.gz
Temp
17 18 18 19 20 20 21 21 21 21 20 20 20 19 19 20 20 20 20 19 20 19 19 19 19 18 18 18 18 18 18 17 17 16 16 17 17 17 17 17 17 17 17
15 15 16 17 18 18 19 19 20 20 20 20 19 19 19 19 20 20 19 19 19 18 19 19 19 19 18 18 18 17 17 17 16 16 14 14 16 17 17 17 17 17 17
15 14 15 16 16 17 17 17 18 19 19 19 19 19 18 18 18 18 19 19 18 18 18 18 18 18 18 18 17 17 17 15 16 16 15 12 12 12 17 17 17 17 16
14 13 13 14 15 16 16 16 16 16 17 17 18 18 18 18 18 18 18 18 18 18 17 17 18 18 17 17 17 17 16 16 14 14 14 15 13 12 13 15 16 15 14
12 12 13 14 14 15 15 15 15 15 15 15 16 16 16 16 16 16 17 17 17 17 17 18 17 17 17 17 17 17 16 16 15 14 14 14 12 11 10 13 12 14 15
11 12 13 13 14 14 14 14 14 14 14 15 15 15 15 15 15 14 15 15 15 15 16 16 16 17 17 16 16 16 16 16 16 14 14 13 13 11 10 10 11 11 12
10 10 10 12 13 13 13 13 13 13 13 13 14 13 13 14 13 13 13 13 13 13 14 14 14 15 15 15 15 15 15 15 15 15 14 13 13 13 12 11 12 10 9
10 10 11 12 12 12 12 12 12 12 12 12 12 12 12 12 11 11 11 11 11 11 11 12 13 13 13 14 13 13 13 13 13 12 12 11 12 12 12 11 11 9 6
10 10 11 11 12 12 12 12 11 11 10 10 10 10 10 10 10 10 10 10 10 10 10 10 11 11 11 12 12 12 13 13 12 11 10 10 10 10 10 10 10 10 10
11 10 10 11 11 11 11 11 10 10 9 9 9 9 9 8 8 8 9 9 8 8 9 9 9 9 10 10 10 10 10 10 10 9 8 8 8 8 8 8 8 8 8
10 10 9 11 11 10 10 10 9 9 8 8 8 8 7 7 7 7 7 7 7 7 7 7 8 8 8 8 9 9 9 9 7 6 6 6 7 7 7 6 6 6 6
10 9 9 10 9 9 9 9 9 8 8 7 7 6 6 6 6 6 5 5 6 5 6 6 6 6 6 6 7 7 6 7 7 6 6 5 5 5 5 5 5 4 4
10 8 8 8 8 8 8 8 8 7 7 6 6 5 5 4 4 4 4 4 4 4 4 4 4 4 4 4 4 4 4 4 4 4 4 3 3 3 3 3 2 2 3
10 8 7 8 8 8 7 7 7 6 6 5 5 4 3 2 2 3 3 3 3 3 3 2 2 2 2 2 3 2 2 2 2 1 1 1 1 1 1 1 1 1 1
9 9 8 7 7 7 6 6 6 6 5 5 4 3 2 2 3 2 1 1 1 1 1 1 1 0 0 1 2 1 0 0 -0 0 0 0 1 0 0 0 0 1 0
10 9 8 7 6 6 6 6 5 5 4 4 3 2 1 2 1 1 1 1 1 1 1 0 1 1 1 0 1 1 1 0 0 -0 -1 -1 -0 0 -1 -1 -1 -1 -1
10 9 8 7 7 6 6 5 5 4 4 3 2 2 1 1 1 1 1 0 0 0 1 1 1 0 0 -1 1 1 1 -0 -1 -1 -1 -1 -1 -1 -1 -1 -1 -1 -2
10 9 8 7 7 6 6 5 4 3 3 2 2 1 1 0 0 0 0 -0 -0 0 0 0 -0 -0 -1 -1 -0 -0 -0 -0 -1 -1 -2 -2 -2 -2 -3 -2 -2 -2 -2
9 9 9 7 6 6 5 4 3 3 2 2 1 1 0 0 0 -0 -1 -1 -1 -1 -1 -1 -1 -0 -1 -1 -0 -0 -1 -1 -2 -2 -2 -2 -2 -2 -3 -3 -3 -3 -3
9 8 7 6 6 5 4 3 3 2 2 1 1 1 0 0 -0 -1 -1 -1 -1 -1 -1 -1 -1 -1 -1 -1 -2 -1 -1 -1 -2 -2 -2 -2 -3 -3 -3 -3 -4 -4 -4
7 7 6 6 6 5 4 3 2 2 2 1 1 0 0 0 0 -1 -2 -1 -0 -1 -1 -1 -1 -1 -1 -1 -2 -2 -2 -2 -2 -3 -3 -3 -4 -3 -3 -3 -4 -4 -4
6 6 5 5 5 4 3 3 2 2 1 1 0 0 1 0 -1 -1 -1 -1 -1 -1 -1 -1 -1 -1 -1 -2 -2 -2 -2 -2 -3 -3 -3 -4 -4 -3 -4 -4 -4 -4 -5
6 6 5 4 4 4 3 2 2 2 1 0 0 0 0 0 -1 -1 -1 -1 -1 -1 -1 -1 -1 -1 -1 -1 -1 -2 -2 -3 -3 -4 -4 -4 -4 -4 -4 -4 -4 -5 -5
6 5 4 4 3 3 3 3 2 1 1 0 0 1 0 -0 -0 -0 -0 -0 -0 -0 -0 -0 -0 -1 -1 -1 -2 -2 -3 -3 -3 -4 -4 -4 -4 -5 -5 -5 -5 -5 -5
6 5 4 4 4 3 2 2 1 1 0 0 1 0 -0 -1 -0 0 1 1 1 1 1 1 0 -0 -0 -1 -2 -3 -3 -3 -4 -4 -4 -4 -5 -5 -6 -6 -6 -6 -6
6 5 4 4 4 3 2 2 2 1 1 -0 -0 -0 -0 -0 -0 0 0 1 0 0 0 0 0 -0 -1 -1 -3 -3 -4 -4 -4 -4 -4 -5 -6 -6 -7 -7 -7 -6 -7

GFSMW_925_temp_072.txt.gz
Temp
17 17 19 20 20 21 21 20 19 19 19 19 18 18 19 19 19 19 19 19 19 19 19 19 18 18 18 18 18 17 17 17 17 15 15 16 17 17 17 18 18 18 17
16 15 16 17 18 19 19 20 19 18 19 18 18 18 19 19 19 19 19 19 18 18 18 18 18 18 18 18 18 16 16 16 16 15 14 13 16 17 18 18 18 17 16
14 13 13 15 16 17 17 18 18 19 19 19 18 18 18 17 18 18 18 18 17 17 17 17 17 17 17 17 17 17 16 14 15 15 15 13 13 13 17 17 17 17 17
13 13 13 13 15 15 16 16 17 17 17 18 18 18 18 17 17 17 17 17 17 17 17 17 16 16 16 16 16 16 16 15 14 14 14 14 13 12 13 15 16 16 16
12 12 12 13 13 14 15 15 15 15 16 16 16 16 16 16 16 16 16 16 16 16 15 16 16 16 15 15 16 16 15 15 14 14 14 15 13 12 10 13 13 14 14
11 11 12 13 13 13 14 14 14 14 14 14 15 15 15 15 15 15 15 15 15 14 14 14 14 15 15 15 15 15 15 15 14 14 13 13 13 12 10 10 10 11 12
9 9 9 11 12 13 13 13 13 12 12 13 13 13 13 13 12 12 12 12 12 13 13 13 13 14 13 14 13 14 14 14 14 14 13 12 13 12 12 12 11 10 11
9 9 9 10 11 12 12 12 12 12 11 11 11 11 11 11 11 10 10 10 10 10 11 11 11 12 12 13 12 12 13 12 12 12 12 11 11 10 11 10 11 11 8
9 9 9 10 11 11 11 12 11 11 10 10 10 10 10 10 10 9 9 9 9 9 9 10 10 11 11 11 11 11 11 11 11 11 10 9 9 9 9 9 9 8 9
9 9 9 10 11 11 11 11 10 10 9 9 9 9 9 9 8 8 8 8 8 8 8 8 9 9 9 9 9 10 10 10 10 10 8 8 7 7 8 8 8 8 7
9 8 8 10 10 10 10 10 9 9 9 8 8 8 8 7 7 7 7 7 7 7 7 7 7 7 7 7 7 7 7 7 6 6 6 6 6 6 7 7 7 6 5
9 8 8 9 9 9 9 9 9 8 8 7 7 7 6 6 5 5 5 5 5 5 5 5 6 5 5 5 5 5 5 5 5 4 4 4 4 4 4 4 4 4 4
9 8 7 7 8 8 8 8 8 7 7 6 6 5 5 4 4 4 3 3 4 4 4 4 4 4 3 3 3 3 3 3 2 2 3 2 2 2 2 2 2 2 2
9 8 7 7 7 8 8 7 7 7 6 5 5 4 3 2 2 3 2 2 2 2 2 2 1 1 2 2 2 1 1 1 1 1 1 1 1 1 0 1 1 1 2
9 8 7 6 7 7 7 7 6 6 5 5 4 3 2 2 2 2 2 1 1 1 1 1 1 1 0 1 -0 0 0 0 0 0 0 1 1 1 0 -0 -0 0 0
9 8 8 7 7 7 6 6 6 5 4 4 3 2 2 2 2 1 1 1 1 1 1 1 1 0 0 -0 1 1 1 0 -0 -1 -1 -0 -0 -0 -1 -1 -1 -1 -1
10 9 8 8 7 7 7 6 5 5 4 3 2 2 2 1 1 1 1 1 1 1 1 1 0 -0 -1 -1 1 1 0 -0 -1 -1 -1 -1 -2 -2 -1 -1 -1 -1 -2
10 9 8 8 8 7 6 6 5 4 3 2 2 1 1 1 0 0 0 0 0 0 0 -0 -0 -0 -1 -0 0 -0 -0 -1 -1 -1 -2 -2 -2 -2 -2 -2 -2 -2 -3
9 9 10 9 8 7 6 5 4 3 3 2 2 1 1 0 0 -0 -0 -0 -0 -0 -0 -0 -0 -0 -1 -1 -1 -1 -1 -1 -2 -2 -2 -2 -2 -2 -3 -3 -3 -3 -3
9 8 8 8 7 6 5 4 3 3 2 2 2 1 1 0 -0 -0 -1 -1 -1 -1 -1 -1 -1 -1 -1 -2 -1 -1 -1 -1 -2 -2 -2 -2 -3 -3 -3 -3 -4 -3 -4
7 7 7 7 6 5 4 4 3 2 2 2 1 1 0 0 -0 -1 -1 -1 -1 -1 -1 -1 -1 -1 -1 -1 -2 -2 -1 -2 -2 -2 -3 -3 -4 -3 -3 -3 -4 -4 -4
6 6 6 5 5 5 4 3 2 2 2 1 1 0 0 -0 -0 -1 -1 -1 -1 -1 -1 -1 -1 -1 -1 -1 -2 -2 -2 -2 -2 -3 -3 -4 -4 -3 -4 -4 -4 -4 -4
6 6 6 5 4 4 4 3 3 2 1 1 0 0 0 0 0 -1 -1 -1 -1 -1 -1 -1 -1 -0 -1 -1 -1 -2 -2 -2 -3 -3 -4 -4 -4 -4 -4 -4 -4 -5 -5
6 6 5 4 3 4 3 3 3 2 1 1 0 0 0 -0 -0 -1 -1 -0 -1 -1 -1 -1 -1 -0 -0 -1 -1 -2 -2 -2 -3 -4 -4 -4 -4 -4 -5 -5 -5 -5 -5
5 5 4 4 4 4 3 3 2 2 1 1 0 0 0 -0 -0 -1 -0 0 0 0 0 1 0 0 -0 0 -1 -1 -2 -3 -3 -4 -4 -4 -4 -5 -5 -5 -6 -6 -6
6 6 5 5 5 4 4 3 2 2 1 1 0 0 0 0 -1 -1 -0 -0 1 0 0 1 1 0 -0 -1 -1 -3 -3 -3 -4 -4 -4 -4 -5 -5 -6 -6 -6 -6 -7

GFSMW_925_temp_075.txt.gz
Temp
17 17 18 19 19 19 20 19 19 19 19 19 19 18 19 19 20 20 19 19 19 18 18 18 18 18 18 18 18 17 17 16 17 14 15 16 18 19 19 18 18 18 17
17 17 16 17 17 18 19 20 19 19 18 18 18 18 18 18 18 18 18 18 17 17 17 17 17 17 17 17 17 16 15 15 16 15 14 16 17 17 18 18 18 18 17
17 16 15 15 16 17 17 18 18 18 18 18 18 17 17 17 17 17 17 17 17 17 17 17 16 16 16 16 16 16 15 14 15 15 15 15 16 14 17 17 17 17 16
14 15 14 13 15 15 16 16 17 17 17 17 18 18 18 17 17 17 16 16 16 16 16 16 16 15 15 15 15 16 15 15 14 15 14 14 13 13 14 15 16 16 15
15 15 13 13 13 14 15 15 16 16 16 16 17 17 16 16 16 15 15 15 15 15 15 15 15 16 15 14 15 15 15 15 14 14 14 14 13 12 12 13 13 14 14
14 13 13 13 12 13 13 14 14 15 15 15 15 15 15 14 14 14 14 13 13 13 13 13 13 14 14 13 14 14 15 14 14 14 13 13 13 12 11 11 11 13 12
14 12 11 11 11 12 12 13 13 13 13 13 13 13 13 13 13 12 12 12 12 12 12 12 12 12 13 13 12 13 13 14 13 13 13 13 12 12 12 11 12 12 11
12 12 12 10 11 11 11 12 12 12 12 12 12 12 12 11 11 11 11 11 11 11 11 11 11 11 12 12 12 11 12 12 12 12 12 12 11 11 11 10 10 11 10
11 11 10 10 10 11 12 12 12 11 10 10 10 10 10 10 10 9 9 9 9 9 9 9 10 10 10 10 10 10 11 11 11 10 10 10 10 9 9 8 8 8 9
9 10 10 9 10 11 11 11 11 11 10 10 9 9 9 8 8 8 8 8 8 8 8 8 8 9 9 9 9 9 9 9 8 8 8 8 7 7 8 8 8 7 7
10 10 9 9 10 10 10 10 10 10 9 9 8 8 8 8 7 7 7 7 7 7 7 7 7 7 7 8 8 8 7 6 6 6 6 6 6 6 7 6 6 5 5
10 9 8 8 8 9 9 9 9 9 8 8 7 7 6 6 6 6 5 5 5 5 5 5 5 5 5 5 5 6 5 5 5 4 5 4 4 4 4 4 4 4 4
9 9 8 8 7 8 8 8 8 8 7 7 6 6 5 5 5 4 4 4 4 4 4 4 4 4 3 3 3 3 3 3 3 3 3 2 2 1 2 3 2 3 2
10 9 8 7 7 8 8 8 7 7 7 6 5 5 4 3 2 3 2 2 2 2 2 1 2 2 2 1 1 2 2 2 1 1 1 1 1 1 1 1 2 2 2
9 9 8 8 7 7 7 7 7 6 6 5 4 4 3 3 3 2 2 2 1 1 1 1 0 -0 0 1 1 1 1 1 1 1 1 1 0 0 0 0 0 0 1
10 9 8 8 7 7 7 7 6 6 5 5 4 3 2 2 2 2 1 1 1 1 1 1 0 0 -0 -0 1 1 0 -0 -1 -0 -0 0 0 -0 -1 -1 -1 -1 -1
11 10 9 8 8 8 8 7 6 5 5 4 3 2 2 2 1 1 1 1 1 1 1 1 0 -0 -0 -1 0 1 1 0 -0 -1 -1 -1 -1 -1 -1 -1 -1 -2 -2
10 10 9 9 9 9 8 7 6 5 4 3 3 2 2 2 1 1 1 0 0 1 0 -0 -0 -0 -1 -0 -0 -0 -0 -1 -1 -1 -2 -2 -2 -2 -2 -2 -2 -2 -3
10 10 11 10 9 8 7 6 5 4 3 3 2 2 2 1 1 0 0 0 0 0 -0 -0 -1 -1 -1 -1 -1 -1 -1 -1 -2 -2 -2 -2 -2 -2 -3 -2 -3 -3 -3
10 9 9 9 8 7 6 5 4 3 3 3 2 2 1 1 0 0 -0 -0 -0 -0 -0 -1 -1 -1 -1 -2 -1 -1 -1 -2 -2 -2 -2 -3 -3 -2 -3 -3 -3 -3 -4
7 7 7 7 7 6 5 4 4 3 3 3 2 1 1 1 0 -0 -0 -1 -1 -1 -1 -1 -1 -1 -1 -1 -2 -1 -1 -1 -2 -2 -2 -3 -3 -3 -3 -3 -3 -4 -4
5 6 6 6 6 6 5 4 3 4 3 2 1 1 1 0 -0 -0 -1 -1 -1 -1 -1 -1 -1 -1 -1 -1 -1 -2 -2 -1 -2 -2 -3 -3 -4 -4 -4 -4 -3 -4 -4
6 6 6 5 5 5 5 4 4 3 2 1 1 1 0 0 -0 -1 -1 -2 -2 -1 -1 -1 -1 -0 -0 -1 -1 -1 -2 -2 -2 -2 -3 -3 -3 -3 -3 -4 -4 -4 -4
6 6 5 5 4 5 4 4 4 3 2 1 1 0 0 -0 -0 -0 -1 -1 -1 -1 -1 -1 -0 -0 -0 -0 -1 -1 -1 -2 -2 -3 -3 -4 -4 -4 -4 -4 -4 -5 -5
6 6 6 6 5 5 4 4 3 3 2 1 1 0 0 -0 -0 -0 -1 -1 -0 0 0 1 1 0 0 1 0 -0 -1 -2 -2 -3 -4 -4 -4 -4 -5 -5 -5 -5 -5
6 5 5 5 5 5 4 4 3 3 2 1 1 0 0 -0 -0 -0 -1 -1 -0 0 0 0 0 1 0 0 0 -1 -2 -3 -3 -3 -4 -4 -4 -4 -5 -5 -5 -6 -6

GFSMW_925_temp_078.txt.gz
Temp
21 20 19 19 18 19 19 19 19 20 20 19 19 19 19 19 19 19 18 18 18 18 18 18 18 18 18 18 18 18 17 17 18 17 18 19 18 18 19 18 19 19 17
21 21 20 19 18 20 19 19 19 19 19 19 19 19 19 19 20 18 18 18 17 17 17 17 17 17 17 17 17 17 17 16 17 17 17 18 20 20 18 18 17 17 16
21 21 21 20 18 18 17 17 17 17 17 17 16 17 17 17 17 17 17 16 17 17 16 16 16 16 16 16 16 16 16 16 16 15 17 17 19 18 17 17 17 16 16
20 19 18 19 18 17 15 16 15 16 17 17 17 17 18 19 17 16 16 16 16 16 16 16 15 14 14 15 15 15 15 15 15 15 15 15 14 15 15 16 16 15 15
22 20 18 17 16 14 14 14 14 15 16 16 16 16 16 15 15 15 14 14 15 15 15 15 15 15 14 13 13 14 14 14 14 14 14 14 13 12 13 14 16 14 15
20 20 19 16 15 13 13 13 14 13 14 15 15 15 15 15 14 14 14 13 12 12 13 13 13 13 13 13 12 13 13 14 14 14 14 14 14 14 13 12 13 13 14
21 21 18 15 14 13 13 13 13 13 13 14 13 13 13 13 13 12 12 12 12 11 11 12 12 12 13 13 12 12 13 13 13 14 13 13 13 12 12 12 13 12 12
22 21 19 16 15 13 13 13 13 12 12 12 12 12 11 11 11 10 10 10 10 9 10 11 11 11 11 11 11 11 11 12 12 12 12 12 12 12 11 11 10 11 11
17 16 17 16 14 13 13 13 12 11 11 10 10 10 10 10 9 10 10 9 9 9 9 9 9 10 10 10 10 9 10 10 11 11 10 10 10 9 9 9 8 9 10
16 15 15 14 14 13 12 12 11 11 10 10 9 9 9 9 9 9 8 8 8 8 8 8 8 9 9 9 8 8 8 8 8 8 8 8 7 7 7 7 7 7 8
15 14 14 13 12 12 11 11 11 10 9 9 8 8 7 8 7 6 7 6 6 6 6 7 7 7 7 7 6 6 6 7 6 6 6 5 6 6 6 6 6 6 5
15 15 14 12 11 11 11 11 10 10 9 8 7 6 6 6 5 5 5 5 4 4 4 5 4 4 5 4 5 5 5 5 5 4 5 4 4 4 4 4 4 4 4
14 14 14 13 13 12 11 10 10 9 8 7 7 6 5 5 5 4 3 3 3 3 3 3 3 3 3 3 3 3 3 4 4 3 3 3 3 3 2 2 3 3 3
14 15 14 14 13 12 11 11 10 8 7 7 6 6 5 5 4 3 2 2 2 3 3 2 2 2 1 2 2 2 2 1 1 1 2 2 2 2 2 2 2 2 3
15 15 14 14 13 12 11 10 9 8 7 6 6 5 5 4 4 3 2 2 2 2 2 2 1 1 1 1 2 1 1 1 1 0 0 0 0 0 0 1 1 1 2
16 15 15 14 13 12 11 9 8 7 6 6 5 5 4 4 3 2 2 2 1 1 1 1 1 1 0 0 1 1 0 0 0 0 0 -0 0 -1 -1 -1 -1 -0 1
17 16 15 14 13 12 11 9 8 7 6 6 5 4 4 3 2 2 1 1 1 1 1 1 1 0 -0 -1 1 1 0 0 0 -0 -1 -1 -1 -1 -1 -1 -1 -2 -2
17 16 15 14 13 12 10 9 8 6 5 5 4 4 3 2 1 1 1 1 1 1 1 0 -0 0 -1 -0 1 1 1 0 -0 -1 -1 -1 -1 -2 -2 -1 -2 -2 -2
16 16 15 14 12 11 9 8 6 6 5 5 4 3 3 2 1 1 0 0 0 0 -0 -1 -1 -1 -1 0 0 -0 -1 -1 -1 -2 -2 -1 -1 -2 -2 -2 -2 -2 -2
14 13 12 11 11 9 8 7 6 6 5 5 4 3 2 2 1 1 0 0 -0 0 0 -0 -0 -1 -1 -1 -0 -1 -1 -1 -1 -2 -2 -2 -2 -2 -2 -2 -2 -2 -2
10 9 9 10 9 7 7 7 6 5 5 4 3 2 2 1 1 0 -0 -0 -0 -0 -1 -1 -1 -1 -1 -1 -1 -1 -1 -1 -1 -1 -1 -2 -3 -3 -2 -3 -2 -2 -3
8 8 9 8 6 6 6 6 5 4 3 3 2 2 1 1 0 0 -0 -1 -1 -1 -1 -1 -1 -1 -1 -1 -1 -2 -1 -1 -1 -1 -2 -2 -3 -3 -3 -3 -3 -3 -3
8 7 8 7 5 5 5 5 4 3 3 3 2 1 1 0 0 -0 -1 -1 -1 -1 -0 -0 0 -0 -1 -1 -1 -1 -2 -1 -2 -2 -2 -3 -2 -3 -3 -3 -4 -4 -4
9 8 7 7 6 5 4 5 4 4 3 3 2 1 0 -0 -0 -1 -1 -1 -1 -1 -0 -0 -0 0 -1 -1 -2 -1 -2 -2 -2 -2 -3 -3 -3 -3 -3 -3 -4 -4 -4
7 7 6 6 6 5 4 4 4 3 2 3 2 1 0 0 -1 -1 -1 -1 -0 -0 0 0 0 0 -0 -0 0 0 -1 -2 -2 -3 -3 -3 -3 -3 -3 -4 -4 -5 -5
7 7 6 5 5 5 5 4 4 3 2 2 2 1 0 0 -0 -1 -1 -1 -1 0 0 0 0 1 1 1 1 0 -0 -1 -2 -3 -3 -2 -3 -3 -3 -4 -4 -4 -5

GFSMW_925_temp_084.txt.gz
Temp
21 22 21 22 21 22 22 21 21 21 21 21 21 21 21 21 21 22 22 21 21 20 20 20 20 20 19 20 19 19 19 19 19 18 18 18 18 19 19 19 19 19 18
19 21 21 21 21 21 21 21 21 21 21 21 21 21 21 21 21 21 21 21 20 20 20 19 19 19 19 19 18 18 17 18 18 17 17 16 18 19 19 19 19 18 18
21 19 21 21 21 21 21 20 21 21 21 21 20 20 20 20 20 20 19 19 19 19 19 18 18 18 17 17 17 17 16 16 17 17 17 15 15 16 18 18 18 18 17
23 20 20 21 21 21 20 20 20 19 19 19 19 20 19 19 19 19 19 18 17 17 16 16 16 15 15 15 15 15 16 15 15 16 16 16 16 14 15 17 17 17 16
20 21 19 21 21 20 19 18 18 18 18 18 18 18 18 19 18 18 17 16 16 16 15 15 15 14 14 14 14 14 14 14 14 14 15 15 15 16 15 14 15 16 16
20 20 19 20 19 19 18 17 17 17 17 17 17 18 18 18 17 16 16 15 14 14 14 13 13 13 13 13 13 13 12 13 13 13 14 14 14 14 13 13 13 13 14
19 20 16 17 16 16 17 16 16 16 16 16 16 16 16 16 16 15 15 14 14 13 12 12 12 12 12 12 12 12 12 12 13 13 13 14 14 14 13 13 13 13 13
18 19 16 17 16 15 15 15 16 15 15 15 15 15 15 15 14 14 13 13 13 12 11 11 11 11 11 11 11 11 11 12 11 11 12 12 13 13 12 12 12 11 11
19 18 17 17 16 15 14 15 15 15 14 14 14 13 13 13 12 12 12 11 11 11 10 10 10 9 10 10 10 10 10 10 10 10 10 10 10 10 11 10 10 11 9
20 16 16 17 16 15 14 14 14 14 13 13 12 12 12 12 11 10 10 10 9 9 9 9 9 8 9 8 9 8 8 8 8 9 9 9 9 9 9 9 9 9 9
17 16 16 17 16 15 15 14 14 13 12 12 11 11 11 11 10 10 10 10 9 9 8 8 7 7 7 7 7 7 7 8 7 8 8 8 7 7 7 7 7 7 7
16 15 15 15 15 14 14 14 13 13 12 12 11 10 10 10 9 9 8 8 7 7 7 7 6 6 6 6 6 6 6 6 6 6 6 6 6 6 6 6 6 6 5
16 14 13 13 14 13 13 13 12 12 11 11 10 10 9 8 8 8 7 7 6 6 5 5 5 5 5 5 5 5 5 5 5 5 5 5 4 4 4 4 4 4 4
15 14 12 12 13 13 13 13 12 12 11 10 10 9 8 8 7 7 6 6 5 5 4 4 4 4 3 3 3 4 4 4 4 3 3 3 3 2 2 2 3 3 4
15 14 13 11 13 13 13 12 12 11 10 10 9 9 8 8 7 6 5 5 4 4 4 3 3 2 2 2 3 3 2 2 2 2 2 2 2 1 1 2 2 3 3
17 14 13 13 14 14 13 13 12 11 10 9 9 8 8 7 6 5 4 4 3 3 3 3 3 2 1 2 2 2 1 1 1 1 1 0 0 -0 0 0 1 2 2
16 15 13 14 15 15 14 13 12 10 9 9 8 8 7 6 6 5 4 3 3 3 2 2 2 1 1 1 1 1 1 1 1 1 0 0 -0 -0 0 -0 -0 -1 -0
16 15 14 15 16 15 14 13 12 10 9 8 8 7 7 6 5 4 3 2 2 2 2 1 1 1 0 -0 -0 1 1 1 0 0 0 0 -0 -0 -0 -0 -1 -1 -0
14 15 16 16 17 16 14 13 11 10 9 8 8 7 6 5 4 3 2 2 2 1 1 1 1 1 0 -1 0 1 1 0 0 -0 -0 -0 -0 -1 -1 -1 -1 -1 -1
13 14 15 16 16 15 14 12 11 9 8 8 7 7 6 5 4 2 1 1 1 1 0 0 0 0 0 -0 0 -0 -0 -0 -0 -1 -0 -0 -1 -1 -1 -1 -1 -1 -2
11 12 14 14 14 14 13 11 10 9 8 8 7 6 5 4 4 2 1 1 1 0 0 0 0 0 0 0 -0 0 -0 0 0 -0 -1 -1 -1 -1 -2 -1 -1 -2 -2
10 11 10 10 11 11 11 10 9 9 8 7 6 5 4 4 3 2 1 1 0 -0 -0 -0 -0 0 0 0 -0 -0 0 -0 -0 -0 -1 -1 -1 -2 -2 -2 -2 -2 -2
9 9 9 8 9 9 9 8 7 7 7 6 5 4 3 2 1 1 1 0 -0 -1 -0 -0 0 0 0 0 -0 -1 -1 -1 -0 -1 -1 -1 -1 -1 -2 -2 -2 -3 -2
9 9 8 7 7 7 8 8 7 6 6 5 4 3 3 2 1 1 1 0 -0 -1 -0 1 0 1 1 0 0 0 -0 -1 -1 -1 -1 -1 -2 -2 -2 -2 -2 -2 -2
9 9 9 8 7 7 7 6 6 5 5 4 4 3 2 1 1 1 1 0 0 0 0 1 1 1 1 1 1 1 1 0 -0 -1 -2 -2 -2 -2 -2 -2 -2 -3 -3
7 8 8 7 7 6 6 6 5 5 4 4 4 3 2 1 1 0 0 -0 0 0 0 1 1 1 1 1 1 1 0 -0 -1 -1 -2 -2 -2 -2 -2 -2 -2 -2 -3

GFSMW_925_temp_087.txt.gz
Temp
19 22 22 21 20 21 21 20 20 20 19 19 20 20 20 21 21 21 21 21 21 20 20 20 20 19 19 19 19 19 19 19 18 18 19 19 18 19 19 19 19 18 18
17 19 21 22 22 21 21 21 20 20 20 21 21 21 21 21 21 21 21 21 20 20 20 19 19 19 19 19 19 18 18 18 18 18 17 15 17 18 18 19 18 17 17
17 17 18 21 21 21 20 21 21 21 21 21 21 21 20 20 21 20 20 20 20 21 20 19 19 19 18 18 18 17 17 16 18 18 17 15 14 15 17 18 17 17 17
17 17 18 19 21 21 20 20 20 21 21 21 20 21 21 21 20 20 20 19 19 19 18 18 17 17 17 16 16 16 16 16 15 16 16 15 15 15 14 16 16 16 16
17 17 17 19 21 21 20 20 19 19 19 20 21 20 20 19 19 18 18 18 18 17 17 16 16 16 15 15 14 14 14 14 14 14 14 15 15 15 13 13 15 15 14
17 16 19 20 20 20 20 20 19 18 17 17 18 18 19 18 18 17 17 17 16 15 15 15 14 14 13 13 13 13 13 13 13 13 14 14 14 14 13 12 13 14 11
16 16 14 16 16 16 18 19 18 17 17 17 17 18 18 18 18 17 16 15 14 13 13 13 13 13 13 12 12 12 12 12 12 13 13 13 13 13 13 14 13 12 12
15 15 14 15 16 16 16 16 16 16 16 16 17 17 17 17 16 15 15 14 13 13 12 12 12 12 11 11 11 11 11 11 11 12 11 12 12 12 12 12 12 11 11
17 15 14 15 16 16 16 16 15 15 15 15 15 15 15 15 15 14 14 13 13 12 12 12 11 11 11 11 10 10 10 10 10 10 10 10 11 10 11 10 11 11 10
15 14 13 14 15 16 15 15 15 15 14 14 14 14 13 13 13 12 12 12 12 11 10 10 10 10 9 9 9 9 9 9 9 9 8 9 9 9 9 9 9 10 10
14 14 13 14 14 15 15 14 14 14 14 13 13 13 12 11 11 11 11 10 9 9 9 9 8 8 8 8 8 8 8 8 8 7 7 8 8 8 8 8 8 8 8
14 13 13 14 14 14 14 14 14 13 13 13 12 13 13 12 12 10 9 8 8 8 8 7 7 7 6 6 6 7 7 7 7 6 6 6 6 6 6 7 7 7 7
14 12 11 11 12 13 13 13 13 12 11 11 12 12 11 10 9 9 8 8 8 7 6 6 6 6 6 5 5 5 5 6 6 6 6 5 5 5 5 5 5 4 4
13 11 10 10 12 12 13 12 12 12 12 11 10 9 9 9 8 8 8 8 6 6 5 5 5 4 4 4 4 4 4 4 4 4 4 4 4 4 3 3 3 3 4
12 11 10 9 11 12 12 12 12 11 11 10 9 10 9 8 8 8 7 6 5 5 4 4 4 3 2 2 3 3 3 3 3 3 3 3 2 2 2 2 3 3 3
13 12 12 10 11 12 12 12 12 11 11 10 10 9 8 8 7 7 6 5 5 4 4 3 3 3 2 2 2 2 2 2 2 2 1 1 1 0 0 1 2 2 2
13 13 11 11 11 12 12 12 12 11 10 10 9 8 8 7 7 6 5 4 4 3 3 3 2 2 2 2 2 2 2 1 1 1 1 0 0 0 0 -0 -0 -0 0
12 12 12 13 13 13 13 12 12 11 10 9 9 8 8 7 6 5 4 4 3 3 3 2 2 1 1 1 1 1 1 1 1 1 0 0 0 0 0 -0 -0 -0 0
9 10 14 15 14 14 13 13 11 10 10 9 8 8 7 6 5 4 3 2 2 2 2 2 1 1 1 -0 -0 1 1 0 0 -0 -0 0 -0 -1 -0 -0 -0 -1 -1
9 10 12 14 14 14 13 11 10 9 9 9 8 8 7 6 5 4 3 2 2 2 2 1 1 1 1 -1 -1 0 0 0 -0 -0 -0 -0 -0 -1 -1 -1 -1 -1 -1
9 10 10 10 12 13 12 10 9 8 10 9 8 7 6 6 5 4 3 1 1 1 1 0 1 0 1 0 -0 -0 0 0 -0 -0 -0 -1 -1 -1 -1 -1 -1 -1 -1
8 8 8 8 9 10 11 9 9 9 9 8 7 7 6 5 4 3 3 1 1 0 0 -0 -0 0 0 0 -0 -0 -0 0 0 0 -0 -0 -1 -1 -2 -2 -2 -2 -2
8 8 8 8 8 10 11 9 9 8 8 7 6 6 5 4 4 3 2 1 0 -0 -0 -1 -0 0 0 0 0 -0 -0 -0 0 0 -0 -0 -1 -1 -2 -2 -2 -2 -2
8 8 8 7 7 8 8 8 8 8 7 6 5 5 4 3 3 2 1 0 -0 -0 -1 -1 -0 0 0 0 0 -0 -0 -0 -1 -0 -1 -1 -1 -1 -1 -2 -2 -2 -2
8 8 8 7 7 7 7 7 7 6 6 5 5 4 3 2 2 1 1 0 1 1 0 0 1 0 0 1 1 1 0 0 -0 -1 -1 -2 -2 -2 -2 -2 -2 -2 -2
8 8 7 7 7 7 6 6 6 5 5 4 4 4 3 2 2 1 1 0 1 1 1 1 1 1 1 1 1 1 1 1 -0 -2 -2 -2 -2 -2 -1 -2 -2 -2 -2

GFSMW_925_temp_090.txt.gz
Temp
18 18 20 19 19 20 20 20 20 20 20 19 20 20 20 20 21 21 21 21 21 20 20 20 19 19 19 19 19 19 18 18 18 18 19 18 19 19 19 18 18 18 17
18 18 18 19 19 20 20 19 20 20 20 20 20 20 20 20 21 21 20 20 20 20 20 19 19 19 19 19 18 18 18 18 19 18 18 15 16 18 17 18 18 17 17
17 17 17 19 19 19 20 20 20 20 20 19 19 20 20 20 20 20 20 20 20 20 19 19 19 19 19 19 18 18 17 17 18 17 17 15 14 14 17 17 17 16 16
16 16 17 18 19 20 21 21 21 21 21 20 19 20 20 19 20 20 20 18 18 19 19 19 18 18 18 18 17 16 16 15 15 15 16 15 15 15 14 16 15 15 15
14 16 16 20 21 20 20 20 20 20 20 20 20 20 21 20 20 20 19 18 18 18 18 18 17 17 16 16 15 15 14 14 14 14 14 14 15 14 14 14 14 13 12
14 14 18 19 20 20 19 19 19 19 19 20 20 20 20 20 19 18 18 17 16 17 17 17 16 16 15 15 14 14 14 13 13 13 13 13 13 14 12 12 12 12 9
14 14 14 15 17 18 18 17 18 18 17 17 17 17 18 18 18 17 16 16 16 16 16 15 15 14 14 13 13 13 13 13 12 12 12 13 13 12 12 12 13 13 9
14 14 13 15 16 18 18 17 17 17 17 16 16 15 16 16 16 16 15 15 16 15 14 14 13 13 13 12 12 12 12 11 11 11 11 12 11 12 12 12 13 11 10
15 14 13 14 15 16 17 17 17 17 16 15 15 15 16 16 16 15 15 14 14 13 12 12 12 11 11 11 11 10 10 10 10 10 10 10 10 10 10 10 11 11 10
15 13 12 13 14 15 16 15 16 15 15 15 15 15 15 15 14 14 13 13 12 11 11 10 10 10 10 9 9 9 9 9 9 9 9 9 9 9 9 9 10 10 10
14 12 12 13 14 14 15 15 15 15 14 14 14 15 14 15 15 14 13 13 12 12 11 10 10 10 9 9 9 8 8 8 8 8 7 7 8 8 8 8 8 8 8
12 12 12 12 13 14 13 14 14 13 13 13 14 12 15 14 13 14 13 12 11 10 10 10 8 8 8 7 7 7 7 7 7 7 6 6 6 7 7 7 7 7 7
14 11 10 11 11 12 12 13 13 13 13 12 12 12 10 11 12 13 12 10 10 9 8 7 7 7 7 6 6 6 6 6 6 6 6 6 5 5 5 5 5 5 6
12 11 10 10 11 12 12 12 12 12 12 12 11 11 10 9 9 9 10 9 8 7 6 6 6 6 5 5 4 4 4 5 5 5 5 5 5 4 4 4 4 4 4
12 11 10 9 11 11 12 12 12 12 12 11 11 11 10 9 8 8 8 7 6 6 6 5 5 5 4 3 3 3 4 4 4 4 4 3 3 3 3 3 3 3 3
12 11 10 10 10 11 12 12 12 11 11 11 11 10 9 8 8 7 7 6 6 5 5 4 4 3 3 3 2 2 3 3 2 2 2 2 1 1 1 2 2 2 3
12 11 11 11 12 12 12 11 11 11 10 11 10 9 9 8 7 7 6 6 5 4 4 4 3 3 2 2 2 2 2 2 2 1 1 1 1 0 0 0 0 0 1
10 10 9 11 13 13 12 12 11 11 10 10 9 9 8 7 7 6 5 5 4 4 3 3 2 2 2 2 2 2 1 1 1 1 1 1 1 0 0 0 0 0 0
8 9 9 10 12 12 12 12 11 10 10 9 9 8 8 7 6 5 5 4 3 3 3 3 2 2 2 1 1 1 1 1 0 0 0 0 0 -0 0 0 -0 -0 -1
8 8 10 10 11 13 11 11 10 9 9 9 9 9 8 7 6 6 4 3 2 2 2 2 1 1 1 0 -0 1 0 0 0 -0 -0 0 0 -1 -1 -0 -0 -1 -1
8 9 9 8 9 11 10 10 9 9 10 10 9 8 8 7 6 5 4 3 2 1 1 1 1 1 1 0 -0 -0 0 0 0 -0 -0 -0 -1 -1 -1 -0 -0 -0 -1
8 8 8 8 8 9 9 8 8 9 9 9 9 8 7 6 5 4 3 3 2 1 1 0 0 0 0 0 -0 -0 -0 0 0 0 0 0 -1 -1 -1 -1 -1 -1 -1
8 8 8 7 8 8 8 7 7 9 9 8 8 7 6 5 5 4 3 2 1 1 0 -0 -0 0 0 0 -0 0 0 -0 0 0 0 0 -1 -1 -1 -2 -2 -2 -2
7 7 7 7 7 8 9 9 9 9 9 8 7 6 5 4 4 3 3 2 1 0 -0 -0 -0 0 0 0 0 -0 0 0 -0 -0 -0 -0 -1 -1 -1 -2 -2 -2 -2
8 7 7 6 6 7 8 8 8 7 7 6 6 5 4 4 3 3 2 2 1 1 0 0 1 0 0 1 1 1 0 -0 -0 -1 -1 -2 -2 -2 -2 -2 -2 -2 -2
7 7 7 7 7 7 7 7 7 7 6 5 4 4 3 3 3 2 1 1 1 1 0 1 1 1 1 1 1 1 1 1 0 -1 -1 -1 -2 -2 -2 -2 -2 -2 -2

GFSMW_925_temp_093.txt.gz
Temp
17 17 18 18 18 19 19 20 20 20 20 19 20 20 19 21 19 21 21 20 21 20 20 19 19 19 19 19 19 19 19 19 18 18 18 18 19 18 18 18 18 18 17
17 17 18 18 17 19 19 21 20 20 20 20 20 19 19 20 20 20 20 20 20 20 20 19 19 19 19 19 19 18 18 19 19 18 17 14 16 17 17 17 17 17 16
16 16 17 18 18 18 18 19 19 19 20 21 19 18 18 19 19 19 19 19 19 19 19 18 18 18 18 18 19 18 18 18 17 17 17 14 13 13 17 16 16 15 15
15 16 16 17 19 19 19 20 21 21 21 21 19 18 18 18 19 20 20 20 20 20 20 19 18 17 17 17 18 17 17 16 15 15 16 15 15 14 13 15 14 14 14
13 15 15 18 20 21 20 19 18 21 21 21 21 20 17 19 19 19 19 18 17 17 18 18 17 16 16 16 17 16 15 14 14 14 14 14 14 14 13 12 12 12 12
13 13 16 18 19 20 20 20 19 18 20 21 20 20 20 19 18 17 16 15 14 15 16 16 16 16 16 16 16 15 14 14 13 13 13 12 13 12 12 11 13 12 9
13 13 13 14 17 18 20 20 19 18 18 18 19 20 20 18 17 16 15 13 14 14 15 15 15 15 15 14 14 13 13 13 12 12 12 12 12 12 12 13 12 11 8
12 12 12 14 16 17 18 19 18 17 17 17 16 16 17 17 16 16 15 13 13 13 14 14 14 13 13 13 12 12 12 11 11 11 11 11 11 11 11 11 12 11 9
14 14 12 13 15 17 17 18 17 16 16 15 15 15 15 14 15 15 15 15 13 13 14 13 13 13 12 11 12 11 11 10 10 10 10 10 10 10 10 10 10 11 11
13 12 11 12 13 13 14 15 16 16 15 15 15 15 14 14 13 15 14 13 13 13 12 13 12 12 12 12 11 11 10 10 9 9 9 9 9 9 9 9 9 9 9
13 11 11 12 12 13 14 14 15 15 14 14 14 14 14 14 14 15 15 15 14 13 13 13 11 11 10 10 9 9 9 8 8 8 7 8 8 7 8 8 8 8 8
12 10 10 11 11 12 13 14 14 14 14 13 13 13 13 12 13 13 15 15 15 14 14 11 10 9 9 9 8 7 7 7 7 7 7 7 6 7 7 6 7 7 7
12 11 10 10 11 12 13 13 13 14 13 13 13 12 12 12 12 11 11 11 11 11 10 10 10 8 8 7 7 6 6 6 6 6 6 6 6 6 6 5 5 5 6
12 11 10 10 12 12 12 13 13 13 13 13 12 12 11 12 11 11 11 10 9 10 8 8 8 7 6 5 5 5 5 5 5 5 5 5 5 5 4 4 4 4 4
12 11 10 9 10 11 11 12 12 12 12 12 12 11 11 11 11 10 10 9 8 7 7 7 6 5 5 4 4 3 3 4 4 4 4 4 4 3 3 3 3 3 3
12 11 10 9 10 11 12 11 11 11 11 11 11 11 10 10 10 9 8 7 6 6 6 5 5 4 4 3 3 3 3 3 3 3 2 2 2 2 2 2 2 3 3
10 10 9 9 11 12 13 12 12 11 11 10 10 10 9 9 8 8 7 6 6 5 5 4 4 3 3 3 3 2 2 2 2 2 2 1 1 1 1 0 1 1 2
10 9 9 9 11 11 12 12 11 11 10 10 10 9 9 8 7 7 6 6 5 4 4 4 3 3 3 3 2 2 2 2 1 1 1 1 1 1 0 0 1 1 1
8 8 9 9 10 10 11 10 10 10 9 9 9 9 8 8 7 6 6 5 4 4 4 3 3 3 3 2 1 1 1 1 1 1 1 1 1 0 -0 -0 0 -0 -1
9 8 9 8 8 10 10 9 9 8 8 10 9 9 9 8 7 6 5 5 4 4 3 3 2 2 2 2 1 0 1 1 0 0 0 -0 0 -0 -1 -0 -0 -1 -1
9 9 8 8 8 9 8 8 8 7 11 10 10 9 8 8 7 7 5 5 4 3 2 2 2 2 1 1 0 -0 1 0 0 0 -0 -0 -1 -1 -1 -0 -0 -0 -1
8 9 7 8 8 8 7 7 7 10 8 9 9 9 8 7 7 6 5 4 3 2 1 1 1 1 1 1 0 -0 -0 0 0 0 0 0 -0 -1 -1 -1 -1 -1 -1
8 8 7 7 8 8 8 7 7 7 8 8 8 8 7 7 6 5 4 3 2 2 1 0 0 0 1 0 -0 0 0 -0 -0 0 0 0 -0 -1 -1 -1 -1 -1 -2
8 8 7 6 6 7 7 7 7 7 8 7 7 7 6 5 5 5 4 3 2 1 1 0 -0 0 1 0 0 0 0 0 0 -0 -0 -0 -0 -1 -1 -1 -2 -2 -2
8 7 7 6 7 7 6 7 7 7 7 7 6 5 5 4 4 4 4 3 3 2 1 1 1 1 0 1 1 1 1 0 0 -0 -1 -1 -1 -1 -2 -2 -2 -2 -2
7 7 7 6 6 6 6 6 7 7 7 6 5 5 4 4 3 3 2 2 2 2 1 1 1 1 1 1 1 1 1 1 0 -1 -1 -1 -1 -1 -1 -1 -1 -1 -2

GFSMW_925_temp_096.txt.gz
Temp
16 16 17 20 21 18 18 19 19 20 19 18 18 19 21 19 19 19 20 20 20 20 20 19 19 19 19 19 19 18 19 19 19 18 18 18 18 18 18 17 17 17 17
17 16 16 16 18 19 19 19 19 20 19 19 20 18 18 18 19 19 19 20 20 20 20 19 19 19 19 19 19 19 19 19 19 18 17 13 16 16 16 16 17 17 16
16 17 16 16 16 17 18 18 19 19 19 19 19 20 19 19 18 19 19 19 19 20 19 19 19 18 18 18 19 19 19 18 17 17 17 15 13 13 15 15 14 15 16
15 15 16 17 16 17 17 20 20 20 20 20 20 19 19 17 18 20 20 18 18 17 17 18 17 19 19 18 18 17 17 17 16 16 15 15 15 14 14 13 13 13 13
14 15 15 17 19 19 18 18 19 21 21 20 21 21 19 19 19 20 17 16 16 16 16 15 15 17 16 17 15 15 15 15 14 14 13 14 14 13 12 11 11 12 11
13 13 16 17 18 19 19 20 19 19 20 20 20 20 21 20 20 16 16 14 14 14 14 14 16 14 14 15 15 15 15 14 13 13 12 12 12 12 11 10 11 11 9
13 13 13 14 17 18 18 18 19 20 19 17 18 18 19 19 18 16 15 15 14 13 12 13 13 12 14 14 14 13 13 13 13 12 12 11 11 11 11 11 11 11 9
12 12 12 13 15 17 18 18 18 18 18 17 17 16 16 17 16 15 15 15 14 15 14 14 12 12 14 13 13 13 13 13 12 12 11 11 10 10 10 10 10 10 9
12 13 12 13 14 15 17 16 16 16 16 16 16 16 15 15 15 14 15 14 15 15 14 14 14 13 13 14 12 12 11 11 10 10 10 10 10 9 9 9 9 10 10
11 10 10 11 12 13 14 15 15 15 16 16 15 15 15 14 14 14 13 14 14 14 13 13 14 13 13 12 12 11 10 10 10 9 9 9 9 8 8 8 8 8 9
10 10 9 11 12 12 13 13 14 15 15 15 15 15 14 13 13 13 13 13 14 14 14 15 14 13 12 11 11 10 10 9 8 8 8 8 7 7 8 7 7 8 8
11 10 10 11 11 12 12 13 13 14 14 14 14 14 13 13 12 12 12 12 12 12 12 11 10 9 9 9 9 8 8 8 7 7 7 6 7 7 7 7 7 6 7
12 11 10 10 10 11 11 12 13 13 14 13 13 12 12 12 12 12 11 11 10 10 10 10 10 9 8 8 7 8 7 6 6 6 6 6 6 6 6 6 6 5 5
11 10 10 9 11 11 11 11 12 12 12 12 12 12 12 12 12 12 12 12 10 10 9 9 8 8 8 8 6 5 5 5 5 5 5 5 5 5 5 5 4 4 4
12 11 10 9 10 11 12 12 12 12 12 11 11 11 11 11 11 10 10 10 10 9 8 9 8 8 7 6 5 4 4 3 4 4 4 4 4 4 4 3 3 3 3
11 10 9 9 10 11 11 12 12 12 11 11 11 11 10 10 10 9 9 9 8 8 8 8 7 6 5 5 4 3 3 3 3 3 3 3 3 2 2 2 2 2 2
10 10 9 9 10 11 11 11 12 11 11 11 10 10 10 9 9 8 8 8 8 7 7 6 5 5 4 4 4 3 3 3 2 2 2 2 1 1 1 1 1 1 2
10 9 9 9 10 10 11 10 11 10 10 10 10 10 9 8 8 8 7 7 7 6 6 5 5 4 4 3 3 3 3 2 2 2 2 1 1 1 1 1 1 1 1
8 8 9 9 9 9 10 9 9 9 8 9 9 9 9 8 7 7 7 6 6 5 5 5 4 3 3 2 2 2 2 2 1 1 1 1 1 1 -0 0 0 -0 -0
8 8 9 9 9 10 8 8 8 8 7 8 9 9 9 8 7 7 6 6 5 5 4 3 3 2 2 2 1 1 1 1 1 0 0 0 0 0 -1 -0 -0 -0 -1
9 9 9 8 9 9 8 7 7 6 9 8 8 9 9 8 8 7 6 6 5 4 3 2 2 2 2 2 1 1 1 1 0 0 0 0 -0 -0 -0 -1 -0 -0 -0
7 8 7 8 9 8 7 6 6 9 7 7 8 8 8 8 7 7 6 5 4 3 2 2 2 2 2 1 1 0 0 1 1 1 0 0 -0 -1 -1 -1 -1 -1 -1
7 7 7 7 8 8 7 6 8 7 7 7 7 7 7 7 7 6 5 3 3 2 2 2 1 1 1 1 1 0 0 -0 0 0 0 0 0 -0 -1 -1 -1 -1 -2
6 7 6 5 6 8 7 7 7 6 6 6 6 5 5 5 5 5 4 3 2 2 2 1 1 1 1 1 1 0 0 1 0 0 -0 -0 -0 -0 -1 -1 -1 -2 -1
7 6 6 6 5 7 7 7 6 5 5 5 5 5 5 5 4 4 4 4 4 4 3 2 1 1 1 2 1 1 1 1 0 0 -0 -1 -1 -1 -1 -1 -1 -1 -2
6 5 6 6 6 6 6 6 6 5 5 4 4 4 4 4 4 4 3 3 3 3 2 2 2 2 2 1 1 1 1 1 0 -1 -1 -1 -1 -1 -1 -1 -1 -1 -1

GFSMW_925_temp_099.txt.gz
Temp
17 17 16 17 17 17 18 18 20 21 19 18 16 16 17 18 16 17 18 19 19 19 19 19 19 18 18 18 18 18 18 18 18 18 18 18 18 18 17 17 17 17 17
14 16 16 17 16 16 18 18 18 18 19 17 17 18 20 18 18 18 20 19 19 19 19 19 19 18 18 18 18 18 18 19 18 18 16 18 18 16 15 16 16 16 15
15 14 15 15 15 15 16 16 16 17 18 17 17 18 19 19 20 19 20 20 20 17 17 18 18 18 18 18 18 18 19 18 18 18 18 17 17 15 14 14 14 14 14
15 15 15 15 16 15 17 16 16 17 18 19 19 19 18 18 20 20 18 17 18 17 16 16 16 16 16 15 17 18 17 16 16 16 16 16 15 16 16 13 12 13 13
15 15 15 16 17 17 17 17 19 19 19 18 17 17 18 18 18 18 16 15 16 16 16 15 15 15 15 14 15 15 15 16 15 14 14 14 13 13 14 15 13 11 12
14 15 15 16 17 18 18 18 18 20 20 20 20 20 20 19 16 18 18 15 15 15 15 15 15 14 14 14 13 13 14 14 14 13 13 13 13 13 13 13 13 13 10
14 15 15 15 16 17 17 18 18 18 18 18 17 17 17 16 16 17 15 14 14 14 14 14 14 14 13 11 13 14 14 14 13 13 12 12 12 11 11 11 12 12 9
13 14 13 13 14 16 16 16 17 17 18 18 17 17 16 16 15 15 15 14 14 14 14 14 14 14 14 15 15 14 12 12 11 11 11 11 10 10 10 10 10 11 11
12 12 11 12 13 14 15 15 16 16 16 16 16 16 16 16 15 15 14 14 14 14 14 14 13 13 13 13 13 13 12 12 12 11 11 10 10 9 9 9 9 9 11
11 11 11 11 12 12 13 14 15 15 15 15 15 15 15 15 15 14 14 14 13 13 13 13 13 12 12 12 11 12 11 10 10 10 10 9 9 9 8 8 8 8 9
11 11 10 11 11 12 12 13 13 14 14 14 15 15 15 15 14 13 13 13 13 13 12 12 11 11 11 11 11 10 10 9 9 8 8 8 8 8 7 7 8 7 7
12 11 10 11 12 12 12 12 12 13 14 14 14 14 14 13 12 12 12 12 11 11 11 11 11 11 10 10 10 10 9 8 8 7 7 7 7 6 6 7 7 7 6
12 11 11 11 11 12 12 12 12 13 13 13 13 13 13 12 12 12 12 11 11 11 11 11 10 10 10 9 9 8 7 7 7 7 6 6 6 6 6 6 6 6 6
11 11 10 10 10 11 12 12 13 13 12 12 12 13 12 12 12 11 11 11 11 11 11 10 10 9 8 8 7 7 7 6 6 5 5 5 5 5 5 5 5 5 4
11 11 10 10 10 10 11 11 12 13 12 12 12 12 12 11 11 10 10 10 10 10 9 9 8 7 7 7 6 6 6 5 4 4 4 5 5 4 4 4 4 3 3
10 10 9 9 10 10 10 10 10 11 11 12 12 12 11 10 10 10 10 10 10 9 8 8 7 7 7 6 5 5 5 4 3 4 3 3 3 3 2 2 2 2 2
9 9 9 9 9 10 10 10 10 9 9 9 10 10 10 10 10 9 9 8 8 8 7 6 6 6 6 5 5 4 4 3 3 3 2 2 2 2 2 2 2 2 2
9 9 9 8 9 10 10 10 10 9 9 9 9 8 9 9 8 8 8 7 7 6 6 6 5 5 5 4 4 3 3 3 3 2 2 2 2 1 1 1 1 1 1
8 8 8 8 9 9 9 9 9 9 8 8 8 9 8 8 7 7 7 6 6 5 6 6 5 5 4 4 4 2 2 2 2 2 1 1 1 1 1 1 0 0 -0
7 7 7 7 7 9 8 7 8 8 8 9 8 8 8 7 7 7 7 6 6 6 5 5 4 4 4 3 2 2 2 1 1 1 1 1 1 1 -1 0 -0 -0 -1
5 6 6 6 6 7 8 6 7 6 9 8 8 7 7 8 8 7 7 6 5 5 4 4 3 3 3 3 2 2 1 1 1 1 1 0 -0 0 -0 -0 -0 -0 -0
5 5 5 5 6 6 6 5 5 8 8 7 6 6 7 7 7 7 6 5 4 3 2 2 2 2 2 2 2 1 1 1 1 1 1 1 0 -1 -0 -1 -0 -1 -1
6 6 6 5 5 6 6 5 7 7 7 6 6 6 6 5 6 6 5 4 3 2 1 1 1 2 2 2 2 1 1 1 1 1 1 1 0 -0 -0 -1 -1 -1 -1
4 4 4 5 6 6 6 5 6 7 6 5 5 5 4 4 5 5 5 3 2 2 2 1 1 2 1 2 2 1 1 0 0 0 0 0 0 -0 -0 -1 -1 -1 -1
3 3 4 4 5 6 6 6 6 6 5 4 4 4 3 3 3 3 3 2 3 4 3 2 2 1 1 2 2 2 1 1 1 0 -0 -1 -1 -1 -1 -1 -1 -1 -2
2 3 3 3 3 4 5 5 5 5 4 3 3 3 3 2 3 3 2 2 5 4 3 3 3 2 2 2 2 2 1 1 0 -0 -1 -1 -1 -1 -1 -1 -1 -1 -1

GFSMW_925_temp_102.txt.gz
Temp
19 18 15 16 17 17 16 16 16 16 17 18 17 17 17 17 17 17 18 18 18 18 18 18 19 18 18 19 19 19 19 19 19 19 20 20 19 18 18 17 17 16 16
16 15 14 14 15 15 16 17 16 18 17 17 18 17 17 17 17 17 18 18 18 18 17 18 18 18 18 19 19 18 18 19 19 20 20 20 20 19 16 16 16 15 15
15 14 14 14 15 15 15 16 17 18 20 16 16 17 18 17 17 17 18 18 18 18 17 16 16 16 17 18 18 18 18 19 18 18 20 20 20 19 18 16 15 15 14
14 14 16 15 15 15 16 17 18 17 18 17 16 17 18 18 19 18 18 18 18 19 19 17 16 16 16 15 16 15 16 17 17 16 17 17 17 18 19 16 15 14 14
16 15 13 13 15 16 16 16 16 15 16 15 16 16 16 16 18 19 19 18 17 17 17 17 15 15 15 14 13 14 15 15 15 15 15 15 15 16 17 18 18 14 13
16 16 16 15 15 14 15 15 15 16 16 18 17 16 16 16 18 18 17 16 16 15 15 15 15 15 15 15 15 15 14 13 13 14 14 15 17 17 16 17 17 16 15
18 18 18 17 17 16 15 15 15 15 15 15 17 16 16 19 18 18 17 16 14 14 14 14 15 14 15 15 15 15 13 13 14 13 13 13 13 14 14 14 15 14 14
17 16 16 16 16 15 15 16 16 16 16 16 15 15 16 17 15 15 15 14 14 14 14 14 14 14 15 15 15 14 14 13 13 13 12 11 12 12 12 12 12 13 14
16 16 15 14 14 14 14 15 15 16 16 16 16 15 15 15 15 15 14 14 13 13 13 13 13 13 13 12 12 11 12 12 12 12 11 10 10 10 10 10 10 11 12
17 16 16 14 14 13 13 13 14 15 15 15 15 15 15 14 14 14 14 13 12 13 13 12 12 12 11 11 11 11 11 11 11 11 10 9 9 9 9 9 9 9 10
17 17 16 15 14 14 13 13 13 13 14 14 14 14 14 13 13 12 12 13 13 12 12 11 10 11 11 11 11 11 11 11 11 10 9 8 8 8 8 7 7 8 8
17 17 16 16 15 14 14 13 13 13 13 13 14 14 13 13 13 12 11 12 11 11 10 10 10 9 10 10 10 10 10 10 9 9 8 7 7 7 7 7 7 7 6
17 17 17 16 15 14 14 13 13 13 12 12 12 12 12 12 11 11 12 12 11 10 10 10 9 9 9 9 8 8 9 8 8 7 7 7 7 7 7 7 7 6 6
16 15 16 15 15 14 13 13 13 12 11 11 11 12 12 11 11 11 11 10 10 10 10 9 9 9 10 9 9 8 7 7 6 5 6 6 6 7 6 5 5 5 5
14 14 14 15 14 14 14 13 13 12 11 11 11 11 11 10 10 9 9 9 9 9 9 9 8 8 8 8 7 7 6 6 5 5 5 4 5 5 5 4 4 4 4
13 14 14 14 14 13 13 12 12 12 11 10 11 11 10 9 9 9 9 8 8 8 8 7 7 7 7 8 7 6 5 5 5 4 3 4 4 4 4 3 3 3 3
12 13 13 13 12 12 12 12 12 11 11 11 11 10 9 9 9 8 8 8 7 7 7 7 6 6 6 6 5 5 5 4 4 3 3 2 3 3 2 2 2 2 2
11 12 11 11 11 11 11 11 10 10 10 10 10 10 9 9 8 8 7 7 7 6 6 5 5 5 5 5 4 4 4 4 4 3 3 3 2 2 2 1 1 1 1
9 9 9 9 9 9 9 10 9 10 10 9 10 9 9 9 8 7 7 6 6 6 5 5 5 5 4 5 4 3 3 2 2 2 2 2 2 2 2 1 0 1 0
7 7 7 7 8 8 8 8 9 9 9 9 9 9 8 8 8 7 6 6 5 5 5 5 4 4 4 4 3 3 3 3 2 1 1 1 1 1 0 1 1 1 0
7 7 7 7 7 7 7 7 8 8 8 8 8 7 7 7 8 7 6 5 4 4 3 3 3 3 4 3 3 3 2 3 2 1 1 1 1 1 -0 0 0 1 -0
5 5 5 5 6 6 6 7 7 7 7 7 7 7 6 6 6 6 5 4 3 3 2 2 2 3 3 3 2 2 2 1 1 1 1 1 1 0 -0 -0 -0 -0 -1
5 4 4 5 4 4 5 6 6 7 7 7 7 7 6 5 5 5 4 3 3 2 2 2 2 3 2 2 2 2 2 1 1 1 1 1 1 -0 -0 -0 -0 -1 -1
4 4 4 3 3 4 4 3 4 6 6 6 6 7 6 5 4 4 4 4 3 3 2 2 3 3 1 2 2 2 2 1 1 1 1 1 -0 -0 0 -0 -1 -1 -2
2 2 2 3 2 2 2 2 3 4 6 5 5 5 5 4 4 4 4 4 4 4 4 3 3 2 2 2 1 1 1 1 1 0 -0 -1 -1 -1 -1 -1 -1 -2 -2
1 2 2 1 1 1 1 2 3 4 4 5 5 4 4 4 3 3 2 3 3 3 3 4 4 3 4 3 3 2 1 1 0 -0 -0 -0 -0 -1 -1 -1 -1 -2 -2

GFSMW_925_temp_105.txt.gz
Temp
18 18 15 17 17 18 16 16 17 18 18 18 18 17 18 18 18 18 18 19 19 19 19 19 20 20 20 20 20 20 20 20 20 20 20 21 21 20 19 19 19 17 17
17 15 13 13 15 14 16 15 15 16 17 18 18 18 18 18 18 18 18 19 19 19 19 19 19 18 19 19 20 20 20 20 20 20 20 21 21 19 18 18 17 17 16
16 14 13 13 13 14 15 15 16 15 16 17 17 18 18 18 17 17 17 18 18 18 18 18 18 18 18 18 18 19 19 18 19 19 21 20 20 20 18 18 17 17 16
15 14 13 14 14 14 14 15 15 16 15 15 16 17 17 17 18 18 18 19 18 18 18 18 18 17 17 16 17 16 16 17 17 17 17 17 18 18 19 17 17 16 16
15 15 14 14 15 14 14 15 15 15 15 15 15 15 17 17 18 17 17 17 18 18 18 18 17 17 17 16 16 16 16 15 14 15 15 15 14 15 16 16 17 15 15
15 15 13 14 14 14 14 14 14 15 16 16 16 15 16 17 15 16 16 16 16 16 16 16 17 17 16 16 16 15 15 15 14 15 13 13 13 13 16 17 17 18 16
15 14 15 15 15 14 14 15 16 16 16 16 16 17 17 17 16 17 17 16 15 15 15 17 17 15 15 15 15 14 15 15 15 15 14 13 13 14 15 15 16 16 15
17 17 17 17 17 16 15 15 15 16 18 17 17 16 17 18 17 17 16 16 15 14 16 16 15 14 14 14 14 13 13 13 13 13 13 13 13 13 13 14 13 14 14
16 17 16 16 16 16 15 16 16 16 17 16 16 16 17 17 17 17 18 17 15 14 13 14 14 13 13 13 13 13 12 12 12 13 12 12 12 12 12 11 11 12 13
17 17 16 16 15 15 14 14 15 16 16 16 17 17 16 15 15 15 14 14 13 13 13 13 13 13 13 12 12 12 12 12 12 12 12 12 11 11 10 10 10 10 10
18 18 17 16 16 15 15 15 14 15 15 15 16 16 16 15 15 14 14 13 13 13 13 13 13 12 12 11 12 11 11 11 11 11 11 10 10 9 9 9 9 9 9
18 18 17 17 16 15 15 15 14 15 14 14 14 15 15 14 14 14 13 12 12 12 12 12 12 11 10 10 10 10 10 10 10 10 9 9 8 8 8 8 8 8 8
17 17 17 17 16 16 15 15 14 14 13 13 13 14 13 13 14 13 12 11 12 12 11 11 11 10 10 10 10 10 10 10 10 9 9 8 8 8 8 8 8 7 7
16 16 16 16 16 16 15 15 14 14 13 13 12 13 13 13 13 12 11 10 10 10 10 10 10 10 10 10 10 10 9 9 9 8 8 8 8 8 8 7 7 7 6
15 15 15 16 16 15 15 14 14 14 13 12 12 12 12 12 12 11 11 10 10 10 10 10 9 9 9 9 9 8 8 8 7 7 7 7 7 7 7 6 6 5 5
14 15 15 15 15 14 14 13 14 14 13 12 13 12 12 11 11 11 10 10 10 9 9 9 9 8 8 9 8 9 8 7 7 6 6 5 5 5 5 5 5 4 4
13 13 13 13 13 13 12 12 12 12 12 12 12 12 12 11 11 10 10 10 9 9 9 9 8 8 8 8 8 7 7 6 6 5 4 3 3 4 3 3 4 3 3
11 11 11 11 10 10 11 11 11 11 11 11 11 11 11 11 11 10 10 9 9 8 8 8 8 7 7 7 7 6 6 5 5 4 3 3 3 3 3 2 2 2 2
10 10 9 9 9 9 9 9 10 10 10 11 11 11 11 11 11 10 9 9 8 8 8 8 7 7 6 7 6 6 5 4 4 3 3 2 2 3 2 2 2 2 1
9 8 8 8 8 8 8 8 8 9 9 9 10 10 10 10 10 10 9 8 8 7 7 7 6 6 6 5 5 3 4 3 3 2 2 2 2 2 2 1 1 2 1
8 7 7 6 6 6 6 6 6 7 7 8 8 8 8 9 9 9 9 8 7 6 6 5 5 5 5 4 3 3 4 4 3 1 1 1 2 2 1 2 2 2 1
7 7 6 6 5 5 5 5 5 5 5 6 6 7 8 8 8 7 8 8 6 6 5 4 4 4 5 4 3 3 4 4 3 2 1 2 2 1 0 0 1 1 0
6 5 4 4 3 3 3 3 4 3 3 4 5 7 7 8 8 7 7 7 6 6 5 4 4 4 4 4 3 3 2 2 2 2 2 2 1 1 0 -0 -0 -0 -0
4 3 3 3 3 3 2 1 1 1 2 2 3 5 7 7 8 7 6 6 5 5 4 4 4 4 4 3 2 2 3 2 2 1 1 1 1 0 0 0 -1 -1 -1
3 3 2 2 2 1 0 1 0 0 1 3 3 4 6 6 7 6 5 5 5 5 5 4 4 4 3 3 2 2 2 2 2 1 0 -0 -0 -0 0 -0 -1 -1 -1
3 2 1 1 1 0 -0 -0 -0 -1 -0 1 3 4 5 5 5 4 4 4 5 5 5 5 5 4 3 3 2 2 2 2 1 0 -0 -0 -0 -0 -0 -1 -1 -1 -1

GFSMW_925_temp_108.txt.gz
Temp
17 17 17 16 16 16 16 17 15 14 15 19 19 19 19 18 19 19 19 19 19 19 19 19 19 20 20 19 19 19 20 20 20 20 21 21 21 20 20 19 18 18 17
16 14 13 14 14 14 15 15 15 15 16 19 19 18 18 19 19 18 19 19 19 19 19 19 19 20 19 19 19 20 20 20 20 19 19 17 19 19 19 18 18 17 16
15 14 13 13 13 14 14 15 15 15 17 18 19 19 18 18 18 18 18 18 19 19 19 19 19 18 18 18 19 18 18 19 19 19 18 16 16 17 18 17 17 17 16
14 14 13 13 14 13 14 15 15 15 15 16 16 16 18 19 18 19 18 18 18 18 19 19 19 19 18 18 18 18 17 18 16 16 16 17 17 15 16 17 17 17 16
14 14 13 14 15 14 14 14 14 15 15 14 16 16 16 16 17 17 17 18 17 17 18 18 18 18 18 18 18 17 17 17 16 15 14 15 16 15 14 14 15 16 16
14 14 14 14 14 14 13 13 14 14 14 15 15 16 16 16 16 16 16 17 17 17 17 18 18 17 17 17 18 17 16 18 15 15 15 15 14 13 13 13 15 15 15
13 13 13 13 14 14 14 13 13 14 15 14 17 16 15 16 15 15 17 17 17 17 17 16 16 16 16 15 16 16 15 16 15 14 15 14 15 15 14 15 14 14 14
12 13 14 14 15 15 14 14 14 15 15 15 16 15 15 16 15 16 16 16 16 16 17 15 15 15 15 14 15 16 14 14 14 14 14 14 14 14 15 15 14 12 13
13 14 14 14 15 15 15 14 14 14 15 15 16 16 16 15 15 16 16 16 16 17 16 16 15 14 14 16 15 14 13 13 13 13 13 13 14 14 13 13 13 13 11
14 14 13 14 15 15 15 15 15 15 16 16 16 16 16 16 17 17 18 18 17 17 16 14 14 13 14 15 13 13 13 12 12 12 13 13 12 12 12 12 12 11 11
14 14 14 15 15 15 14 14 14 15 15 15 15 16 16 16 15 15 15 15 15 15 14 13 13 13 13 13 12 12 12 12 12 11 11 11 11 11 11 10 10 10 10
14 14 14 15 15 14 14 14 14 14 14 14 14 14 15 15 14 15 14 13 13 13 13 12 12 13 12 12 12 12 12 11 11 11 10 10 10 10 10 9 9 9 9
14 13 13 13 14 15 15 14 14 13 13 13 13 14 14 14 14 14 13 12 12 12 12 12 11 11 11 11 11 12 12 11 11 11 11 10 9 9 9 8 8 8 8
13 13 12 12 14 14 14 14 14 13 13 13 13 12 13 13 13 13 13 12 11 11 11 11 11 11 11 11 10 11 11 10 10 10 10 10 9 9 8 8 8 8 7
12 12 11 11 13 13 13 12 13 13 13 13 12 12 13 13 12 12 12 11 11 11 11 10 10 10 10 10 10 10 10 10 9 9 8 8 8 8 8 8 7 7 6
11 11 11 11 10 11 11 11 11 11 11 12 12 12 12 12 12 12 11 11 10 11 10 10 10 10 9 9 9 10 10 9 9 9 8 8 7 7 7 7 6 6 5
10 10 9 9 9 9 9 9 9 9 10 10 11 11 11 11 12 11 11 10 10 10 10 10 10 9 9 9 9 9 9 9 9 8 7 6 6 6 6 5 5 5 4
9 8 8 8 9 9 9 9 9 8 8 8 8 9 10 11 11 11 11 10 10 10 9 9 9 9 9 9 8 8 8 8 7 7 6 6 5 4 4 4 4 4 3
8 8 8 7 7 7 7 6 6 6 6 7 7 8 8 9 9 10 10 10 10 9 9 9 9 9 8 8 8 7 7 7 6 5 5 4 4 4 3 3 3 2 2
8 7 7 7 6 6 6 5 5 5 5 5 6 6 7 7 7 8 8 9 9 9 9 8 8 8 8 7 7 6 6 6 5 4 4 3 3 3 2 2 2 2 1
7 7 6 5 5 4 3 3 4 4 5 4 4 4 5 5 5 7 7 8 9 8 8 8 7 7 7 7 6 6 5 6 4 4 3 3 3 2 2 2 2 2 1
6 5 4 3 3 3 3 3 3 3 2 2 2 2 3 4 5 6 7 7 7 7 6 6 5 6 6 6 5 5 5 5 5 4 3 3 2 2 1 1 2 1 1
5 4 3 3 2 3 2 1 1 1 1 1 1 1 2 3 3 5 7 7 7 7 6 5 5 4 5 5 5 4 4 4 4 4 4 3 2 2 1 1 1 1 1
4 3 3 2 2 2 1 1 0 -0 -0 -1 -0 0 2 3 3 5 6 6 6 6 6 5 5 4 4 4 4 4 4 3 4 3 2 2 1 1 1 0 0 0 0
4 3 2 2 2 1 1 0 -0 -1 -1 -2 -1 -1 1 3 4 4 5 6 6 6 6 5 5 4 4 4 4 3 3 2 3 2 2 1 0 -0 0 0 -0 -0 -1
4 3 2 2 1 0 0 -0 -1 -1 -2 -2 -1 -1 -0 1 2 4 5 5 6 6 5 5 4 4 5 4 3 3 3 2 2 1 -0 -1 -1 -1 -1 -0 -1 -1 -1

GFSMW_925_temp_111.txt.gz
Temp
16 16 16 16 16 17 17 16 15 16 15 16 16 16 18 19 20 20 19 19 19 19 19 19 19 19 19 19 19 19 19 19 20 19 20 20 20 20 20 19 19 18 18
16 15 14 13 14 15 16 16 15 15 15 15 15 16 17 19 19 19 19 19 19 19 19 19 19 19 19 19 19 19 19 19 19 19 18 17 18 19 18 19 19 17 17
14 13 13 13 13 14 15 14 15 14 14 15 15 15 17 19 19 18 18 19 19 19 19 19 19 19 19 19 19 19 19 18 18 18 17 15 15 16 17 17 18 17 16
13 14 13 13 14 13 14 15 15 13 14 15 15 16 18 18 19 19 18 18 18 18 18 18 18 19 19 19 19 19 18 18 18 17 17 16 15 15 15 16 17 16 16
13 13 13 14 14 13 13 13 14 14 15 15 16 16 16 16 16 17 18 18 18 18 18 18 18 18 18 18 18 18 18 18 16 16 14 14 15 15 14 14 15 15 15
14 13 13 14 13 13 13 14 14 14 14 14 15 15 15 15 15 15 15 16 17 18 17 17 17 17 17 17 17 18 18 17 17 16 15 16 14 12 13 12 13 14 14
14 13 13 13 13 13 13 13 13 14 14 14 14 14 15 14 14 14 15 15 15 16 16 16 16 16 17 16 17 16 17 16 15 15 15 15 15 14 15 15 14 13 13
12 11 11 12 13 13 13 13 13 13 14 14 15 14 15 15 14 15 14 14 15 15 16 15 15 16 16 16 15 15 16 15 15 14 15 15 14 14 15 14 13 12 12
11 11 12 13 13 14 14 14 14 14 14 14 14 15 14 14 14 15 16 15 15 15 15 15 16 16 16 15 15 14 14 14 14 15 14 14 14 14 14 14 14 14 11
12 12 13 13 13 13 14 14 15 15 15 15 16 16 16 15 15 15 15 15 15 16 15 15 14 14 15 14 14 14 13 13 14 13 13 13 13 13 13 13 13 13 13
13 13 13 13 13 13 13 13 13 14 14 14 15 15 15 15 15 15 14 14 14 15 15 14 13 13 13 13 13 12 13 13 13 13 12 13 13 13 12 12 12 12 11
13 12 12 12 13 13 13 13 13 13 13 13 13 13 14 14 14 15 15 15 15 14 14 13 13 13 13 13 12 12 12 12 12 12 12 12 12 12 11 11 11 11 10
12 11 11 10 11 12 12 12 12 12 13 13 12 13 13 13 13 13 13 13 13 13 13 13 12 12 12 12 12 12 13 12 12 12 12 12 11 11 10 10 10 9 9
10 10 10 9 10 10 10 10 11 11 11 11 12 12 12 12 12 13 13 13 12 12 12 12 12 12 12 11 11 11 11 11 11 11 11 11 11 11 10 9 9 8 8
10 9 9 8 8 8 8 9 9 9 10 10 10 11 11 11 11 12 12 12 12 12 11 11 11 11 11 11 11 11 11 10 10 10 10 10 10 10 10 9 8 8 7
9 8 8 7 7 7 8 8 8 8 8 8 8 9 9 10 10 11 11 11 11 11 10 10 11 11 10 11 10 11 10 10 10 9 9 9 9 8 8 8 8 8 7
8 7 6 6 6 7 6 6 6 6 6 6 6 7 7 8 8 9 10 10 10 10 10 10 9 10 10 10 10 10 9 9 8 9 9 8 8 8 8 7 7 7 6
7 6 5 5 5 5 5 5 5 5 5 5 5 5 5 6 6 7 8 8 9 10 10 10 10 9 9 9 10 9 8 8 8 8 9 8 7 7 7 6 6 6 5
6 6 7 7 6 5 5 4 4 4 4 4 4 4 4 4 4 5 6 6 7 7 8 9 9 9 9 9 8 8 7 7 7 8 8 8 7 7 6 5 5 4 4
7 7 7 6 5 4 4 4 3 3 3 3 3 3 3 2 2 3 4 4 5 6 7 7 8 9 9 9 8 7 6 6 6 7 7 7 7 6 5 5 4 3 3
7 6 5 4 4 3 3 3 3 3 3 2 2 2 2 1 1 2 3 3 4 5 6 6 7 7 8 8 8 7 6 5 5 5 5 5 5 4 4 4 4 4 3
5 4 3 3 3 2 2 2 2 1 1 1 1 1 0 0 1 1 2 3 3 4 5 6 5 6 6 7 7 8 7 5 5 4 4 4 4 4 3 2 3 3 2
4 4 3 2 2 2 1 1 1 0 -0 -0 -0 -1 -1 -1 -0 1 2 3 3 5 6 6 6 6 5 5 6 6 6 5 4 4 5 5 3 3 2 2 2 2 2
3 3 2 1 1 1 1 1 0 0 -1 -1 -1 -2 -1 -1 -0 0 2 3 3 4 6 6 6 6 4 4 4 5 4 4 3 3 4 4 2 1 1 1 1 1 1
3 3 2 1 1 1 0 0 -0 -0 -1 -1 -2 -2 -2 -1 -1 -0 0 1 2 4 5 5 6 5 5 4 4 4 4 4 3 2 2 1 1 0 0 0 1 1 1
3 2 2 1 1 1 0 -0 -1 -1 -2 -2 -2 -2 -2 -2 -1 -1 -1 -0 1 2 4 5 5 5 6 6 4 4 4 4 2 2 1 0 0 -0 -1 -1 -0 -0 -0

GFSMW_925_temp_114.txt.gz
Temp
13 15 15 16 16 17 17 16 16 17 15 15 15 14 15 15 16 16 18 18 17 18 18 18 19 18 18 18 19 19 19 19 19 19 19 19 19 19 19 19 19 18 18
13 14 14 14 14 14 16 15 16 17 16 16 15 15 15 15 17 17 17 18 17 18 19 19 19 19 19 19 19 19 18 19 19 19 18 16 18 18 18 18 18 18 17
12 14 13 14 14 13 14 15 15 15 14 15 15 15 15 15 15 16 18 19 19 19 19 19 19 19 19 19 19 19 19 18 18 18 18 15 15 15 16 16 16 17 17
13 13 13 13 13 13 13 14 15 15 16 15 13 15 16 16 16 17 18 19 19 19 19 19 18 18 18 18 18 18 18 18 17 17 17 18 17 14 14 16 15 15 16
12 12 13 14 13 13 13 13 14 14 15 14 13 13 14 14 15 16 17 18 18 18 18 18 18 18 18 18 17 15 15 18 17 16 14 14 14 15 14 13 13 14 15
12 12 13 14 13 13 13 13 13 13 14 13 14 14 13 14 15 15 16 16 16 18 18 18 19 19 18 16 16 16 16 17 17 18 17 16 14 13 13 12 13 14 14
12 13 13 12 12 13 13 13 13 14 14 13 13 14 14 14 14 14 15 15 15 16 16 18 17 18 18 16 16 16 16 16 16 17 16 16 16 16 15 14 13 12 12
11 11 10 10 10 12 12 13 13 14 13 14 14 13 13 14 14 14 14 14 15 15 15 15 15 17 14 15 16 16 16 16 16 16 15 15 15 15 15 14 12 11 11
10 10 10 10 11 12 11 12 13 13 13 13 14 14 13 13 14 14 14 14 14 15 16 16 14 15 15 15 14 14 15 16 15 15 14 14 15 14 14 15 15 14 11
11 11 11 11 12 12 12 12 13 12 13 13 13 13 13 14 14 14 14 14 14 15 15 15 14 15 15 14 15 14 14 14 14 14 14 14 14 14 14 14 14 14 14
11 11 11 11 11 11 11 12 12 12 12 13 13 13 13 13 13 14 14 14 13 14 14 14 14 13 14 14 13 13 13 13 13 13 13 13 13 13 13 12 13 13 13
11 10 10 9 9 9 9 9 10 10 10 11 12 12 13 13 13 13 13 13 14 14 14 14 14 13 13 14 13 13 13 12 12 12 12 12 12 12 12 12 12 12 12
9 9 8 8 8 8 8 8 9 9 10 10 10 11 11 11 11 12 12 12 13 13 13 13 13 13 13 13 13 12 12 12 12 12 11 12 11 11 11 12 11 11 10
8 8 7 6 6 7 7 8 8 8 8 8 9 9 9 10 10 10 11 11 11 11 11 11 12 12 12 12 11 11 11 11 11 11 11 11 12 12 11 11 11 10 9
8 7 6 5 6 6 6 6 7 7 7 7 7 7 7 8 8 9 9 9 10 10 11 10 10 10 11 11 11 11 10 10 10 11 11 11 11 12 12 11 10 9 8
7 6 5 5 4 5 5 5 5 5 5 5 5 5 6 6 6 6 7 8 8 9 9 9 10 10 10 10 10 11 10 10 10 10 11 11 10 10 11 10 10 10 9
6 5 5 5 5 5 5 4 4 4 4 4 4 4 4 4 5 5 5 5 6 7 7 8 8 9 9 10 10 10 9 9 9 10 10 9 9 9 10 9 9 8 9
6 5 5 4 4 4 3 3 3 3 3 3 3 3 3 2 3 3 3 4 4 4 5 5 6 7 7 9 9 9 8 8 8 9 9 9 9 9 8 8 8 7 7
4 4 4 4 4 2 2 2 2 2 2 2 2 1 1 1 1 2 2 2 2 3 4 4 5 5 6 7 8 9 7 7 7 7 7 7 8 9 7 7 7 6 6
5 5 5 5 4 3 3 3 3 2 2 1 1 1 1 1 1 0 0 1 2 2 3 4 5 4 5 6 7 8 7 6 6 6 6 6 6 6 6 6 5 4 4
6 5 5 4 3 3 3 2 2 1 1 1 1 0 0 0 -0 -0 -0 -0 1 2 2 3 3 4 4 6 6 6 6 6 5 5 5 5 5 6 6 5 5 5 5
5 5 4 4 4 3 2 2 1 1 1 1 0 0 -0 -0 -1 -1 -1 -0 1 2 3 3 3 4 4 5 6 6 6 6 5 5 6 6 6 5 4 4 5 5 4
4 4 3 3 2 2 1 1 1 1 0 0 -1 -1 -1 -1 -1 -1 -0 -0 -0 1 3 3 4 5 5 5 5 5 6 6 5 5 5 5 5 5 4 3 4 2 3
4 4 3 2 1 1 1 1 -0 -0 -1 -1 -1 -1 -2 -2 -2 -2 -1 -1 -0 0 1 2 3 5 5 5 5 5 5 5 5 4 4 3 4 4 3 2 2 1 2
3 3 2 1 1 1 1 0 -0 -1 -2 -2 -2 -2 -2 -2 -2 -2 -1 -1 -1 -1 -0 0 1 2 4 5 6 4 5 5 4 3 3 2 3 2 2 2 1 1 1
3 2 1 1 1 0 0 -0 -1 -2 -2 -2 -3 -3 -2 -2 -2 -2 -2 -1 -1 -1 -1 -0 0 1 2 4 5 5 4 5 4 2 1 2 2 1 1 1 -1 -0 -1

GFSMW_925_temp_117.txt.gz
Temp
11 14 14 16 16 16 17 18 17 17 15 15 14 14 14 14 14 16 17 15 15 15 15 15 16 16 16 17 17 17 17 17 18 18 18 18 19 19 19 19 19 19 19
10 11 13 14 15 15 16 15 16 16 16 15 14 14 15 15 14 15 16 15 15 16 16 16 16 16 16 17 17 17 17 17 18 17 17 16 17 18 18 18 18 18 18
10 10 12 14 14 15 15 14 14 15 16 15 14 14 14 14 14 15 15 15 15 15 16 16 16 17 17 17 18 18 17 18 18 18 18 14 15 15 16 16 16 17 17
10 11 12 13 14 15 14 14 14 14 15 15 14 14 15 15 15 15 15 15 15 16 16 16 16 18 18 18 18 18 18 17 17 17 17 16 16 14 14 15 15 15 15
10 11 12 13 14 14 14 13 13 14 14 14 13 14 14 15 15 15 15 15 15 16 16 16 17 18 18 18 18 18 17 17 17 16 15 15 14 14 13 13 13 14 14
11 12 12 12 12 13 13 12 13 13 14 13 13 14 14 14 14 15 15 15 15 16 16 16 17 18 18 18 18 17 16 16 15 16 16 15 14 14 13 12 12 13 13
11 11 11 11 11 10 10 10 13 13 13 13 13 13 13 14 14 14 14 14 14 15 16 16 17 18 18 19 18 16 15 15 15 16 15 15 15 16 16 14 13 12 12
11 10 10 10 9 9 9 9 13 13 13 13 13 13 13 13 13 13 13 13 14 14 14 14 14 15 16 16 14 15 16 16 15 15 15 15 15 15 16 15 13 11 11
10 9 9 8 8 8 8 9 10 11 11 12 13 13 13 13 13 13 13 14 14 14 14 14 14 15 15 15 15 14 14 14 15 14 14 14 14 14 15 15 15 14 12
8 8 8 8 9 8 8 8 9 9 9 11 11 12 13 13 14 13 13 14 14 14 14 14 14 15 15 14 14 14 14 13 13 13 13 13 13 13 14 14 13 13 13
9 9 9 8 8 8 8 8 9 9 10 10 11 11 11 11 11 12 12 13 13 13 14 14 14 14 14 14 14 13 13 13 13 13 13 13 13 13 13 13 12 12 12
8 8 7 7 7 7 7 7 7 8 8 9 10 10 11 11 12 12 12 12 12 13 13 13 14 13 13 13 13 13 13 13 13 13 13 13 13 12 12 13 11 11 12
7 6 6 6 5 6 6 6 6 6 7 8 8 8 8 9 9 9 10 10 10 11 11 11 12 12 12 12 13 13 13 13 13 13 12 12 12 12 11 11 10 10 11
6 6 5 4 4 5 5 5 6 6 6 6 6 6 6 6 7 7 8 8 9 9 10 10 10 10 10 11 11 11 12 12 12 12 12 12 11 11 11 10 10 9 9
6 5 4 3 4 4 5 5 5 5 5 5 5 5 5 5 5 5 5 6 7 7 7 8 8 9 9 9 10 10 10 10 11 11 11 11 11 11 11 10 9 9 9
5 5 4 3 3 3 4 4 4 4 4 4 4 3 3 3 3 3 3 3 3 4 5 6 6 6 7 7 8 9 9 10 10 10 10 10 10 10 10 11 11 11 9
6 5 4 4 4 3 3 3 3 3 3 3 2 2 2 1 1 1 2 2 2 2 2 3 4 4 5 6 8 8 8 9 9 9 9 9 9 9 10 9 10 10 11
6 5 4 3 4 3 2 2 2 2 2 1 1 1 0 0 1 1 1 1 1 1 1 2 2 2 4 5 5 7 7 7 8 8 8 8 8 8 9 8 8 8 9
5 4 4 3 2 2 2 2 1 1 1 0 0 0 -0 -0 0 0 -0 0 0 0 1 1 2 3 3 3 4 5 5 6 7 7 8 7 7 7 7 6 7 7 7
5 4 3 2 2 2 2 1 1 1 0 0 0 -0 -0 -1 -0 -0 -1 -1 -1 -1 -0 1 2 2 3 5 4 4 4 5 6 6 7 7 7 7 7 6 7 5 6
4 4 3 3 3 3 3 2 1 0 0 0 0 -0 -0 -1 -1 -1 -1 -1 -1 -1 -0 0 1 2 3 3 4 3 4 5 6 6 5 6 6 7 6 6 6 5 6
4 4 4 3 3 3 3 2 1 1 1 0 0 -0 -0 -1 -1 -1 -2 -1 -1 -1 -0 -0 1 2 3 3 4 4 4 5 5 5 5 6 6 6 6 6 6 5 5
4 4 3 3 4 3 2 1 1 0 -0 -1 -1 -1 -1 -1 -2 -1 -1 -2 -1 -1 -1 -0 -0 0 1 2 4 5 4 5 5 5 5 6 6 5 5 5 5 4 4
3 3 3 2 2 2 1 1 0 -0 -1 -2 -2 -2 -2 -2 -2 -2 -2 -2 -2 -1 -1 -1 -0 0 0 1 1 3 5 4 5 5 5 5 5 4 4 3 3 4 3
3 3 2 2 1 1 1 0 -0 -1 -2 -2 -2 -2 -3 -3 -2 -2 -2 -2 -2 -2 -1 -1 -1 -1 -0 0 0 1 2 4 5 5 4 4 3 4 3 2 2 2 1
3 2 2 1 1 0 0 -0 -1 -2 -2 -3 -3 -3 -3 -3 -3 -3 -2 -2 -2 -2 -1 -1 -0 -1 -0 -0 0 1 2 3 4 4 3 2 3 3 2 1 0 -0 -0

GFSMW_925_temp_120.txt.gz
Temp
9 11 13 14 14 15 17 17 16 17 16 14 13 13 13 13 14 15 16 15 16 16 15 15 15 15 15 16 17 16 16 16 16 16 17 17 18 18 19 19 19 19 19
8 9 11 13 14 15 17 16 17 16 16 15 15 14 14 14 14 14 15 15 15 15 15 15 15 15 15 16 16 16 15 15 16 16 16 15 17 18 18 18 18 18 18
8 9 9 12 14 13 15 16 16 15 15 15 14 14 14 14 14 14 14 14 14 15 15 15 15 15 15 15 15 15 15 15 16 16 17 14 15 15 17 17 17 17 17
8 9 10 11 12 14 14 13 13 14 14 14 14 14 14 13 14 15 15 14 14 15 15 15 15 15 15 15 16 16 15 15 16 15 17 16 16 14 14 15 15 16 16
8 9 10 11 12 12 12 12 13 13 14 13 14 14 14 14 14 15 14 14 15 15 15 15 14 14 14 16 16 16 15 16 16 17 16 15 15 14 13 13 13 14 15
10 10 10 10 10 10 11 11 12 12 13 14 14 14 13 14 14 14 14 14 14 14 15 15 15 14 14 15 16 16 18 17 16 17 17 17 15 14 13 12 12 12 14
11 10 10 10 9 8 8 9 10 12 12 13 14 13 13 14 14 13 14 14 13 14 14 14 14 14 14 15 16 17 18 17 16 15 15 16 15 16 15 14 12 12 13
9 8 8 7 7 6 7 7 11 13 13 13 13 13 13 13 13 14 14 13 13 13 13 13 13 13 14 14 14 15 16 15 14 15 17 17 15 15 15 14 13 11 11
7 7 6 6 5 5 5 5 6 7 9 9 11 13 13 13 13 13 13 14 14 14 13 13 13 13 14 14 14 15 15 15 15 14 14 14 15 15 15 14 14 14 14
6 6 7 6 4 5 5 5 5 6 7 8 8 8 10 11 12 12 12 13 13 13 13 13 13 13 13 13 13 14 14 13 13 13 14 13 13 14 13 13 13 13 13
8 7 7 6 6 6 6 6 6 6 7 8 7 8 8 8 9 9 10 10 10 12 12 13 13 13 13 13 13 13 13 13 13 13 13 13 13 13 13 13 13 13 13
7 6 5 5 5 5 5 5 5 6 6 6 7 7 7 8 9 9 9 9 10 11 10 11 11 11 13 13 13 13 13 13 13 13 13 13 13 13 13 13 13 12 12
5 4 4 4 3 4 4 4 5 5 5 6 6 5 5 5 6 6 7 8 8 9 9 9 10 9 10 10 11 11 11 12 13 13 13 13 13 13 13 12 12 12 11
5 4 3 2 3 3 3 3 3 4 4 4 4 4 4 4 4 4 5 6 6 6 7 7 8 8 8 9 9 9 10 11 11 11 11 12 12 12 12 12 12 11 10
5 4 3 2 3 3 3 3 3 3 3 3 2 2 2 2 2 3 3 3 3 3 3 4 4 5 5 6 7 7 7 8 9 9 10 10 10 11 11 11 11 10 9
6 4 3 2 2 3 3 3 3 3 3 3 2 2 2 2 1 1 2 2 2 1 1 1 1 2 3 3 4 5 5 6 7 8 9 9 10 10 10 10 11 10 9
6 5 3 2 2 3 3 2 2 2 2 1 0 0 -0 -0 -0 0 0 0 0 0 0 1 1 1 1 2 2 3 4 4 5 7 8 8 9 9 9 9 9 10 9
6 4 3 3 3 3 2 1 1 1 0 0 -0 -0 -1 -1 -1 -1 -1 -1 -1 -1 -1 -0 -0 0 1 1 2 2 3 3 4 5 6 7 8 8 8 8 8 8 8
5 4 4 3 2 1 1 1 1 0 -0 -0 -0 -0 -1 -1 -1 -1 -1 -1 -1 -1 -1 -1 -0 -0 0 1 2 3 3 3 3 4 5 6 6 7 8 7 7 7 7
4 4 3 2 1 1 1 1 0 0 -0 -0 -0 -1 -1 -1 -1 -1 -2 -2 -2 -1 -1 -1 -1 -0 0 0 2 3 3 3 3 3 4 5 6 6 7 6 6 5 6
4 3 2 2 1 1 1 1 0 -0 -0 -0 -0 -0 -0 -1 -1 -2 -2 -2 -2 -2 -2 -1 -1 -0 0 0 1 2 3 3 4 4 4 5 6 7 6 6 6 6 7
3 2 2 2 2 2 2 1 1 0 0 0 -0 -0 -1 -1 -2 -2 -2 -2 -2 -1 -1 -1 -1 -0 -0 0 0 1 1 2 3 4 4 5 5 5 6 6 6 5 6
3 2 2 2 2 2 2 1 0 0 0 -0 -1 -1 -2 -2 -2 -2 -3 -2 -2 -2 -1 -1 -1 -1 -0 0 0 1 1 1 1 3 4 4 5 5 5 5 5 4 5
2 2 2 1 2 2 2 1 0 -0 -1 -1 -2 -3 -2 -2 -2 -2 -2 -3 -2 -2 -2 -2 -1 -1 -1 -1 -0 -0 0 0 1 1 4 4 5 5 5 5 4 4 4
2 2 2 1 1 1 1 0 -0 -1 -2 -3 -3 -3 -3 -3 -3 -3 -3 -2 -2 -2 -2 -2 -2 -2 -1 -1 -1 -0 0 0 1 1 1 4 4 4 4 4 3 2 2
2 2 2 1 1 0 -0 -0 -1 -2 -2 -3 -2 -2 -3 -2 -3 -3 -3 -3 -3 -3 -2 -2 -1 -1 -1 -1 -0 -0 0 0 1 2 2 3 3 3 3 2 1 0 1